Wetterdaten: Sonntag, 10.02.2019
Datum Zeit Temp. A. Pool Temp. Temp. 5cm Feuchte A. Luftdruck Regen Wind Richtung Richtung Sonnenschein ET UV Solar Taupunkt Windchill Windben Empfang
10.02.2019 00:00 2,9 C 3,9 C 0,0 C 84 % 1017,1 hPa 0,0 l/m 3,6 km/h (1 Bft) S-SW 192 0 min 0,000 mm 0,0 UV-I 0 W/m 0,5 C 2,9 C 4,8 km/h (1 Bft) 87,50 %
10.02.2019 00:02 2,8 C 3,9 C -0,6 C 84 % 1017,1 hPa 0,0 l/m 5,2 km/h (1 Bft) S 191 0 min 0,000 mm 0,0 UV-I 0 W/m 0,4 C 2,8 C 6,4 km/h (2 Bft) 91,11 %
10.02.2019 00:04 2,7 C 3,9 C -0,6 C 85 % 1017,1 hPa 0,0 l/m 4,4 km/h (1 Bft) S 188 0 min 0,000 mm 0,0 UV-I 0 W/m 0,4 C 2,7 C 8,0 km/h (2 Bft) 93,62 %
10.02.2019 00:06 3,0 C 3,9 C -0,6 C 85 % 1017,1 hPa 0,0 l/m 4,4 km/h (1 Bft) S 188 0 min 0,000 mm 0,0 UV-I 0 W/m 0,7 C 3,0 C 6,4 km/h (2 Bft) 93,62 %
10.02.2019 00:08 3,3 C 3,9 C -1,1 C 85 % 1017,1 hPa 0,0 l/m 3,6 km/h (1 Bft) S 188 0 min 0,000 mm 0,0 UV-I 0 W/m 1,0 C 3,3 C 4,8 km/h (1 Bft) 92,11 %
10.02.2019 00:10 3,4 C 3,9 C -1,1 C 84 % 1017,1 hPa 0,0 l/m 2,3 km/h (1 Bft) S 188 0 min 0,000 mm 0,0 UV-I 0 W/m 1,0 C 3,4 C 3,2 km/h (1 Bft) 92,00 %
10.02.2019 00:12 3,4 C 3,9 C -1,1 C 83 % 1017,0 hPa 0,0 l/m 1,1 km/h (1 Bft) S 188 0 min 0,000 mm 0,0 UV-I 0 W/m 0,8 C 3,4 C 3,2 km/h (1 Bft) 95,74 %
10.02.2019 00:14 3,4 C 3,9 C -1,1 C 83 % 1017,1 hPa 0,0 l/m 2,1 km/h (1 Bft) S 188 0 min 0,000 mm 0,0 UV-I 0 W/m 0,8 C 3,4 C 3,2 km/h (1 Bft) 91,49 %
10.02.2019 00:16 3,5 C 3,9 C -1,1 C 83 % 1017,1 hPa 0,0 l/m 2,5 km/h (1 Bft) S 188 0 min 0,000 mm 0,0 UV-I 0 W/m 0,9 C 3,5 C 4,8 km/h (1 Bft) 95,74 %
10.02.2019 00:18 3,4 C 3,9 C -1,1 C 83 % 1017,2 hPa 0,0 l/m 1,9 km/h (1 Bft) S 188 0 min 0,000 mm 0,0 UV-I 0 W/m 0,8 C 3,4 C 3,2 km/h (1 Bft) 95,74 %
10.02.2019 00:20 3,4 C 3,9 C -1,1 C 83 % 1017,2 hPa 0,0 l/m 2,9 km/h (1 Bft) S 188 0 min 0,000 mm 0,0 UV-I 0 W/m 0,8 C 3,4 C 4,8 km/h (1 Bft) 95,74 %
10.02.2019 00:22 3,3 C 3,9 C -1,1 C 82 % 1017,2 hPa 0,0 l/m 5,4 km/h (1 Bft) S 188 0 min 0,000 mm 0,0 UV-I 0 W/m 0,5 C 3,3 C 8,0 km/h (2 Bft) 94,00 %
10.02.2019 00:24 3,1 C 3,9 C -1,1 C 83 % 1017,1 hPa 0,0 l/m 3,0 km/h (1 Bft) S 190 0 min 0,000 mm 0,0 UV-I 0 W/m 0,5 C 3,1 C 6,4 km/h (2 Bft) 93,62 %
10.02.2019 00:26 2,9 C 3,9 C -1,1 C 83 % 1017,2 hPa 0,0 l/m 0,5 km/h (0 Bft) S 190 0 min 0,000 mm 0,0 UV-I 0 W/m 0,3 C 2,9 C 1,6 km/h (1 Bft) 95,74 %
10.02.2019 00:28 2,7 C 3,9 C -1,1 C 84 % 1017,2 hPa 0,0 l/m 1,8 km/h (1 Bft) S 190 0 min 0,000 mm 0,0 UV-I 0 W/m 0,3 C 2,7 C 3,2 km/h (1 Bft) 97,22 %
10.02.2019 00:31 2,7 C 3,9 C -1,1 C 85 % 1017,2 hPa 0,0 l/m 2,6 km/h (1 Bft) S-SW 192 0 min 0,000 mm 0,0 UV-I 0 W/m 0,4 C 2,7 C 4,8 km/h (1 Bft) 97,26 %
10.02.2019 00:32 2,7 C 3,9 C -1,1 C 85 % 1017,2 hPa 0,0 l/m 3,4 km/h (1 Bft) S-SW 192 0 min 0,000 mm 0,0 UV-I 0 W/m 0,4 C 2,7 C 4,8 km/h (1 Bft) 96,30 %
10.02.2019 00:34 2,8 C 3,9 C -1,1 C 85 % 1017,2 hPa 0,0 l/m 3,6 km/h (1 Bft) S-SW 192 0 min 0,000 mm 0,0 UV-I 0 W/m 0,5 C 2,8 C 4,8 km/h (1 Bft) 93,62 %
10.02.2019 00:36 2,7 C 3,9 C -1,1 C 84 % 1017,2 hPa 0,0 l/m 4,2 km/h (1 Bft) S-SW 193 0 min 0,000 mm 0,0 UV-I 0 W/m 0,3 C 2,7 C 6,4 km/h (2 Bft) 97,87 %
10.02.2019 00:38 2,2 C 3,9 C -1,1 C 84 % 1017,1 hPa 0,0 l/m 4,1 km/h (1 Bft) S-SW 193 0 min 0,000 mm 0,0 UV-I 0 W/m -0,2 C 2,2 C 4,8 km/h (1 Bft) 95,74 %
10.02.2019 00:40 2,0 C 3,9 C -1,7 C 86 % 1017,1 hPa 0,0 l/m 4,0 km/h (1 Bft) S-SW 193 0 min 0,000 mm 0,0 UV-I 0 W/m -0,1 C 2,0 C 4,8 km/h (1 Bft) 96,00 %
10.02.2019 00:42 2,2 C 3,9 C -1,1 C 88 % 1017,1 hPa 0,0 l/m 4,7 km/h (1 Bft) S-SW 208 0 min 0,000 mm 0,0 UV-I 0 W/m 0,4 C 2,2 C 6,4 km/h (2 Bft) 97,87 %
10.02.2019 00:44 2,6 C 3,9 C -1,1 C 87 % 1017,1 hPa 0,0 l/m 4,2 km/h (1 Bft) S-SW 208 0 min 0,000 mm 0,0 UV-I 0 W/m 0,7 C 2,6 C 4,8 km/h (1 Bft) 96,00 %
10.02.2019 00:46 2,8 C 3,9 C -1,1 C 86 % 1017,1 hPa 0,0 l/m 4,9 km/h (1 Bft) S-SW 208 0 min 0,000 mm 0,0 UV-I 0 W/m 0,7 C 2,8 C 6,4 km/h (2 Bft) 97,87 %
10.02.2019 00:48 2,8 C 3,9 C -1,1 C 85 % 1017,0 hPa 0,0 l/m 5,3 km/h (1 Bft) S-SW 208 0 min 0,000 mm 0,0 UV-I 0 W/m 0,5 C 2,8 C 6,4 km/h (2 Bft) 95,74 %
10.02.2019 00:50 2,7 C 3,9 C -1,1 C 85 % 1017,1 hPa 0,0 l/m 4,6 km/h (1 Bft) S-SW 208 0 min 0,000 mm 0,0 UV-I 0 W/m 0,4 C 2,7 C 6,4 km/h (2 Bft) 97,37 %
10.02.2019 00:52 2,6 C 3,9 C -1,1 C 86 % 1017,1 hPa 0,0 l/m 4,5 km/h (1 Bft) S-SW 209 0 min 0,000 mm 0,0 UV-I 0 W/m 0,5 C 2,6 C 6,4 km/h (2 Bft) 94,00 %
10.02.2019 00:54 2,7 C 3,9 C -1,1 C 86 % 1017,0 hPa 0,0 l/m 4,2 km/h (1 Bft) S-SW 209 0 min 0,000 mm 0,0 UV-I 0 W/m 0,6 C 2,7 C 6,4 km/h (2 Bft) 98,00 %
10.02.2019 00:56 2,8 C 3,9 C -1,1 C 86 % 1017,0 hPa 0,0 l/m 4,1 km/h (1 Bft) S-SW 209 0 min 0,000 mm 0,0 UV-I 0 W/m 0,7 C 2,8 C 4,8 km/h (1 Bft) 100,00 %
10.02.2019 00:58 2,7 C 3,9 C -1,7 C 85 % 1017,0 hPa 0,0 l/m 4,9 km/h (1 Bft) S-SW 209 0 min 0,000 mm 0,0 UV-I 0 W/m 0,4 C 2,7 C 6,4 km/h (2 Bft) 93,62 %
10.02.2019 01:00 2,7 C 3,9 C -1,1 C 85 % 1017,0 hPa 0,0 l/m 4,6 km/h (1 Bft) S-SW 209 0 min 0,000 mm 0,0 UV-I 0 W/m 0,4 C 2,7 C 6,4 km/h (2 Bft) 97,87 %
10.02.2019 01:02 2,6 C 3,9 C -1,7 C 86 % 1016,9 hPa 0,0 l/m 5,1 km/h (1 Bft) S-SW 212 0 min 0,000 mm 0,0 UV-I 0 W/m 0,5 C 2,6 C 6,4 km/h (2 Bft) 95,74 %
10.02.2019 01:04 2,4 C 3,9 C -1,1 C 86 % 1017,0 hPa 0,0 l/m 6,2 km/h (2 Bft) S 191 0 min 0,000 mm 0,0 UV-I 0 W/m 0,3 C 2,4 C 8,0 km/h (2 Bft) 94,87 %
10.02.2019 01:06 2,3 C 3,9 C -1,1 C 86 % 1017,0 hPa 0,0 l/m 3,4 km/h (1 Bft) SW 218 0 min 0,000 mm 0,0 UV-I 0 W/m 0,2 C 2,3 C 4,8 km/h (1 Bft) 93,62 %
10.02.2019 01:08 2,2 C 3,9 C -1,1 C 86 % 1017,0 hPa 0,0 l/m 3,3 km/h (1 Bft) SW 218 0 min 0,000 mm 0,0 UV-I 0 W/m 0,1 C 2,2 C 4,8 km/h (1 Bft) 97,92 %
10.02.2019 01:10 2,1 C 3,9 C -1,1 C 87 % 1017,0 hPa 0,0 l/m 5,4 km/h (1 Bft) S-SW 192 0 min 0,000 mm 0,0 UV-I 0 W/m 0,2 C 2,1 C 8,0 km/h (2 Bft) 94,00 %
10.02.2019 01:12 1,8 C 3,9 C -1,7 C 87 % 1017,0 hPa 0,0 l/m 5,0 km/h (1 Bft) S-SW 199 0 min 0,000 mm 0,0 UV-I 0 W/m -0,1 C 1,8 C 8,0 km/h (2 Bft) 95,74 %
10.02.2019 01:14 1,7 C 3,9 C -1,7 C 88 % 1017,0 hPa 0,0 l/m 3,6 km/h (1 Bft) S-SW 200 0 min 0,000 mm 0,0 UV-I 0 W/m -0,1 C 1,7 C 4,8 km/h (1 Bft) 91,49 %
10.02.2019 01:16 1,7 C 3,9 C -1,7 C 89 % 1016,9 hPa 0,0 l/m 3,7 km/h (1 Bft) S-SW 199 0 min 0,000 mm 0,0 UV-I 0 W/m 0,1 C 1,7 C 4,8 km/h (1 Bft) 93,62 %
10.02.2019 01:18 1,8 C 3,9 C -1,7 C 89 % 1016,9 hPa 0,0 l/m 3,9 km/h (1 Bft) S-SW 199 0 min 0,000 mm 0,0 UV-I 0 W/m 0,2 C 1,8 C 4,8 km/h (1 Bft) 93,75 %
10.02.2019 01:20 1,9 C 3,9 C -1,7 C 88 % 1016,9 hPa 0,0 l/m 4,0 km/h (1 Bft) S-SW 199 0 min 0,000 mm 0,0 UV-I 0 W/m 0,1 C 1,9 C 4,8 km/h (1 Bft) 95,74 %
10.02.2019 01:22 1,9 C 3,9 C -1,7 C 88 % 1016,9 hPa 0,0 l/m 4,2 km/h (1 Bft) S-SW 199 0 min 0,000 mm 0,0 UV-I 0 W/m 0,1 C 1,9 C 4,8 km/h (1 Bft) 95,74 %
10.02.2019 01:24 1,9 C 3,9 C -1,7 C 88 % 1016,8 hPa 0,0 l/m 4,4 km/h (1 Bft) S-SW 200 0 min 0,000 mm 0,0 UV-I 0 W/m 0,1 C 1,9 C 4,8 km/h (1 Bft) 95,74 %
10.02.2019 01:26 1,7 C 3,9 C -1,7 C 88 % 1016,8 hPa 0,0 l/m 5,1 km/h (1 Bft) S-SW 199 0 min 0,000 mm 0,0 UV-I 0 W/m -0,1 C 1,7 C 6,4 km/h (2 Bft) 93,62 %
10.02.2019 01:28 1,7 C 3,9 C -1,7 C 88 % 1016,8 hPa 0,0 l/m 5,0 km/h (1 Bft) S-SW 199 0 min 0,000 mm 0,0 UV-I 0 W/m -0,1 C 1,7 C 6,4 km/h (2 Bft) 94,87 %
10.02.2019 01:30 1,9 C 3,9 C -1,7 C 89 % 1016,8 hPa 0,0 l/m 4,7 km/h (1 Bft) S-SW 199 0 min 0,000 mm 0,0 UV-I 0 W/m 0,3 C 1,9 C 6,4 km/h (2 Bft) 96,00 %
10.02.2019 01:32 2,1 C 3,9 C -1,7 C 89 % 1016,7 hPa 0,0 l/m 3,8 km/h (1 Bft) S-SW 199 0 min 0,000 mm 0,0 UV-I 0 W/m 0,5 C 2,1 C 4,8 km/h (1 Bft) 93,62 %
10.02.2019 01:34 2,2 C 3,9 C -1,7 C 88 % 1016,8 hPa 0,0 l/m 5,2 km/h (1 Bft) S-SW 199 0 min 0,000 mm 0,0 UV-I 0 W/m 0,4 C 2,2 C 6,4 km/h (2 Bft) 97,87 %
10.02.2019 01:36 2,2 C 3,9 C -1,7 C 87 % 1016,7 hPa 0,0 l/m 5,1 km/h (1 Bft) S-SW 199 0 min 0,000 mm 0,0 UV-I 0 W/m 0,3 C 2,2 C 6,4 km/h (2 Bft) 95,74 %
10.02.2019 01:38 2,2 C 3,9 C -1,7 C 88 % 1016,6 hPa 0,0 l/m 4,0 km/h (1 Bft) S-SW 198 0 min 0,000 mm 0,0 UV-I 0 W/m 0,4 C 2,2 C 4,8 km/h (1 Bft) 91,49 %
10.02.2019 01:40 2,2 C 3,9 C -1,7 C 88 % 1016,6 hPa 0,0 l/m 3,4 km/h (1 Bft) S-SW 199 0 min 0,000 mm 0,0 UV-I 0 W/m 0,4 C 2,2 C 4,8 km/h (1 Bft) 100,00 %
10.02.2019 01:42 2,3 C 3,9 C -1,7 C 88 % 1016,6 hPa 0,0 l/m 3,4 km/h (1 Bft) S-SW 199 0 min 0,000 mm 0,0 UV-I 0 W/m 0,5 C 2,3 C 4,8 km/h (1 Bft) 100,00 %
10.02.2019 01:44 2,3 C 3,9 C -1,7 C 87 % 1016,6 hPa 0,0 l/m 3,4 km/h (1 Bft) S-SW 199 0 min 0,000 mm 0,0 UV-I 0 W/m 0,4 C 2,3 C 4,8 km/h (1 Bft) 100,00 %
10.02.2019 01:46 2,4 C 3,9 C -1,7 C 87 % 1016,6 hPa 0,0 l/m 2,8 km/h (1 Bft) S-SW 199 0 min 0,000 mm 0,0 UV-I 0 W/m 0,5 C 2,4 C 4,8 km/h (1 Bft) 97,87 %
10.02.2019 01:48 2,4 C 3,9 C -1,7 C 87 % 1016,7 hPa 0,0 l/m 1,9 km/h (1 Bft) S-SW 199 0 min 0,000 mm 0,0 UV-I 0 W/m 0,5 C 2,4 C 3,2 km/h (1 Bft) 100,00 %
10.02.2019 01:50 1,9 C 3,9 C -1,7 C 85 % 1016,6 hPa 0,0 l/m 2,3 km/h (1 Bft) S-SW 199 0 min 0,000 mm 0,0 UV-I 0 W/m -0,3 C 1,9 C 3,2 km/h (1 Bft) 100,00 %
10.02.2019 01:52 1,4 C 3,9 C -1,7 C 86 % 1016,7 hPa 0,0 l/m 1,8 km/h (1 Bft) S-SW 199 0 min 0,000 mm 0,0 UV-I 0 W/m -0,7 C 1,4 C 3,2 km/h (1 Bft) 95,74 %
10.02.2019 01:54 1,1 C 3,9 C -1,7 C 88 % 1016,6 hPa 0,0 l/m 2,3 km/h (1 Bft) S-SW 199 0 min 0,000 mm 0,0 UV-I 0 W/m -0,7 C 1,1 C 3,2 km/h (1 Bft) 100,00 %
10.02.2019 01:56 1,0 C 3,9 C -1,7 C 89 % 1016,6 hPa 0,0 l/m 2,8 km/h (1 Bft) S-SW 199 0 min 0,000 mm 0,0 UV-I 0 W/m -0,6 C 1,0 C 4,8 km/h (1 Bft) 97,87 %
10.02.2019 01:58 1,0 C 3,9 C -1,7 C 89 % 1016,6 hPa 0,0 l/m 2,3 km/h (1 Bft) S-SW 199 0 min 0,000 mm 0,0 UV-I 0 W/m -0,6 C 1,0 C 3,2 km/h (1 Bft) 100,00 %
10.02.2019 02:00 1,1 C 3,9 C -1,7 C 90 % 1016,5 hPa 0,0 l/m 2,3 km/h (1 Bft) S-SW 198 0 min 0,000 mm 0,0 UV-I 0 W/m -0,4 C 1,1 C 3,2 km/h (1 Bft) 100,00 %
10.02.2019 02:02 1,1 C 3,9 C -2,2 C 90 % 1016,5 hPa 0,0 l/m 2,0 km/h (1 Bft) S-SW 198 0 min 0,000 mm 0,0 UV-I 0 W/m -0,4 C 1,1 C 3,2 km/h (1 Bft) 100,00 %
10.02.2019 02:04 1,2 C 3,9 C -2,2 C 90 % 1016,5 hPa 0,0 l/m 2,5 km/h (1 Bft) S-SW 198 0 min 0,000 mm 0,0 UV-I 0 W/m -0,3 C 1,2 C 3,2 km/h (1 Bft) 98,00 %
10.02.2019 02:06 1,3 C 3,9 C -2,2 C 90 % 1016,5 hPa 0,0 l/m 5,0 km/h (1 Bft) O-NO 71 0 min 0,000 mm 0,0 UV-I 0 W/m -0,2 C 1,3 C 6,4 km/h (2 Bft) 100,00 %
10.02.2019 02:08 1,5 C 3,9 C -1,7 C 90 % 1016,5 hPa 0,0 l/m 5,4 km/h (1 Bft) O-NO 71 0 min 0,000 mm 0,0 UV-I 0 W/m 0,0 C 1,5 C 6,4 km/h (2 Bft) 100,00 %
10.02.2019 02:10 1,7 C 3,9 C -1,7 C 90 % 1016,5 hPa 0,0 l/m 5,7 km/h (1 Bft) O-NO 69 0 min 0,000 mm 0,0 UV-I 0 W/m 0,2 C 1,7 C 6,4 km/h (2 Bft) 100,00 %
10.02.2019 02:12 1,9 C 3,9 C -1,1 C 90 % 1016,5 hPa 0,0 l/m 5,9 km/h (2 Bft) O-NO 74 0 min 0,000 mm 0,0 UV-I 0 W/m 0,4 C 1,9 C 6,4 km/h (2 Bft) 100,00 %
10.02.2019 02:14 1,9 C 3,9 C -1,1 C 90 % 1016,5 hPa 0,0 l/m 5,4 km/h (1 Bft) O-NO 74 0 min 0,000 mm 0,0 UV-I 0 W/m 0,4 C 1,9 C 6,4 km/h (2 Bft) 100,00 %
10.02.2019 02:16 1,9 C 3,9 C -1,1 C 89 % 1016,5 hPa 0,0 l/m 4,8 km/h (1 Bft) O-NO 74 0 min 0,000 mm 0,0 UV-I 0 W/m 0,3 C 1,9 C 6,4 km/h (2 Bft) 100,00 %
10.02.2019 02:18 2,1 C 3,9 C -1,1 C 89 % 1016,4 hPa 0,0 l/m 4,7 km/h (1 Bft) O-SO 105 0 min 0,000 mm 0,0 UV-I 0 W/m 0,5 C 2,1 C 9,7 km/h (2 Bft) 100,00 %
10.02.2019 02:20 1,8 C 3,9 C -1,1 C 88 % 1016,4 hPa 0,0 l/m 4,5 km/h (1 Bft) S 181 0 min 0,000 mm 0,0 UV-I 0 W/m 0,0 C 1,8 C 8,0 km/h (2 Bft) 93,75 %
10.02.2019 02:22 1,5 C 3,9 C -1,1 C 88 % 1016,4 hPa 0,0 l/m 6,3 km/h (2 Bft) S 178 0 min 0,000 mm 0,0 UV-I 0 W/m -0,3 C 1,5 C 8,0 km/h (2 Bft) 97,96 %
10.02.2019 02:24 1,1 C 3,9 C -1,1 C 88 % 1016,3 hPa 0,0 l/m 4,3 km/h (1 Bft) S 176 0 min 0,000 mm 0,0 UV-I 0 W/m -0,7 C 1,1 C 6,4 km/h (2 Bft) 97,92 %
10.02.2019 02:26 1,0 C 3,9 C -1,7 C 89 % 1016,3 hPa 0,0 l/m 0,8 km/h (0 Bft) S 176 0 min 0,000 mm 0,0 UV-I 0 W/m -0,6 C 1,0 C 3,2 km/h (1 Bft) 93,62 %
10.02.2019 02:28 0,9 C 3,9 C -1,7 C 90 % 1016,2 hPa 0,0 l/m 1,2 km/h (1 Bft) S 176 0 min 0,000 mm 0,0 UV-I 0 W/m -0,6 C 0,9 C 3,2 km/h (1 Bft) 95,74 %
10.02.2019 02:30 0,8 C 3,9 C -1,7 C 90 % 1016,3 hPa 0,0 l/m 1,0 km/h (0 Bft) S 176 0 min 0,000 mm 0,0 UV-I 0 W/m -0,6 C 0,8 C 3,2 km/h (1 Bft) 97,87 %
10.02.2019 02:32 0,7 C 3,9 C -1,7 C 90 % 1016,2 hPa 0,0 l/m 2,1 km/h (1 Bft) W-SW 242 0 min 0,000 mm 0,0 UV-I 0 W/m -0,7 C 0,7 C 4,8 km/h (1 Bft) 97,87 %
10.02.2019 02:34 0,7 C 3,9 C -1,7 C 90 % 1016,2 hPa 0,0 l/m 2,6 km/h (1 Bft) S 175 0 min 0,000 mm 0,0 UV-I 0 W/m -0,7 C 0,7 C 3,2 km/h (1 Bft) 93,62 %
10.02.2019 02:36 0,6 C 3,9 C -1,7 C 91 % 1016,1 hPa 0,0 l/m 5,2 km/h (1 Bft) SO 134 0 min 0,000 mm 0,0 UV-I 0 W/m -0,7 C 0,6 C 8,0 km/h (2 Bft) 97,87 %
10.02.2019 02:38 0,6 C 3,9 C -1,7 C 91 % 1016,2 hPa 0,0 l/m 5,9 km/h (2 Bft) S-SO 153 0 min 0,000 mm 0,0 UV-I 0 W/m -0,7 C 0,6 C 8,0 km/h (2 Bft) 97,87 %
10.02.2019 02:40 0,7 C 3,9 C -1,7 C 91 % 1016,1 hPa 0,0 l/m 1,5 km/h (1 Bft) S-SO 153 0 min 0,000 mm 0,0 UV-I 0 W/m -0,6 C 0,7 C 4,8 km/h (1 Bft) 95,74 %
10.02.2019 02:42 0,9 C 3,9 C -1,7 C 92 % 1016,0 hPa 0,0 l/m 2,6 km/h (1 Bft) S-SO 153 0 min 0,000 mm 0,0 UV-I 0 W/m -0,2 C 0,9 C 3,2 km/h (1 Bft) 95,74 %
10.02.2019 02:44 0,9 C 3,9 C -1,7 C 91 % 1016,0 hPa 0,0 l/m 1,8 km/h (1 Bft) S-SO 153 0 min 0,000 mm 0,0 UV-I 0 W/m -0,4 C 0,9 C 3,2 km/h (1 Bft) 95,74 %
10.02.2019 02:46 0,8 C 3,9 C -1,7 C 91 % 1016,0 hPa 0,0 l/m 2,7 km/h (1 Bft) W-NW 296 0 min 0,000 mm 0,0 UV-I 0 W/m -0,5 C 0,8 C 4,8 km/h (1 Bft) 97,87 %
10.02.2019 02:48 0,6 C 3,9 C -1,7 C 90 % 1015,9 hPa 0,0 l/m 1,1 km/h (1 Bft) W-NW 296 0 min 0,000 mm 0,0 UV-I 0 W/m -0,8 C 0,6 C 3,2 km/h (1 Bft) 100,00 %
10.02.2019 02:50 0,4 C 3,9 C -1,7 C 91 % 1015,9 hPa 0,0 l/m 0,8 km/h (0 Bft) W-NW 296 0 min 0,000 mm 0,0 UV-I 0 W/m -0,9 C 0,4 C 3,2 km/h (1 Bft) 97,87 %
10.02.2019 02:52 0,4 C 3,9 C -1,7 C 91 % 1015,9 hPa 0,0 l/m 2,6 km/h (1 Bft) W-NW 296 0 min 0,000 mm 0,0 UV-I 0 W/m -0,9 C 0,4 C 4,8 km/h (1 Bft) 97,87 %
10.02.2019 02:54 0,3 C 3,9 C -1,7 C 91 % 1015,9 hPa 0,0 l/m 0,9 km/h (0 Bft) W-NW 295 0 min 0,000 mm 0,0 UV-I 0 W/m -1,0 C 0,3 C 3,2 km/h (1 Bft) 97,87 %
10.02.2019 02:56 0,2 C 3,9 C -1,7 C 91 % 1015,9 hPa 0,0 l/m 2,3 km/h (1 Bft) S 186 0 min 0,000 mm 0,0 UV-I 0 W/m -1,1 C 0,2 C 4,8 km/h (1 Bft) 97,87 %
10.02.2019 02:58 0,1 C 3,9 C -1,7 C 91 % 1015,8 hPa 0,0 l/m 3,1 km/h (1 Bft) S 186 0 min 0,000 mm 0,0 UV-I 0 W/m -1,2 C 0,1 C 4,8 km/h (1 Bft) 98,00 %
10.02.2019 03:00 0,0 C 3,9 C -2,2 C 92 % 1015,8 hPa 0,0 l/m 0,3 km/h (0 Bft) S 186 0 min 0,000 mm 0,0 UV-I 0 W/m -1,1 C 0,0 C 1,6 km/h (1 Bft) 97,87 %
10.02.2019 03:02 0,1 C 3,9 C -2,2 C 92 % 1015,7 hPa 0,0 l/m 0,0 km/h (0 Bft) S 186 0 min 0,000 mm 0,0 UV-I 0 W/m -1,0 C 0,1 C 0,0 km/h (0 Bft) 94,00 %
10.02.2019 03:04 0,3 C 3,9 C -2,2 C 92 % 1015,7 hPa 0,0 l/m 0,0 km/h (0 Bft) S 186 0 min 0,000 mm 0,0 UV-I 0 W/m -0,8 C 0,3 C 0,0 km/h (0 Bft) 97,92 %
10.02.2019 03:06 0,4 C 3,9 C -2,8 C 93 % 1015,7 hPa 0,0 l/m 0,0 km/h (0 Bft) S 186 0 min 0,000 mm 0,0 UV-I 0 W/m -0,6 C 0,4 C 0,0 km/h (0 Bft) 95,74 %
10.02.2019 03:08 0,6 C 3,9 C -2,2 C 93 % 1015,7 hPa 0,0 l/m 2,0 km/h (1 Bft) SO 132 0 min 0,000 mm 0,0 UV-I 0 W/m -0,4 C 0,6 C 4,8 km/h (1 Bft) 97,87 %
10.02.2019 03:10 0,9 C 3,9 C -2,2 C 93 % 1015,6 hPa 0,0 l/m 4,4 km/h (1 Bft) O 96 0 min 0,000 mm 0,0 UV-I 0 W/m -0,1 C 0,9 C 4,8 km/h (1 Bft) 97,87 %
10.02.2019 03:12 1,4 C 3,9 C -1,7 C 93 % 1015,6 hPa 0,0 l/m 3,7 km/h (1 Bft) O 96 0 min 0,000 mm 0,0 UV-I 0 W/m 0,4 C 1,4 C 4,8 km/h (1 Bft) 95,74 %
10.02.2019 03:14 1,6 C 3,9 C -1,7 C 92 % 1015,6 hPa 0,0 l/m 4,3 km/h (1 Bft) O 96 0 min 0,000 mm 0,0 UV-I 0 W/m 0,4 C 1,6 C 6,4 km/h (2 Bft) 97,37 %
10.02.2019 03:16 1,3 C 3,9 C -1,7 C 90 % 1015,6 hPa 0,0 l/m 5,4 km/h (1 Bft) O-NO 65 0 min 0,000 mm 0,0 UV-I 0 W/m -0,2 C 1,3 C 6,4 km/h (2 Bft) 98,11 %
10.02.2019 03:18 1,3 C 3,9 C -1,7 C 91 % 1015,5 hPa 0,0 l/m 5,5 km/h (1 Bft) O 87 0 min 0,000 mm 0,0 UV-I 0 W/m -0,0 C 1,3 C 8,0 km/h (2 Bft) 98,00 %
10.02.2019 03:20 1,6 C 3,9 C -1,1 C 91 % 1015,5 hPa 0,0 l/m 6,5 km/h (2 Bft) O-NO 77 0 min 0,000 mm 0,0 UV-I 0 W/m 0,3 C 1,5 C 9,7 km/h (2 Bft) 97,87 %
10.02.2019 03:22 1,7 C 3,9 C -0,6 C 91 % 1015,4 hPa 0,0 l/m 7,0 km/h (2 Bft) O 81 0 min 0,000 mm 0,0 UV-I 0 W/m 0,4 C 1,1 C 9,7 km/h (2 Bft) 91,49 %
10.02.2019 03:24 1,9 C 3,9 C -0,6 C 90 % 1015,5 hPa 0,0 l/m 7,7 km/h (2 Bft) O-NO 69 0 min 0,000 mm 0,0 UV-I 0 W/m 0,4 C 0,6 C 11,3 km/h (2 Bft) 100,00 %
10.02.2019 03:26 1,8 C 3,9 C -0,6 C 90 % 1015,4 hPa 0,0 l/m 5,1 km/h (1 Bft) O-NO 70 0 min 0,000 mm 0,0 UV-I 0 W/m 0,3 C 1,8 C 6,4 km/h (2 Bft) 97,87 %
10.02.2019 03:28 1,5 C 3,9 C -0,6 C 89 % 1015,4 hPa 0,0 l/m 1,9 km/h (1 Bft) O-NO 70 0 min 0,000 mm 0,0 UV-I 0 W/m -0,1 C 1,5 C 3,2 km/h (1 Bft) 95,74 %
10.02.2019 03:30 1,2 C 3,9 C -1,1 C 89 % 1015,4 hPa 0,0 l/m 4,8 km/h (1 Bft) O-NO 71 0 min 0,000 mm 0,0 UV-I 0 W/m -0,4 C 1,2 C 6,4 km/h (2 Bft) 97,87 %
10.02.2019 03:32 1,3 C 3,9 C -1,1 C 91 % 1015,3 hPa 0,0 l/m 5,2 km/h (1 Bft) O-NO 76 0 min 0,000 mm 0,0 UV-I 0 W/m -0,0 C 1,3 C 8,0 km/h (2 Bft) 93,62 %
10.02.2019 03:34 1,4 C 3,9 C -1,1 C 91 % 1015,4 hPa 0,0 l/m 3,7 km/h (1 Bft) S 175 0 min 0,000 mm 0,0 UV-I 0 W/m 0,1 C 1,4 C 6,4 km/h (2 Bft) 95,92 %
10.02.2019 03:36 1,0 C 3,9 C -1,1 C 89 % 1015,4 hPa 0,0 l/m 2,9 km/h (1 Bft) O-SO 122 0 min 0,000 mm 0,0 UV-I 0 W/m -0,6 C 1,0 C 6,4 km/h (2 Bft) 91,49 %
10.02.2019 03:38 0,6 C 3,9 C -1,1 C 89 % 1015,4 hPa 0,0 l/m 2,4 km/h (1 Bft) SO 128 0 min 0,000 mm 0,0 UV-I 0 W/m -1,0 C 0,6 C 4,8 km/h (1 Bft) 93,75 %
10.02.2019 03:40 0,3 C 3,9 C -1,7 C 90 % 1015,3 hPa 0,0 l/m 3,5 km/h (1 Bft) S 182 0 min 0,000 mm 0,0 UV-I 0 W/m -1,1 C 0,3 C 4,8 km/h (1 Bft) 95,92 %
10.02.2019 03:42 0,2 C 3,9 C -1,7 C 91 % 1015,3 hPa 0,0 l/m 3,7 km/h (1 Bft) S 182 0 min 0,000 mm 0,0 UV-I 0 W/m -1,1 C 0,2 C 4,8 km/h (1 Bft) 98,00 %
10.02.2019 03:44 0,1 C 3,9 C -1,7 C 91 % 1015,3 hPa 0,0 l/m 4,0 km/h (1 Bft) S 183 0 min 0,000 mm 0,0 UV-I 0 W/m -1,2 C 0,1 C 4,8 km/h (1 Bft) 97,37 %
10.02.2019 03:46 0,0 C 3,9 C -1,7 C 92 % 1015,2 hPa 0,0 l/m 4,0 km/h (1 Bft) S 183 0 min 0,000 mm 0,0 UV-I 0 W/m -1,1 C 0,0 C 4,8 km/h (1 Bft) 95,74 %
10.02.2019 03:48 -0,2 C 3,9 C -2,2 C 92 % 1015,1 hPa 0,0 l/m 4,2 km/h (1 Bft) S 183 0 min 0,000 mm 0,0 UV-I 0 W/m -1,3 C -0,2 C 4,8 km/h (1 Bft) 97,87 %
10.02.2019 03:50 -0,2 C 3,9 C -2,2 C 92 % 1015,1 hPa 0,0 l/m 4,2 km/h (1 Bft) S 183 0 min 0,000 mm 0,0 UV-I 0 W/m -1,3 C -0,2 C 4,8 km/h (1 Bft) 95,74 %
10.02.2019 03:52 -0,1 C 3,9 C -2,2 C 93 % 1015,0 hPa 0,0 l/m 3,4 km/h (1 Bft) S 183 0 min 0,000 mm 0,0 UV-I 0 W/m -1,1 C -0,1 C 4,8 km/h (1 Bft) 100,00 %
10.02.2019 03:54 -0,2 C 3,9 C -2,2 C 92 % 1015,0 hPa 0,0 l/m 4,0 km/h (1 Bft) S 183 0 min 0,000 mm 0,0 UV-I 0 W/m -1,3 C -0,2 C 4,8 km/h (1 Bft) 100,00 %
10.02.2019 03:56 -0,3 C 3,9 C -2,2 C 92 % 1015,0 hPa 0,0 l/m 3,6 km/h (1 Bft) S 183 0 min 0,000 mm 0,0 UV-I 0 W/m -1,4 C -0,3 C 4,8 km/h (1 Bft) 97,87 %
10.02.2019 03:58 -0,2 C 3,9 C -2,2 C 93 % 1015,0 hPa 0,0 l/m 3,3 km/h (1 Bft) S 186 0 min 0,000 mm 0,0 UV-I 0 W/m -1,2 C -0,2 C 4,8 km/h (1 Bft) 100,00 %
10.02.2019 04:00 -0,1 C 3,9 C -2,2 C 93 % 1015,0 hPa 0,0 l/m 3,9 km/h (1 Bft) S 186 0 min 0,000 mm 0,0 UV-I 0 W/m -1,1 C -0,1 C 4,8 km/h (1 Bft) 100,00 %
10.02.2019 04:02 -0,1 C 3,9 C -2,2 C 93 % 1014,9 hPa 0,0 l/m 3,7 km/h (1 Bft) S 186 0 min 0,000 mm 0,0 UV-I 0 W/m -1,1 C -0,1 C 4,8 km/h (1 Bft) 100,00 %
10.02.2019 04:04 -0,1 C 3,9 C -2,8 C 93 % 1014,9 hPa 0,0 l/m 2,6 km/h (1 Bft) S 186 0 min 0,000 mm 0,0 UV-I 0 W/m -1,1 C -0,1 C 3,2 km/h (1 Bft) 100,00 %
10.02.2019 04:06 -0,2 C 3,9 C -2,8 C 93 % 1014,9 hPa 0,0 l/m 2,1 km/h (1 Bft) S 186 0 min 0,000 mm 0,0 UV-I 0 W/m -1,2 C -0,2 C 3,2 km/h (1 Bft) 97,87 %
10.02.2019 04:08 -0,2 C 3,9 C -2,8 C 93 % 1014,9 hPa 0,0 l/m 2,7 km/h (1 Bft) S 186 0 min 0,000 mm 0,0 UV-I 0 W/m -1,2 C -0,2 C 3,2 km/h (1 Bft) 95,74 %
10.02.2019 04:10 -0,2 C 3,9 C -3,3 C 93 % 1014,8 hPa 0,0 l/m 2,0 km/h (1 Bft) S 186 0 min 0,000 mm 0,0 UV-I 0 W/m -1,2 C -0,2 C 3,2 km/h (1 Bft) 100,00 %
10.02.2019 04:12 -0,2 C 3,9 C -3,3 C 93 % 1014,9 hPa 0,0 l/m 0,7 km/h (0 Bft) S 186 0 min 0,000 mm 0,0 UV-I 0 W/m -1,2 C -0,2 C 1,6 km/h (1 Bft) 100,00 %
10.02.2019 04:14 -0,3 C 3,9 C -3,3 C 93 % 1014,8 hPa 0,0 l/m 1,1 km/h (1 Bft) S 186 0 min 0,000 mm 0,0 UV-I 0 W/m -1,3 C -0,3 C 1,6 km/h (1 Bft) 95,74 %
10.02.2019 04:16 -0,3 C 3,9 C -3,3 C 93 % 1014,8 hPa 0,0 l/m 1,3 km/h (1 Bft) S 186 0 min 0,000 mm 0,0 UV-I 0 W/m -1,3 C -0,3 C 1,6 km/h (1 Bft) 100,00 %
10.02.2019 04:18 -0,4 C 3,9 C -3,3 C 93 % 1014,8 hPa 0,0 l/m 1,3 km/h (1 Bft) S 186 0 min 0,000 mm 0,0 UV-I 0 W/m -1,4 C -0,4 C 3,2 km/h (1 Bft) 97,96 %
10.02.2019 04:20 -0,4 C 3,9 C -3,3 C 93 % 1014,9 hPa 0,0 l/m 2,4 km/h (1 Bft) S 186 0 min 0,000 mm 0,0 UV-I 0 W/m -1,4 C -0,4 C 3,2 km/h (1 Bft) 100,00 %
10.02.2019 04:22 -0,4 C 3,9 C -3,9 C 93 % 1014,9 hPa 0,0 l/m 1,7 km/h (1 Bft) S 186 0 min 0,000 mm 0,0 UV-I 0 W/m -1,4 C -0,4 C 3,2 km/h (1 Bft) 100,00 %
10.02.2019 04:24 -0,4 C 3,9 C -3,9 C 93 % 1014,8 hPa 0,0 l/m 0,2 km/h (0 Bft) S 186 0 min 0,000 mm 0,0 UV-I 0 W/m -1,4 C -0,4 C 1,6 km/h (1 Bft) 100,00 %
10.02.2019 04:26 -0,4 C 3,9 C -3,9 C 94 % 1014,7 hPa 0,0 l/m 0,3 km/h (0 Bft) S 186 0 min 0,000 mm 0,0 UV-I 0 W/m -1,2 C -0,4 C 1,6 km/h (1 Bft) 97,87 %
10.02.2019 04:28 -0,3 C 3,9 C -3,3 C 94 % 1014,8 hPa 0,0 l/m 1,4 km/h (1 Bft) S 186 0 min 0,000 mm 0,0 UV-I 0 W/m -1,1 C -0,3 C 1,6 km/h (1 Bft) 100,00 %
10.02.2019 04:30 -0,3 C 3,9 C -3,3 C 94 % 1014,7 hPa 0,0 l/m 0,9 km/h (0 Bft) S 186 0 min 0,000 mm 0,0 UV-I 0 W/m -1,1 C -0,3 C 1,6 km/h (1 Bft) 100,00 %
10.02.2019 04:32 -0,4 C 3,9 C -3,3 C 93 % 1014,7 hPa 0,0 l/m 0,1 km/h (0 Bft) S 186 0 min 0,000 mm 0,0 UV-I 0 W/m -1,4 C -0,4 C 1,6 km/h (1 Bft) 97,87 %
10.02.2019 04:34 -0,5 C 3,9 C -3,9 C 93 % 1014,7 hPa 0,0 l/m 0,0 km/h (0 Bft) S 186 0 min 0,000 mm 0,0 UV-I 0 W/m -1,5 C -0,5 C 0,0 km/h (0 Bft) 95,74 %
10.02.2019 04:36 -0,4 C 3,9 C -3,3 C 94 % 1014,6 hPa 0,0 l/m 0,0 km/h (0 Bft) S 186 0 min 0,000 mm 0,0 UV-I 0 W/m -1,2 C -0,4 C 0,0 km/h (0 Bft) 97,87 %
10.02.2019 04:38 -0,4 C 3,9 C -3,3 C 94 % 1014,6 hPa 0,0 l/m 0,9 km/h (0 Bft) S 186 0 min 0,000 mm 0,0 UV-I 0 W/m -1,2 C -0,4 C 3,2 km/h (1 Bft) 97,87 %
10.02.2019 04:40 -0,4 C 3,9 C -3,9 C 94 % 1014,6 hPa 0,0 l/m 1,7 km/h (1 Bft) S 186 0 min 0,000 mm 0,0 UV-I 0 W/m -1,2 C -0,4 C 3,2 km/h (1 Bft) 97,87 %
10.02.2019 04:42 -0,6 C 3,9 C -3,9 C 94 % 1014,5 hPa 0,0 l/m 1,4 km/h (1 Bft) S 186 0 min 0,000 mm 0,0 UV-I 0 W/m -1,4 C -0,6 C 1,6 km/h (1 Bft) 95,65 %
10.02.2019 04:44 -0,6 C 3,9 C -3,9 C 94 % 1014,5 hPa 0,0 l/m 1,9 km/h (1 Bft) S 186 0 min 0,000 mm 0,0 UV-I 0 W/m -1,4 C -0,6 C 3,2 km/h (1 Bft) 96,77 %
10.02.2019 04:46 -0,6 C 3,9 C -4,4 C 94 % 1014,4 hPa 0,0 l/m 1,3 km/h (1 Bft) S 186 0 min 0,000 mm 0,0 UV-I 0 W/m -1,4 C -0,6 C 1,6 km/h (1 Bft) 97,87 %
10.02.2019 04:48 -0,7 C 3,9 C -4,4 C 94 % 1014,4 hPa 0,0 l/m 1,3 km/h (1 Bft) S 186 0 min 0,000 mm 0,0 UV-I 0 W/m -1,5 C -0,7 C 3,2 km/h (1 Bft) 91,49 %
10.02.2019 04:50 -0,7 C 3,9 C -3,9 C 94 % 1014,3 hPa 0,0 l/m 0,0 km/h (0 Bft) S 186 0 min 0,000 mm 0,0 UV-I 0 W/m -1,5 C -0,7 C 0,0 km/h (0 Bft) 97,87 %
10.02.2019 04:52 -0,7 C 3,9 C -3,9 C 94 % 1014,4 hPa 0,0 l/m 0,0 km/h (0 Bft) S 186 0 min 0,000 mm 0,0 UV-I 0 W/m -1,5 C -0,7 C 0,0 km/h (0 Bft) 93,62 %
10.02.2019 04:54 -0,6 C 3,9 C -3,9 C 94 % 1014,2 hPa 0,0 l/m 0,0 km/h (0 Bft) S 186 0 min 0,000 mm 0,0 UV-I 0 W/m -1,4 C -0,6 C 0,0 km/h (0 Bft) 95,83 %
10.02.2019 04:56 -0,6 C 3,9 C -3,9 C 94 % 1014,2 hPa 0,0 l/m 0,0 km/h (0 Bft) S 186 0 min 0,000 mm 0,0 UV-I 0 W/m -1,4 C -0,6 C 0,0 km/h (0 Bft) 95,74 %
10.02.2019 04:58 -0,6 C 3,9 C -3,9 C 94 % 1014,2 hPa 0,0 l/m 0,0 km/h (0 Bft) S 186 0 min 0,000 mm 0,0 UV-I 0 W/m -1,4 C -0,6 C 0,0 km/h (0 Bft) 97,87 %
10.02.2019 05:00 -0,7 C 3,9 C -3,3 C 94 % 1014,2 hPa 0,0 l/m 0,0 km/h (0 Bft) S 186 0 min 0,000 mm 0,0 UV-I 0 W/m -1,5 C -0,7 C 1,6 km/h (1 Bft) 95,74 %
10.02.2019 05:02 -0,8 C 3,9 C -3,9 C 94 % 1014,1 hPa 0,0 l/m 0,0 km/h (0 Bft) S 186 0 min 0,000 mm 0,0 UV-I 0 W/m -1,6 C -0,8 C 0,0 km/h (0 Bft) 98,00 %
10.02.2019 05:04 -0,8 C 3,9 C -3,9 C 94 % 1014,1 hPa 0,0 l/m 0,0 km/h (0 Bft) S 186 0 min 0,000 mm 0,0 UV-I 0 W/m -1,6 C -0,8 C 0,0 km/h (0 Bft) 95,74 %
10.02.2019 05:06 -0,7 C 3,9 C -3,9 C 94 % 1014,1 hPa 0,0 l/m 0,0 km/h (0 Bft) S 186 0 min 0,000 mm 0,0 UV-I 0 W/m -1,5 C -0,7 C 0,0 km/h (0 Bft) 97,87 %
10.02.2019 05:08 -0,8 C 3,9 C -3,9 C 94 % 1014,1 hPa 0,0 l/m 0,0 km/h (0 Bft) S 186 0 min 0,000 mm 0,0 UV-I 0 W/m -1,6 C -0,8 C 0,0 km/h (0 Bft) 93,62 %
10.02.2019 05:10 -0,8 C 3,9 C -4,4 C 94 % 1014,1 hPa 0,0 l/m 0,0 km/h (0 Bft) S 186 0 min 0,000 mm 0,0 UV-I 0 W/m -1,6 C -0,8 C 0,0 km/h (0 Bft) 95,74 %
10.02.2019 05:12 -0,7 C 3,9 C -4,4 C 94 % 1014,0 hPa 0,0 l/m 0,0 km/h (0 Bft) S 186 0 min 0,000 mm 0,0 UV-I 0 W/m -1,5 C -0,7 C 0,0 km/h (0 Bft) 97,87 %
10.02.2019 05:14 -0,8 C 3,9 C -4,4 C 94 % 1014,0 hPa 0,0 l/m 0,0 km/h (0 Bft) S 186 0 min 0,000 mm 0,0 UV-I 0 W/m -1,6 C -0,8 C 0,0 km/h (0 Bft) 97,87 %
10.02.2019 05:16 -0,8 C 3,9 C -4,4 C 94 % 1014,0 hPa 0,0 l/m 0,0 km/h (0 Bft) S 186 0 min 0,000 mm 0,0 UV-I 0 W/m -1,6 C -0,8 C 0,0 km/h (0 Bft) 97,87 %
10.02.2019 05:18 -0,8 C 3,9 C -4,4 C 94 % 1014,0 hPa 0,0 l/m 0,0 km/h (0 Bft) S 186 0 min 0,000 mm 0,0 UV-I 0 W/m -1,6 C -0,8 C 0,0 km/h (0 Bft) 93,62 %
10.02.2019 05:20 -0,9 C 3,9 C -4,4 C 94 % 1014,0 hPa 0,0 l/m 0,0 km/h (0 Bft) S 186 0 min 0,000 mm 0,0 UV-I 0 W/m -1,7 C -0,9 C 0,0 km/h (0 Bft) 97,87 %
10.02.2019 05:22 -0,9 C 3,9 C -4,4 C 94 % 1013,9 hPa 0,0 l/m 0,0 km/h (0 Bft) S 186 0 min 0,000 mm 0,0 UV-I 0 W/m -1,7 C -0,9 C 0,0 km/h (0 Bft) 97,87 %
10.02.2019 05:24 -0,9 C 3,9 C -3,9 C 95 % 1013,9 hPa 0,0 l/m 0,0 km/h (0 Bft) S 186 0 min 0,000 mm 0,0 UV-I 0 W/m -1,6 C -0,9 C 0,0 km/h (0 Bft) 100,00 %
10.02.2019 05:26 -0,9 C 3,9 C -3,9 C 95 % 1013,9 hPa 0,0 l/m 0,0 km/h (0 Bft) S 186 0 min 0,000 mm 0,0 UV-I 0 W/m -1,6 C -0,9 C 0,0 km/h (0 Bft) 97,14 %
10.02.2019 05:28 -0,8 C 3,9 C -3,3 C 95 % 1013,9 hPa 0,0 l/m 0,0 km/h (0 Bft) S 186 0 min 0,000 mm 0,0 UV-I 0 W/m -1,5 C -0,8 C 0,0 km/h (0 Bft) 96,00 %
10.02.2019 05:30 -0,8 C 3,9 C -3,3 C 95 % 1013,8 hPa 0,0 l/m 0,1 km/h (0 Bft) S 186 0 min 0,000 mm 0,0 UV-I 0 W/m -1,5 C -0,8 C 1,6 km/h (1 Bft) 93,62 %
10.02.2019 05:32 -0,8 C 3,9 C -3,3 C 95 % 1013,8 hPa 0,0 l/m 3,1 km/h (1 Bft) S 185 0 min 0,000 mm 0,0 UV-I 0 W/m -1,5 C -0,8 C 4,8 km/h (1 Bft) 93,62 %
10.02.2019 05:34 -0,8 C 3,9 C -3,3 C 95 % 1013,7 hPa 0,0 l/m 3,4 km/h (1 Bft) SO 144 0 min 0,000 mm 0,0 UV-I 0 W/m -1,5 C -0,8 C 4,8 km/h (1 Bft) 95,83 %
10.02.2019 05:36 -0,7 C 3,9 C -3,3 C 95 % 1013,6 hPa 0,0 l/m 4,0 km/h (1 Bft) O 81 0 min 0,000 mm 0,0 UV-I 0 W/m -1,4 C -0,7 C 6,4 km/h (2 Bft) 95,74 %
10.02.2019 05:38 -0,4 C 3,9 C -3,3 C 95 % 1013,6 hPa 0,0 l/m 3,5 km/h (1 Bft) O 81 0 min 0,000 mm 0,0 UV-I 0 W/m -1,1 C -0,4 C 4,8 km/h (1 Bft) 95,74 %
10.02.2019 05:40 -0,2 C 3,9 C -3,3 C 95 % 1013,5 hPa 0,0 l/m 3,9 km/h (1 Bft) O 81 0 min 0,000 mm 0,0 UV-I 0 W/m -0,9 C -0,2 C 4,8 km/h (1 Bft) 93,62 %
10.02.2019 05:42 -0,1 C 3,9 C -3,3 C 95 % 1013,5 hPa 0,0 l/m 4,2 km/h (1 Bft) O 81 0 min 0,000 mm 0,0 UV-I 0 W/m -0,8 C -0,1 C 6,4 km/h (2 Bft) 93,62 %
10.02.2019 05:44 0,1 C 3,9 C -2,8 C 95 % 1013,4 hPa 0,0 l/m 4,7 km/h (1 Bft) O 88 0 min 0,000 mm 0,0 UV-I 0 W/m -0,6 C 0,1 C 6,4 km/h (2 Bft) 93,62 %
10.02.2019 05:46 0,1 C 3,9 C -2,2 C 95 % 1013,4 hPa 0,0 l/m 3,4 km/h (1 Bft) O 98 0 min 0,000 mm 0,0 UV-I 0 W/m -0,6 C 0,1 C 4,8 km/h (1 Bft) 95,74 %
10.02.2019 05:48 -0,2 C 3,9 C -2,8 C 95 % 1013,3 hPa 0,0 l/m 2,7 km/h (1 Bft) O 99 0 min 0,000 mm 0,0 UV-I 0 W/m -0,9 C -0,2 C 4,8 km/h (1 Bft) 91,49 %
10.02.2019 05:50 -0,3 C 3,9 C -2,8 C 94 % 1013,3 hPa 0,0 l/m 0,9 km/h (0 Bft) O 99 0 min 0,000 mm 0,0 UV-I 0 W/m -1,1 C -0,3 C 3,2 km/h (1 Bft) 91,49 %
10.02.2019 05:52 -0,3 C 3,9 C -3,3 C 95 % 1013,3 hPa 0,0 l/m 0,9 km/h (0 Bft) O 99 0 min 0,000 mm 0,0 UV-I 0 W/m -1,0 C -0,3 C 1,6 km/h (1 Bft) 93,62 %
10.02.2019 05:54 -0,4 C 3,9 C -3,3 C 95 % 1013,3 hPa 0,0 l/m 1,0 km/h (0 Bft) O 99 0 min 0,000 mm 0,0 UV-I 0 W/m -1,1 C -0,4 C 1,6 km/h (1 Bft) 93,62 %
10.02.2019 05:56 -0,7 C 3,9 C -3,3 C 94 % 1013,3 hPa 0,0 l/m 1,7 km/h (1 Bft) O 99 0 min 0,000 mm 0,0 UV-I 0 W/m -1,5 C -0,7 C 3,2 km/h (1 Bft) 90,00 %
10.02.2019 05:58 -0,6 C 3,9 C -3,3 C 94 % 1013,3 hPa 0,0 l/m 2,8 km/h (1 Bft) O 99 0 min 0,000 mm 0,0 UV-I 0 W/m -1,4 C -0,6 C 4,8 km/h (1 Bft) 93,62 %
10.02.2019 06:00 -0,4 C 3,9 C -3,3 C 95 % 1013,3 hPa 0,0 l/m 1,5 km/h (1 Bft) O 99 0 min 0,000 mm 0,0 UV-I 0 W/m -1,1 C -0,4 C 3,2 km/h (1 Bft) 91,49 %
10.02.2019 06:02 -0,6 C 3,9 C -3,3 C 95 % 1013,2 hPa 0,0 l/m 0,5 km/h (0 Bft) O 99 0 min 0,000 mm 0,0 UV-I 0 W/m -1,3 C -0,6 C 1,6 km/h (1 Bft) 89,36 %
10.02.2019 06:04 -0,8 C 3,9 C -3,3 C 94 % 1013,2 hPa 0,0 l/m 1,3 km/h (1 Bft) O 99 0 min 0,000 mm 0,0 UV-I 0 W/m -1,6 C -0,8 C 3,2 km/h (1 Bft) 93,62 %
10.02.2019 06:06 -1,0 C 3,9 C -3,9 C 94 % 1013,1 hPa 0,0 l/m 1,7 km/h (1 Bft) O 99 0 min 0,000 mm 0,0 UV-I 0 W/m -1,8 C -1,0 C 3,2 km/h (1 Bft) 93,62 %
10.02.2019 06:08 -1,1 C 3,9 C -3,9 C 94 % 1013,1 hPa 0,0 l/m 1,6 km/h (1 Bft) O 99 0 min 0,000 mm 0,0 UV-I 0 W/m -1,9 C -1,1 C 3,2 km/h (1 Bft) 93,62 %
10.02.2019 06:10 -1,1 C 3,9 C -3,9 C 94 % 1013,1 hPa 0,0 l/m 1,1 km/h (1 Bft) O 99 0 min 0,000 mm 0,0 UV-I 0 W/m -1,9 C -1,1 C 1,6 km/h (1 Bft) 91,49 %
10.02.2019 06:12 -1,1 C 3,9 C -3,9 C 95 % 1013,1 hPa 0,0 l/m 2,0 km/h (1 Bft) O 99 0 min 0,000 mm 0,0 UV-I 0 W/m -1,8 C -1,1 C 3,2 km/h (1 Bft) 91,49 %
10.02.2019 06:14 -1,1 C 3,9 C -3,9 C 95 % 1013,1 hPa 0,0 l/m 2,1 km/h (1 Bft) O 99 0 min 0,000 mm 0,0 UV-I 0 W/m -1,8 C -1,1 C 3,2 km/h (1 Bft) 97,87 %
10.02.2019 06:16 -0,9 C 3,9 C -4,4 C 95 % 1013,0 hPa 0,0 l/m 2,1 km/h (1 Bft) O 99 0 min 0,000 mm 0,0 UV-I 0 W/m -1,6 C -0,9 C 3,2 km/h (1 Bft) 94,87 %
10.02.2019 06:18 -0,9 C 3,9 C -4,4 C 95 % 1013,0 hPa 0,0 l/m 2,9 km/h (1 Bft) O 99 0 min 0,000 mm 0,0 UV-I 0 W/m -1,6 C -0,9 C 4,8 km/h (1 Bft) 97,87 %
10.02.2019 06:20 -1,1 C 3,9 C -4,4 C 95 % 1013,0 hPa 0,0 l/m 2,4 km/h (1 Bft) O 99 0 min 0,000 mm 0,0 UV-I 0 W/m -1,8 C -1,1 C 3,2 km/h (1 Bft) 97,87 %
10.02.2019 06:22 -1,2 C 3,9 C -4,4 C 95 % 1013,0 hPa 0,0 l/m 3,2 km/h (1 Bft) O-SO 103 0 min 0,000 mm 0,0 UV-I 0 W/m -1,9 C -1,2 C 4,8 km/h (1 Bft) 100,00 %
10.02.2019 06:24 -1,2 C 3,9 C -3,9 C 95 % 1012,9 hPa 0,0 l/m 2,8 km/h (1 Bft) O-SO 103 0 min 0,000 mm 0,0 UV-I 0 W/m -1,9 C -1,2 C 4,8 km/h (1 Bft) 100,00 %
10.02.2019 06:26 -1,2 C 3,9 C -3,9 C 95 % 1012,9 hPa 0,0 l/m 3,4 km/h (1 Bft) O-SO 103 0 min 0,000 mm 0,0 UV-I 0 W/m -1,9 C -1,2 C 4,8 km/h (1 Bft) 100,00 %
10.02.2019 06:28 -1,2 C 3,9 C -3,9 C 95 % 1012,9 hPa 0,0 l/m 3,4 km/h (1 Bft) O-SO 103 0 min 0,000 mm 0,0 UV-I 0 W/m -1,9 C -1,2 C 4,8 km/h (1 Bft) 97,87 %
10.02.2019 06:30 -1,2 C 3,9 C -3,9 C 95 % 1012,9 hPa 0,0 l/m 4,4 km/h (1 Bft) O-SO 102 0 min 0,000 mm 0,0 UV-I 0 W/m -1,9 C -1,2 C 4,8 km/h (1 Bft) 100,00 %
10.02.2019 06:32 -1,3 C 3,9 C -3,9 C 95 % 1012,8 hPa 0,0 l/m 4,6 km/h (1 Bft) O 99 0 min 0,000 mm 0,0 UV-I 0 W/m -2,0 C -1,3 C 6,4 km/h (2 Bft) 100,00 %
10.02.2019 06:34 -1,3 C 3,9 C -3,9 C 95 % 1012,8 hPa 0,0 l/m 4,2 km/h (1 Bft) O 82 0 min 0,000 mm 0,0 UV-I 0 W/m -2,0 C -1,3 C 4,8 km/h (1 Bft) 95,74 %
10.02.2019 06:36 -1,2 C 3,9 C -3,9 C 95 % 1012,8 hPa 0,0 l/m 4,0 km/h (1 Bft) O 82 0 min 0,000 mm 0,0 UV-I 0 W/m -1,9 C -1,2 C 4,8 km/h (1 Bft) 97,87 %
10.02.2019 06:38 -0,8 C 3,9 C -3,9 C 96 % 1012,8 hPa 0,0 l/m 3,9 km/h (1 Bft) O 82 0 min 0,000 mm 0,0 UV-I 0 W/m -1,4 C -0,8 C 4,8 km/h (1 Bft) 100,00 %
10.02.2019 06:40 -0,6 C 3,9 C -3,9 C 96 % 1012,7 hPa 0,0 l/m 3,1 km/h (1 Bft) O 82 0 min 0,000 mm 0,0 UV-I 0 W/m -1,2 C -0,6 C 4,8 km/h (1 Bft) 100,00 %
10.02.2019 06:42 -0,4 C 3,9 C -3,9 C 96 % 1012,7 hPa 0,0 l/m 2,4 km/h (1 Bft) O 82 0 min 0,000 mm 0,0 UV-I 0 W/m -1,0 C -0,4 C 3,2 km/h (1 Bft) 100,00 %
10.02.2019 06:44 -0,6 C 3,9 C -3,3 C 96 % 1012,7 hPa 0,0 l/m 3,0 km/h (1 Bft) O 82 0 min 0,000 mm 0,0 UV-I 0 W/m -1,2 C -0,6 C 4,8 km/h (1 Bft) 100,00 %
10.02.2019 06:46 -0,8 C 3,9 C -3,3 C 95 % 1012,6 hPa 0,0 l/m 2,6 km/h (1 Bft) O-SO 102 0 min 0,000 mm 0,0 UV-I 0 W/m -1,5 C -0,8 C 4,8 km/h (1 Bft) 100,00 %
10.02.2019 06:48 -0,9 C 3,9 C -3,3 C 95 % 1012,6 hPa 0,0 l/m 3,1 km/h (1 Bft) O-SO 103 0 min 0,000 mm 0,0 UV-I 0 W/m -1,6 C -0,9 C 4,8 km/h (1 Bft) 100,00 %
10.02.2019 06:50 -1,0 C 3,9 C -3,9 C 95 % 1012,6 hPa 0,0 l/m 3,4 km/h (1 Bft) O-SO 103 0 min 0,000 mm 0,0 UV-I 0 W/m -1,7 C -1,0 C 4,8 km/h (1 Bft) 100,00 %
10.02.2019 06:52 -0,9 C 3,9 C -3,9 C 95 % 1012,6 hPa 0,0 l/m 3,1 km/h (1 Bft) O-SO 103 0 min 0,000 mm 0,0 UV-I 0 W/m -1,6 C -0,9 C 4,8 km/h (1 Bft) 97,87 %
10.02.2019 06:54 -0,8 C 3,9 C -4,4 C 95 % 1012,5 hPa 0,0 l/m 1,8 km/h (1 Bft) O-SO 103 0 min 0,000 mm 0,0 UV-I 0 W/m -1,5 C -0,8 C 3,2 km/h (1 Bft) 97,92 %
10.02.2019 06:56 -0,8 C 3,9 C -4,4 C 95 % 1012,5 hPa 0,0 l/m 0,3 km/h (0 Bft) O-SO 103 0 min 0,000 mm 0,0 UV-I 0 W/m -1,5 C -0,8 C 1,6 km/h (1 Bft) 97,87 %
10.02.2019 06:58 -1,1 C 3,9 C -4,4 C 95 % 1012,4 hPa 0,0 l/m 1,5 km/h (1 Bft) O-SO 103 0 min 0,000 mm 0,0 UV-I 0 W/m -1,8 C -1,1 C 1,6 km/h (1 Bft) 100,00 %
10.02.2019 07:00 -1,2 C 3,9 C -4,4 C 95 % 1012,4 hPa 0,0 l/m 1,0 km/h (0 Bft) O-SO 103 0 min 0,000 mm 0,0 UV-I 0 W/m -1,9 C -1,2 C 1,6 km/h (1 Bft) 100,00 %
10.02.2019 07:02 -1,4 C 3,9 C -4,4 C 95 % 1012,4 hPa 0,0 l/m 0,4 km/h (0 Bft) O-SO 103 0 min 0,000 mm 0,0 UV-I 0 W/m -2,1 C -1,4 C 1,6 km/h (1 Bft) 97,87 %
10.02.2019 07:04 -1,4 C 3,9 C -4,4 C 95 % 1012,4 hPa 0,0 l/m 0,0 km/h (0 Bft) O-SO 103 0 min 0,000 mm 0,0 UV-I 0 W/m -2,1 C -1,4 C 0,0 km/h (0 Bft) 95,74 %
10.02.2019 07:06 -1,5 C 3,9 C -5,0 C 95 % 1012,3 hPa 0,0 l/m 0,0 km/h (0 Bft) O-SO 103 0 min 0,000 mm 0,0 UV-I 0 W/m -2,2 C -1,5 C 0,0 km/h (0 Bft) 95,74 %
10.02.2019 07:08 -1,5 C 3,9 C -4,4 C 95 % 1012,3 hPa 0,0 l/m 0,0 km/h (0 Bft) O-SO 103 0 min 0,000 mm 0,0 UV-I 0 W/m -2,2 C -1,5 C 0,0 km/h (0 Bft) 93,62 %
10.02.2019 07:10 -1,4 C 3,9 C -4,4 C 95 % 1012,3 hPa 0,0 l/m 0,0 km/h (0 Bft) O-SO 103 0 min 0,000 mm 0,0 UV-I 0 W/m -2,1 C -1,4 C 0,0 km/h (0 Bft) 97,87 %
10.02.2019 07:12 -1,4 C 3,9 C -4,4 C 95 % 1012,2 hPa 0,0 l/m 1,2 km/h (1 Bft) O-SO 103 0 min 0,000 mm 0,0 UV-I 0 W/m -2,1 C -1,4 C 1,6 km/h (1 Bft) 95,74 %
10.02.2019 07:14 -1,5 C 3,9 C -3,9 C 95 % 1012,2 hPa 0,0 l/m 2,5 km/h (1 Bft) O-SO 103 0 min 0,000 mm 0,0 UV-I 4 W/m -2,2 C -1,5 C 3,2 km/h (1 Bft) 97,87 %
10.02.2019 07:16 -1,6 C 3,9 C -3,9 C 95 % 1012,1 hPa 0,0 l/m 2,7 km/h (1 Bft) O-SO 107 0 min 0,000 mm 0,0 UV-I 5 W/m -2,3 C -1,6 C 3,2 km/h (1 Bft) 97,87 %
10.02.2019 07:18 -1,5 C 3,9 C -4,4 C 95 % 1012,1 hPa 0,0 l/m 3,1 km/h (1 Bft) O-SO 107 0 min 0,000 mm 0,0 UV-I 5 W/m -2,2 C -1,5 C 4,8 km/h (1 Bft) 95,74 %
10.02.2019 07:20 -1,6 C 3,9 C -4,4 C 95 % 1012,1 hPa 0,0 l/m 3,9 km/h (1 Bft) S-SO 159 0 min 0,000 mm 0,0 UV-I 5 W/m -2,3 C -1,6 C 6,4 km/h (2 Bft) 97,14 %
10.02.2019 07:22 -1,6 C 3,9 C -4,4 C 95 % 1012,0 hPa 0,0 l/m 5,1 km/h (1 Bft) S 177 0 min 0,000 mm 0,0 UV-I 5 W/m -2,3 C -1,6 C 6,4 km/h (2 Bft) 96,08 %
10.02.2019 07:24 -1,4 C 3,9 C -3,9 C 96 % 1012,0 hPa 0,0 l/m 4,2 km/h (1 Bft) S 178 0 min 0,000 mm 0,0 UV-I 7 W/m -2,0 C -1,4 C 4,8 km/h (1 Bft) 97,87 %
10.02.2019 07:26 -1,4 C 3,9 C -3,9 C 96 % 1012,0 hPa 0,0 l/m 3,9 km/h (1 Bft) S 180 0 min 0,000 mm 0,0 UV-I 8 W/m -2,0 C -1,4 C 4,8 km/h (1 Bft) 95,83 %
10.02.2019 07:28 -1,4 C 3,9 C -3,9 C 96 % 1011,9 hPa 0,0 l/m 2,5 km/h (1 Bft) S 180 0 min 0,000 mm 0,0 UV-I 10 W/m -2,0 C -1,4 C 3,2 km/h (1 Bft) 97,87 %
10.02.2019 07:30 -1,4 C 3,9 C -3,9 C 96 % 1011,9 hPa 0,0 l/m 2,7 km/h (1 Bft) S 180 2 min 0,000 mm 0,0 UV-I 11 W/m -2,0 C -1,4 C 4,8 km/h (1 Bft) 100,00 %
10.02.2019 07:32 -1,4 C 3,9 C -3,9 C 96 % 1011,8 hPa 0,0 l/m 0,6 km/h (0 Bft) S 180 2 min 0,000 mm 0,0 UV-I 12 W/m -2,0 C -1,4 C 1,6 km/h (1 Bft) 100,00 %
10.02.2019 07:34 -1,4 C 3,9 C -3,9 C 96 % 1011,9 hPa 0,0 l/m 1,5 km/h (1 Bft) S 180 0 min 0,000 mm 0,0 UV-I 14 W/m -2,0 C -1,4 C 3,2 km/h (1 Bft) 100,00 %
10.02.2019 07:36 -1,4 C 3,9 C -3,9 C 96 % 1011,9 hPa 0,0 l/m 0,9 km/h (0 Bft) S 180 0 min 0,000 mm 0,0 UV-I 16 W/m -2,0 C -1,4 C 1,6 km/h (1 Bft) 97,87 %
10.02.2019 07:38 -1,4 C 3,9 C -3,9 C 96 % 1011,8 hPa 0,0 l/m 1,3 km/h (1 Bft) S 180 0 min 0,000 mm 0,0 UV-I 18 W/m -2,0 C -1,4 C 3,2 km/h (1 Bft) 97,87 %
10.02.2019 07:40 -1,4 C 3,9 C -3,9 C 96 % 1011,8 hPa 0,0 l/m 1,9 km/h (1 Bft) S 180 0 min 0,000 mm 0,0 UV-I 19 W/m -2,0 C -1,4 C 3,2 km/h (1 Bft) 95,74 %
10.02.2019 07:42 -1,4 C 3,9 C -3,3 C 96 % 1011,6 hPa 0,0 l/m 2,9 km/h (1 Bft) S 180 0 min 0,000 mm 0,0 UV-I 22 W/m -2,0 C -1,4 C 3,2 km/h (1 Bft) 97,87 %
10.02.2019 07:44 -1,4 C 3,9 C -3,3 C 96 % 1011,5 hPa 0,0 l/m 2,3 km/h (1 Bft) S 180 0 min 0,000 mm 0,0 UV-I 24 W/m -2,0 C -1,4 C 3,2 km/h (1 Bft) 97,87 %
10.02.2019 07:46 -1,4 C 3,9 C -3,9 C 96 % 1011,5 hPa 0,0 l/m 2,7 km/h (1 Bft) O-SO 111 0 min 0,000 mm 0,0 UV-I 26 W/m -2,0 C -1,4 C 3,2 km/h (1 Bft) 95,74 %
10.02.2019 07:48 -1,3 C 3,9 C -3,9 C 96 % 1011,4 hPa 0,0 l/m 3,2 km/h (1 Bft) O-SO 111 0 min 0,000 mm 0,0 UV-I 28 W/m -1,9 C -1,3 C 4,8 km/h (1 Bft) 100,00 %
10.02.2019 07:50 -1,3 C 3,9 C -3,3 C 96 % 1011,4 hPa 0,0 l/m 2,7 km/h (1 Bft) O-SO 111 0 min 0,000 mm 0,0 UV-I 30 W/m -1,9 C -1,3 C 4,8 km/h (1 Bft) 97,87 %
10.02.2019 07:52 -1,2 C 3,9 C -2,8 C 96 % 1011,4 hPa 0,0 l/m 2,2 km/h (1 Bft) O-SO 111 0 min 0,000 mm 0,0 UV-I 32 W/m -1,8 C -1,2 C 3,2 km/h (1 Bft) 98,00 %
10.02.2019 07:54 -1,2 C 3,9 C -2,8 C 96 % 1011,4 hPa 0,0 l/m 3,3 km/h (1 Bft) NO 38 0 min 0,000 mm 0,0 UV-I 34 W/m -1,8 C -1,2 C 4,8 km/h (1 Bft) 95,74 %
10.02.2019 07:56 -1,2 C 3,9 C -2,8 C 96 % 1011,5 hPa 0,0 l/m 2,9 km/h (1 Bft) NO 38 0 min 0,000 mm 0,0 UV-I 35 W/m -1,8 C -1,2 C 3,2 km/h (1 Bft) 100,00 %
10.02.2019 07:58 -1,3 C 3,9 C -2,8 C 96 % 1011,5 hPa 0,0 l/m 2,4 km/h (1 Bft) NO 38 0 min 0,000 mm 0,0 UV-I 37 W/m -1,9 C -1,3 C 3,2 km/h (1 Bft) 97,87 %
10.02.2019 08:00 -1,4 C 3,9 C -2,8 C 96 % 1011,4 hPa 0,0 l/m 2,3 km/h (1 Bft) NO 38 0 min 0,000 mm 0,0 UV-I 39 W/m -2,0 C -1,4 C 3,2 km/h (1 Bft) 95,74 %
10.02.2019 08:02 -1,4 C 3,9 C -3,3 C 96 % 1011,4 hPa 0,0 l/m 2,0 km/h (1 Bft) NO 38 0 min 0,000 mm 0,0 UV-I 40 W/m -2,0 C -1,4 C 3,2 km/h (1 Bft) 95,74 %
10.02.2019 08:04 -1,4 C 3,9 C -3,3 C 96 % 1011,3 hPa 0,0 l/m 1,5 km/h (1 Bft) NO 38 0 min 0,000 mm 0,0 UV-I 42 W/m -2,0 C -1,4 C 3,2 km/h (1 Bft) 91,49 %
10.02.2019 08:06 -1,3 C 3,9 C -3,3 C 96 % 1011,3 hPa 0,0 l/m 0,4 km/h (0 Bft) NO 38 0 min 0,000 mm 0,0 UV-I 45 W/m -1,9 C -1,3 C 1,6 km/h (1 Bft) 93,62 %
10.02.2019 08:08 -1,3 C 3,9 C -3,3 C 96 % 1011,3 hPa 0,0 l/m 0,0 km/h (0 Bft) NO 38 0 min 0,000 mm 0,0 UV-I 47 W/m -1,9 C -1,3 C 0,0 km/h (0 Bft) 97,87 %
10.02.2019 08:10 -1,3 C 3,9 C -3,3 C 96 % 1011,3 hPa 0,0 l/m 0,1 km/h (0 Bft) NO 38 0 min 0,000 mm 0,0 UV-I 47 W/m -1,9 C -1,3 C 1,6 km/h (1 Bft) 97,87 %
10.02.2019 08:12 -1,3 C 3,9 C -3,3 C 96 % 1011,2 hPa 0,0 l/m 2,0 km/h (1 Bft) NO 38 0 min 0,000 mm 0,0 UV-I 48 W/m -1,9 C -1,3 C 3,2 km/h (1 Bft) 93,75 %
10.02.2019 08:14 -1,2 C 3,9 C -3,3 C 96 % 1011,1 hPa 0,0 l/m 3,1 km/h (1 Bft) NO 38 0 min 0,000 mm 0,0 UV-I 49 W/m -1,8 C -1,2 C 3,2 km/h (1 Bft) 94,74 %
10.02.2019 08:16 -1,1 C 3,9 C -3,3 C 96 % 1011,1 hPa 0,0 l/m 3,4 km/h (1 Bft) NO 38 0 min 0,000 mm 0,0 UV-I 51 W/m -1,7 C -1,1 C 4,8 km/h (1 Bft) 95,74 %
10.02.2019 08:18 -0,9 C 3,9 C -2,8 C 96 % 1011,1 hPa 0,0 l/m 4,4 km/h (1 Bft) NO 38 0 min 0,000 mm 0,0 UV-I 55 W/m -1,5 C -0,9 C 6,4 km/h (2 Bft) 96,00 %
10.02.2019 08:20 -0,8 C 3,9 C -2,2 C 96 % 1011,0 hPa 0,0 l/m 5,4 km/h (1 Bft) O-NO 59 0 min 0,000 mm 0,0 UV-I 62 W/m -1,4 C -0,8 C 6,4 km/h (2 Bft) 94,00 %
10.02.2019 08:22 -0,7 C 3,9 C -2,2 C 96 % 1010,9 hPa 0,0 l/m 4,9 km/h (1 Bft) O-NO 59 0 min 0,000 mm 0,0 UV-I 68 W/m -1,3 C -0,7 C 6,4 km/h (2 Bft) 92,11 %
10.02.2019 08:24 -0,7 C 3,9 C -1,7 C 96 % 1010,9 hPa 0,0 l/m 5,1 km/h (1 Bft) O-NO 59 0 min 0,000 mm 0,0 UV-I 80 W/m -1,3 C -0,7 C 6,4 km/h (2 Bft) 95,74 %
10.02.2019 08:26 -0,7 C 3,9 C -1,7 C 96 % 1010,9 hPa 0,0 l/m 5,4 km/h (1 Bft) O-NO 61 2 min 0,000 mm 0,0 UV-I 94 W/m -1,3 C -0,7 C 6,4 km/h (2 Bft) 93,62 %
10.02.2019 08:28 -0,7 C 3,9 C -1,1 C 96 % 1010,9 hPa 0,0 l/m 5,6 km/h (1 Bft) O-NO 57 2 min 0,000 mm 0,0 UV-I 112 W/m -1,3 C -0,7 C 8,0 km/h (2 Bft) 95,74 %
10.02.2019 08:30 -0,6 C 3,9 C -1,1 C 96 % 1010,8 hPa 0,0 l/m 5,1 km/h (1 Bft) NO 56 2 min 0,000 mm 0,0 UV-I 124 W/m -1,2 C -0,6 C 8,0 km/h (2 Bft) 93,62 %
10.02.2019 08:32 -0,6 C 3,9 C -0,6 C 96 % 1010,7 hPa 0,0 l/m 5,3 km/h (1 Bft) O-NO 60 2 min 0,000 mm 0,0 UV-I 142 W/m -1,2 C -0,6 C 6,4 km/h (2 Bft) 93,62 %
10.02.2019 08:34 -0,4 C 3,9 C -0,6 C 96 % 1010,6 hPa 0,0 l/m 6,6 km/h (2 Bft) NO 41 2 min 0,000 mm 0,0 UV-I 155 W/m -1,0 C -0,6 C 8,0 km/h (2 Bft) 95,74 %
10.02.2019 08:36 -0,3 C 3,9 C 0,0 C 96 % 1010,6 hPa 0,0 l/m 8,0 km/h (2 Bft) NO 38 2 min 0,000 mm 0,0 UV-I 168 W/m -0,9 C -2,0 C 9,7 km/h (2 Bft) 100,00 %
10.02.2019 08:38 -0,2 C 3,9 C 0,6 C 96 % 1010,6 hPa 0,0 l/m 8,7 km/h (2 Bft) NO 36 2 min 0,000 mm 0,0 UV-I 176 W/m -0,8 C -2,5 C 11,3 km/h (2 Bft) 100,00 %
10.02.2019 08:40 -0,1 C 3,9 C 0,6 C 96 % 1010,7 hPa 0,0 l/m 8,1 km/h (2 Bft) NO 41 2 min 0,000 mm 0,0 UV-I 192 W/m -0,7 C -1,8 C 9,7 km/h (2 Bft) 97,87 %
10.02.2019 08:42 0,0 C 3,9 C 1,1 C 96 % 1010,6 hPa 0,0 l/m 6,5 km/h (2 Bft) N-NO 31 2 min 0,000 mm 0,0 UV-I 194 W/m -0,6 C -0,1 C 9,7 km/h (2 Bft) 97,87 %
10.02.2019 08:44 0,1 C 3,9 C 1,1 C 96 % 1010,6 hPa 0,0 l/m 6,9 km/h (2 Bft) NO 36 2 min 0,000 mm 0,0 UV-I 189 W/m -0,5 C -0,4 C 9,7 km/h (2 Bft) 97,87 %
10.02.2019 08:46 0,2 C 3,9 C 1,1 C 97 % 1010,6 hPa 0,0 l/m 6,1 km/h (2 Bft) N-NO 18 2 min 0,000 mm 0,0 UV-I 193 W/m -0,2 C 0,2 C 8,0 km/h (2 Bft) 100,00 %
10.02.2019 08:48 0,3 C 3,9 C 1,7 C 96 % 1010,6 hPa 0,0 l/m 7,1 km/h (2 Bft) N-NO 32 2 min 0,000 mm 0,0 UV-I 179 W/m -0,3 C -0,4 C 9,7 km/h (2 Bft) 100,00 %
10.02.2019 08:50 0,3 C 3,9 C 1,7 C 96 % 1010,6 hPa 0,0 l/m 6,6 km/h (2 Bft) N-NO 17 2 min 0,000 mm 0,0 UV-I 168 W/m -0,3 C 0,1 C 9,7 km/h (2 Bft) 95,74 %
10.02.2019 08:52 0,4 C 3,9 C 1,7 C 96 % 1010,6 hPa 0,0 l/m 6,1 km/h (2 Bft) NO 41 2 min 0,000 mm 0,0 UV-I 180 W/m -0,2 C 0,4 C 8,0 km/h (2 Bft) 97,87 %
10.02.2019 08:54 0,4 C 3,9 C 2,2 C 96 % 1010,6 hPa 0,0 l/m 6,5 km/h (2 Bft) NO 40 2 min 0,000 mm 0,0 UV-I 175 W/m -0,2 C 0,3 C 8,0 km/h (2 Bft) 100,00 %
10.02.2019 08:56 0,6 C 3,9 C 2,2 C 96 % 1010,5 hPa 0,0 l/m 6,4 km/h (2 Bft) NO 49 2 min 0,000 mm 0,0 UV-I 175 W/m 0,0 C 0,6 C 8,0 km/h (2 Bft) 100,00 %
10.02.2019 08:58 0,6 C 3,9 C 2,2 C 96 % 1010,3 hPa 0,0 l/m 5,5 km/h (1 Bft) O-NO 57 2 min 0,000 mm 0,0 UV-I 177 W/m 0,0 C 0,6 C 6,4 km/h (2 Bft) 100,00 %
10.02.2019 09:00 0,6 C 3,9 C 2,2 C 96 % 1010,3 hPa 0,0 l/m 5,2 km/h (1 Bft) O-NO 61 2 min 0,000 mm 0,0 UV-I 175 W/m 0,0 C 0,6 C 6,4 km/h (2 Bft) 94,29 %
10.02.2019 09:02 0,6 C 3,9 C 2,8 C 96 % 1010,2 hPa 0,0 l/m 5,2 km/h (1 Bft) NO 49 2 min 0,051 mm 0,0 UV-I 178 W/m 0,0 C 0,6 C 6,4 km/h (2 Bft) 100,00 %
10.02.2019 09:04 0,6 C 3,9 C 2,8 C 96 % 1010,1 hPa 0,0 l/m 6,0 km/h (2 Bft) O-NO 69 2 min 0,000 mm 0,0 UV-I 185 W/m 0,0 C 0,6 C 8,0 km/h (2 Bft) 100,00 %
10.02.2019 09:06 0,6 C 3,9 C 2,8 C 96 % 1010,0 hPa 0,0 l/m 6,2 km/h (2 Bft) O-NO 62 2 min 0,000 mm 0,0 UV-I 190 W/m 0,0 C 0,6 C 8,0 km/h (2 Bft) 100,00 %
10.02.2019 09:08 0,7 C 3,9 C 2,8 C 96 % 1010,0 hPa 0,0 l/m 4,2 km/h (1 Bft) O-NO 61 2 min 0,000 mm 0,0 UV-I 222 W/m 0,1 C 0,7 C 6,4 km/h (2 Bft) 95,74 %
10.02.2019 09:10 0,8 C 3,9 C 2,8 C 96 % 1010,0 hPa 0,0 l/m 4,6 km/h (1 Bft) O-NO 67 2 min 0,000 mm 0,0 UV-I 233 W/m 0,2 C 0,8 C 6,4 km/h (2 Bft) 98,00 %
10.02.2019 09:12 0,9 C 3,9 C 2,8 C 95 % 1009,9 hPa 0,0 l/m 3,4 km/h (1 Bft) O-NO 67 2 min 0,000 mm 0,0 UV-I 236 W/m 0,2 C 0,9 C 4,8 km/h (1 Bft) 97,87 %
10.02.2019 09:14 1,0 C 3,9 C 2,8 C 95 % 1009,9 hPa 0,0 l/m 1,7 km/h (1 Bft) O-NO 67 2 min 0,000 mm 0,0 UV-I 229 W/m 0,3 C 1,0 C 3,2 km/h (1 Bft) 100,00 %
10.02.2019 09:16 1,1 C 3,9 C 2,8 C 95 % 1009,9 hPa 0,0 l/m 1,5 km/h (1 Bft) O-NO 67 2 min 0,000 mm 0,0 UV-I 155 W/m 0,4 C 1,1 C 3,2 km/h (1 Bft) 100,00 %
10.02.2019 09:18 1,2 C 3,9 C 2,8 C 95 % 1009,9 hPa 0,0 l/m 1,0 km/h (0 Bft) O-NO 67 2 min 0,000 mm 0,0 UV-I 155 W/m 0,5 C 1,2 C 1,6 km/h (1 Bft) 97,87 %
10.02.2019 09:20 1,2 C 3,9 C 2,8 C 95 % 1009,9 hPa 0,0 l/m 1,3 km/h (1 Bft) O-NO 67 0 min 0,000 mm 0,0 UV-I 154 W/m 0,5 C 1,2 C 1,6 km/h (1 Bft) 95,74 %
10.02.2019 09:22 1,3 C 3,9 C 2,8 C 95 % 1009,8 hPa 0,0 l/m 0,7 km/h (0 Bft) O-NO 67 2 min 0,000 mm 0,0 UV-I 161 W/m 0,6 C 1,3 C 1,6 km/h (1 Bft) 98,00 %
10.02.2019 09:24 1,3 C 3,9 C 2,8 C 94 % 1009,8 hPa 0,0 l/m 0,2 km/h (0 Bft) O-NO 67 2 min 0,000 mm 0,0 UV-I 177 W/m 0,4 C 1,3 C 1,6 km/h (1 Bft) 97,87 %
10.02.2019 09:26 1,3 C 3,9 C 3,3 C 94 % 1009,8 hPa 0,0 l/m 0,0 km/h (0 Bft) O-NO 67 2 min 0,000 mm 0,0 UV-I 260 W/m 0,4 C 1,3 C 0,0 km/h (0 Bft) 95,83 %
10.02.2019 09:28 1,3 C 3,9 C 3,9 C 94 % 1009,7 hPa 0,0 l/m 0,0 km/h (0 Bft) O-NO 67 2 min 0,000 mm 0,0 UV-I 279 W/m 0,4 C 1,3 C 0,0 km/h (0 Bft) 97,87 %
10.02.2019 09:30 1,6 C 3,9 C 3,9 C 94 % 1009,6 hPa 0,0 l/m 0,5 km/h (0 Bft) O-NO 67 2 min 0,000 mm 0,0 UV-I 285 W/m 0,7 C 1,6 C 1,6 km/h (1 Bft) 97,56 %
10.02.2019 09:32 1,8 C 3,9 C 4,4 C 94 % 1009,5 hPa 0,0 l/m 1,4 km/h (1 Bft) O-NO 67 2 min 0,000 mm 0,0 UV-I 248 W/m 0,9 C 1,8 C 3,2 km/h (1 Bft) 98,00 %
10.02.2019 09:34 1,9 C 3,9 C 3,9 C 93 % 1009,5 hPa 0,0 l/m 2,0 km/h (1 Bft) O-NO 67 0 min 0,000 mm 0,0 UV-I 160 W/m 0,9 C 1,9 C 3,2 km/h (1 Bft) 98,00 %
10.02.2019 09:36 1,9 C 3,9 C 3,9 C 92 % 1009,4 hPa 0,0 l/m 2,2 km/h (1 Bft) O-NO 67 0 min 0,000 mm 0,0 UV-I 154 W/m 0,7 C 1,9 C 3,2 km/h (1 Bft) 100,00 %
10.02.2019 09:38 1,9 C 3,9 C 3,9 C 92 % 1009,3 hPa 0,0 l/m 1,8 km/h (1 Bft) O-NO 67 0 min 0,000 mm 0,0 UV-I 159 W/m 0,7 C 1,9 C 3,2 km/h (1 Bft) 100,00 %
10.02.2019 09:40 1,9 C 3,9 C 3,9 C 92 % 1009,3 hPa 0,0 l/m 3,0 km/h (1 Bft) O-NO 67 0 min 0,000 mm 0,0 UV-I 167 W/m 0,7 C 1,9 C 4,8 km/h (1 Bft) 98,00 %
10.02.2019 09:42 1,9 C 3,9 C 4,4 C 92 % 1009,2 hPa 0,0 l/m 4,8 km/h (1 Bft) NO 54 0 min 0,000 mm 0,0 UV-I 169 W/m 0,7 C 1,9 C 6,4 km/h (2 Bft) 97,87 %
10.02.2019 09:44 1,9 C 3,9 C 3,9 C 92 % 1009,1 hPa 0,0 l/m 5,2 km/h (1 Bft) NO 45 0 min 0,000 mm 0,0 UV-I 164 W/m 0,7 C 1,9 C 6,4 km/h (2 Bft) 95,74 %
10.02.2019 09:46 1,9 C 3,9 C 3,9 C 92 % 1009,0 hPa 0,0 l/m 5,3 km/h (1 Bft) NO 46 0 min 0,000 mm 0,0 UV-I 149 W/m 0,7 C 1,9 C 6,4 km/h (2 Bft) 97,87 %
10.02.2019 09:48 1,9 C 3,9 C 3,9 C 92 % 1008,9 hPa 0,0 l/m 5,4 km/h (1 Bft) O-NO 63 0 min 0,000 mm 0,0 UV-I 138 W/m 0,7 C 1,9 C 8,0 km/h (2 Bft) 95,74 %
10.02.2019 09:50 1,8 C 3,9 C 3,9 C 92 % 1008,8 hPa 0,0 l/m 6,7 km/h (2 Bft) O-NO 60 0 min 0,000 mm 0,0 UV-I 142 W/m 0,6 C 1,5 C 9,7 km/h (2 Bft) 95,74 %
10.02.2019 09:52 1,8 C 3,9 C 3,9 C 92 % 1008,7 hPa 0,0 l/m 6,3 km/h (2 Bft) O 88 0 min 0,000 mm 0,0 UV-I 152 W/m 0,6 C 1,8 C 9,7 km/h (2 Bft) 98,00 %
10.02.2019 09:54 1,8 C 3,9 C 3,9 C 92 % 1008,6 hPa 0,0 l/m 4,6 km/h (1 Bft) O-NO 58 0 min 0,000 mm 0,0 UV-I 162 W/m 0,6 C 1,8 C 6,4 km/h (2 Bft) 98,00 %
10.02.2019 09:56 1,8 C 3,9 C 3,9 C 93 % 1008,7 hPa 0,0 l/m 3,8 km/h (1 Bft) O-NO 59 0 min 0,000 mm 0,0 UV-I 160 W/m 0,8 C 1,8 C 6,4 km/h (2 Bft) 95,74 %
10.02.2019 09:58 1,8 C 3,9 C 3,9 C 93 % 1008,6 hPa 0,0 l/m 3,4 km/h (1 Bft) O-NO 59 0 min 0,000 mm 0,0 UV-I 157 W/m 0,8 C 1,8 C 4,8 km/h (1 Bft) 97,44 %
10.02.2019 10:00 1,8 C 3,9 C 4,4 C 93 % 1008,6 hPa 0,0 l/m 3,8 km/h (1 Bft) O-NO 59 0 min 0,076 mm 0,0 UV-I 163 W/m 0,8 C 1,8 C 4,8 km/h (1 Bft) 94,00 %
10.02.2019 10:02 1,8 C 3,9 C 4,4 C 93 % 1008,6 hPa 0,0 l/m 2,5 km/h (1 Bft) O-NO 59 0 min 0,000 mm 0,0 UV-I 172 W/m 0,8 C 1,8 C 3,2 km/h (1 Bft) 97,87 %
10.02.2019 10:04 1,8 C 3,9 C 4,4 C 93 % 1008,5 hPa 0,0 l/m 2,1 km/h (1 Bft) O-NO 59 0 min 0,000 mm 0,0 UV-I 178 W/m 0,8 C 1,8 C 3,2 km/h (1 Bft) 98,00 %
10.02.2019 10:06 1,8 C 3,9 C 4,4 C 93 % 1008,4 hPa 0,0 l/m 2,1 km/h (1 Bft) O-NO 59 0 min 0,000 mm 0,0 UV-I 186 W/m 0,8 C 1,8 C 3,2 km/h (1 Bft) 100,00 %
10.02.2019 10:08 1,9 C 3,9 C 4,4 C 93 % 1008,3 hPa 0,0 l/m 3,9 km/h (1 Bft) O-NO 59 0 min 0,000 mm 0,1 UV-I 192 W/m 0,9 C 1,9 C 4,8 km/h (1 Bft) 100,00 %
10.02.2019 10:10 2,0 C 3,9 C 5,0 C 93 % 1008,3 hPa 0,0 l/m 3,9 km/h (1 Bft) O-NO 59 0 min 0,000 mm 0,5 UV-I 197 W/m 1,0 C 2,0 C 4,8 km/h (1 Bft) 100,00 %
10.02.2019 10:12 2,0 C 3,9 C 5,0 C 93 % 1008,2 hPa 0,0 l/m 3,6 km/h (1 Bft) O-NO 65 0 min 0,000 mm 0,5 UV-I 204 W/m 1,0 C 2,0 C 4,8 km/h (1 Bft) 95,74 %
10.02.2019 10:14 2,2 C 3,9 C 5,0 C 93 % 1008,2 hPa 0,0 l/m 4,1 km/h (1 Bft) O-NO 65 0 min 0,000 mm 0,5 UV-I 205 W/m 1,2 C 2,2 C 6,4 km/h (2 Bft) 100,00 %
10.02.2019 10:16 2,3 C 3,9 C 5,6 C 93 % 1008,0 hPa 0,0 l/m 5,3 km/h (1 Bft) O-NO 65 0 min 0,000 mm 0,5 UV-I 205 W/m 1,3 C 2,3 C 6,4 km/h (2 Bft) 100,00 %
10.02.2019 10:18 2,3 C 3,9 C 5,0 C 93 % 1008,0 hPa 0,0 l/m 5,5 km/h (1 Bft) NO 50 0 min 0,000 mm 0,5 UV-I 196 W/m 1,3 C 2,3 C 8,0 km/h (2 Bft) 100,00 %
10.02.2019 10:20 2,4 C 3,9 C 5,0 C 92 % 1007,8 hPa 0,0 l/m 5,9 km/h (2 Bft) NO 42 0 min 0,000 mm 0,5 UV-I 192 W/m 1,2 C 2,4 C 8,0 km/h (2 Bft) 100,00 %
10.02.2019 10:22 2,4 C 3,9 C 5,0 C 92 % 1007,8 hPa 0,0 l/m 6,6 km/h (2 Bft) NO 40 0 min 0,000 mm 0,5 UV-I 194 W/m 1,2 C 2,2 C 8,0 km/h (2 Bft) 97,87 %
10.02.2019 10:24 2,4 C 3,9 C 5,0 C 92 % 1007,7 hPa 0,0 l/m 6,9 km/h (2 Bft) NO 40 0 min 0,000 mm 0,5 UV-I 196 W/m 1,2 C 1,9 C 8,0 km/h (2 Bft) 98,00 %
10.02.2019 10:26 2,4 C 3,9 C 5,6 C 92 % 1007,7 hPa 0,0 l/m 6,4 km/h (2 Bft) NO 51 0 min 0,000 mm 0,5 UV-I 214 W/m 1,2 C 2,4 C 8,0 km/h (2 Bft) 95,74 %
10.02.2019 10:28 2,4 C 3,9 C 5,6 C 92 % 1007,7 hPa 0,0 l/m 6,4 km/h (2 Bft) NO 45 2 min 0,000 mm 0,6 UV-I 231 W/m 1,2 C 2,4 C 8,0 km/h (2 Bft) 93,62 %
10.02.2019 10:30 2,6 C 3,9 C 6,1 C 92 % 1007,7 hPa 0,0 l/m 5,4 km/h (1 Bft) NO 53 2 min 0,000 mm 0,7 UV-I 315 W/m 1,4 C 2,6 C 8,0 km/h (2 Bft) 95,74 %
10.02.2019 10:32 2,7 C 3,9 C 6,7 C 92 % 1007,7 hPa 0,0 l/m 4,7 km/h (1 Bft) O-NO 70 2 min 0,000 mm 0,7 UV-I 374 W/m 1,5 C 2,7 C 8,0 km/h (2 Bft) 93,62 %
10.02.2019 10:34 3,1 C 3,9 C 8,3 C 92 % 1007,7 hPa 0,0 l/m 3,7 km/h (1 Bft) O-NO 71 2 min 0,000 mm 0,7 UV-I 425 W/m 1,9 C 3,1 C 4,8 km/h (1 Bft) 96,00 %
10.02.2019 10:36 3,3 C 3,9 C 10,0 C 91 % 1007,7 hPa 0,0 l/m 3,0 km/h (1 Bft) O-NO 71 2 min 0,000 mm 0,7 UV-I 423 W/m 2,0 C 3,3 C 4,8 km/h (1 Bft) 92,11 %
10.02.2019 10:38 3,5 C 3,9 C 11,1 C 90 % 1007,7 hPa 0,0 l/m 3,7 km/h (1 Bft) NO 55 2 min 0,000 mm 0,7 UV-I 396 W/m 2,0 C 3,5 C 4,8 km/h (1 Bft) 97,92 %
10.02.2019 10:40 3,7 C 3,9 C 11,7 C 89 % 1007,6 hPa 0,0 l/m 4,6 km/h (1 Bft) O-NO 75 2 min 0,000 mm 0,7 UV-I 369 W/m 2,1 C 3,7 C 6,4 km/h (2 Bft) 98,00 %
10.02.2019 10:42 3,9 C 3,9 C 12,2 C 89 % 1007,6 hPa 0,0 l/m 7,3 km/h (2 Bft) O 88 2 min 0,000 mm 0,8 UV-I 389 W/m 2,3 C 3,1 C 11,3 km/h (2 Bft) 95,74 %
10.02.2019 10:44 4,0 C 3,9 C 12,2 C 86 % 1007,6 hPa 0,0 l/m 9,4 km/h (2 Bft) O 95 2 min 0,000 mm 0,8 UV-I 400 W/m 1,9 C 1,4 C 12,9 km/h (3 Bft) 97,87 %
10.02.2019 10:46 4,1 C 3,9 C 12,2 C 85 % 1007,6 hPa 0,0 l/m 9,3 km/h (2 Bft) O-SO 104 2 min 0,000 mm 0,8 UV-I 395 W/m 1,8 C 1,6 C 14,5 km/h (3 Bft) 100,00 %
10.02.2019 10:48 4,1 C 3,9 C 12,2 C 84 % 1007,6 hPa 0,0 l/m 7,4 km/h (2 Bft) NO 49 2 min 0,000 mm 0,8 UV-I 419 W/m 1,6 C 3,2 C 9,7 km/h (2 Bft) 100,00 %
10.02.2019 10:50 4,2 C 3,9 C 12,8 C 84 % 1007,5 hPa 0,0 l/m 7,3 km/h (2 Bft) O 92 2 min 0,000 mm 0,8 UV-I 411 W/m 1,7 C 3,4 C 12,9 km/h (3 Bft) 100,00 %
10.02.2019 10:52 4,3 C 3,9 C 11,7 C 84 % 1007,5 hPa 0,0 l/m 9,4 km/h (2 Bft) O 82 2 min 0,000 mm 0,8 UV-I 415 W/m 1,8 C 1,7 C 14,5 km/h (3 Bft) 100,00 %
10.02.2019 10:54 4,4 C 3,9 C 11,1 C 83 % 1007,5 hPa 0,0 l/m 9,9 km/h (2 Bft) O-NO 59 2 min 0,000 mm 0,8 UV-I 394 W/m 1,8 C 1,5 C 12,9 km/h (3 Bft) 95,74 %
10.02.2019 10:56 4,4 C 3,9 C 11,1 C 83 % 1007,4 hPa 0,0 l/m 8,2 km/h (2 Bft) O 79 2 min 0,000 mm 0,8 UV-I 405 W/m 1,8 C 2,8 C 12,9 km/h (3 Bft) 97,87 %
10.02.2019 10:58 4,5 C 3,9 C 11,7 C 83 % 1007,4 hPa 0,0 l/m 8,7 km/h (2 Bft) O-NO 78 2 min 0,000 mm 0,8 UV-I 437 W/m 1,9 C 2,5 C 12,9 km/h (3 Bft) 100,00 %
10.02.2019 11:00 4,6 C 3,9 C 11,7 C 83 % 1007,4 hPa 0,0 l/m 8,1 km/h (2 Bft) O-NO 62 2 min 0,000 mm 0,8 UV-I 371 W/m 2,0 C 3,1 C 12,9 km/h (3 Bft) 95,74 %
10.02.2019 11:02 4,7 C 3,9 C 11,7 C 82 % 1007,3 hPa 0,0 l/m 8,2 km/h (2 Bft) O-NO 73 2 min 0,127 mm 0,8 UV-I 351 W/m 1,9 C 3,1 C 11,3 km/h (2 Bft) 98,00 %
10.02.2019 11:04 4,8 C 3,9 C 11,7 C 81 % 1007,3 hPa 0,0 l/m 8,9 km/h (2 Bft) O 95 2 min 0,000 mm 0,8 UV-I 397 W/m 1,8 C 2,7 C 11,3 km/h (2 Bft) 100,00 %
10.02.2019 11:06 4,9 C 3,9 C 11,7 C 81 % 1007,3 hPa 0,0 l/m 10,4 km/h (2 Bft) O 86 2 min 0,000 mm 0,8 UV-I 417 W/m 1,9 C 1,7 C 14,5 km/h (3 Bft) 98,39 %
10.02.2019 11:08 5,1 C 3,9 C 11,7 C 81 % 1007,3 hPa 0,0 l/m 10,6 km/h (2 Bft) O-NO 67 2 min 0,000 mm 0,8 UV-I 387 W/m 2,1 C 1,8 C 16,1 km/h (3 Bft) 97,87 %
10.02.2019 11:10 5,2 C 3,9 C 11,1 C 80 % 1007,2 hPa 0,0 l/m 12,9 km/h (3 Bft) O 82 2 min 0,000 mm 0,8 UV-I 348 W/m 2,0 C 0,5 C 17,7 km/h (3 Bft) 97,87 %
10.02.2019 11:12 5,1 C 3,9 C 11,1 C 79 % 1007,1 hPa 0,0 l/m 13,2 km/h (3 Bft) O-NO 71 2 min 0,000 mm 0,8 UV-I 365 W/m 1,8 C 0,2 C 16,1 km/h (3 Bft) 93,62 %
10.02.2019 11:14 5,1 C 3,9 C 11,1 C 80 % 1007,1 hPa 0,0 l/m 12,3 km/h (3 Bft) O-NO 62 2 min 0,000 mm 0,8 UV-I 382 W/m 1,9 C 0,7 C 16,1 km/h (3 Bft) 97,87 %
10.02.2019 11:16 5,1 C 3,9 C 11,1 C 80 % 1007,1 hPa 0,0 l/m 11,6 km/h (2 Bft) O-NO 68 2 min 0,000 mm 0,8 UV-I 390 W/m 1,9 C 1,1 C 14,5 km/h (3 Bft) 97,22 %
10.02.2019 11:18 5,2 C 3,9 C 11,7 C 80 % 1007,0 hPa 0,0 l/m 8,6 km/h (2 Bft) O-NO 77 2 min 0,000 mm 0,9 UV-I 389 W/m 2,0 C 3,3 C 12,9 km/h (3 Bft) 95,74 %
10.02.2019 11:20 5,2 C 3,9 C 11,7 C 80 % 1006,9 hPa 0,0 l/m 12,1 km/h (2 Bft) O 85 2 min 0,000 mm 0,9 UV-I 403 W/m 2,0 C 0,9 C 14,5 km/h (3 Bft) 96,00 %
10.02.2019 11:22 5,3 C 3,9 C 11,7 C 79 % 1006,8 hPa 0,0 l/m 9,8 km/h (2 Bft) O 80 2 min 0,000 mm 0,9 UV-I 411 W/m 2,0 C 2,5 C 14,5 km/h (3 Bft) 97,87 %
10.02.2019 11:24 5,4 C 3,9 C 11,7 C 79 % 1006,6 hPa 0,0 l/m 8,9 km/h (2 Bft) O-NO 73 2 min 0,000 mm 0,9 UV-I 393 W/m 2,1 C 3,3 C 12,9 km/h (3 Bft) 95,74 %
10.02.2019 11:26 5,4 C 3,9 C 11,1 C 79 % 1006,6 hPa 0,0 l/m 7,9 km/h (2 Bft) O 80 2 min 0,000 mm 0,9 UV-I 421 W/m 2,1 C 4,1 C 12,9 km/h (3 Bft) 96,00 %
10.02.2019 11:28 5,4 C 3,9 C 11,1 C 79 % 1006,6 hPa 0,0 l/m 7,7 km/h (2 Bft) NO 46 2 min 0,000 mm 0,9 UV-I 408 W/m 2,1 C 4,3 C 12,9 km/h (3 Bft) 94,00 %
10.02.2019 11:30 5,6 C 3,9 C 11,7 C 80 % 1006,6 hPa 0,0 l/m 7,1 km/h (2 Bft) O-NO 67 2 min 0,000 mm 0,9 UV-I 427 W/m 2,4 C 5,0 C 11,3 km/h (2 Bft) 95,74 %
10.02.2019 11:32 5,7 C 3,9 C 11,7 C 80 % 1006,6 hPa 0,0 l/m 5,9 km/h (2 Bft) O-NO 61 2 min 0,000 mm 0,9 UV-I 431 W/m 2,5 C 5,7 C 8,0 km/h (2 Bft) 93,62 %
10.02.2019 11:34 5,8 C 3,9 C 12,2 C 79 % 1006,6 hPa 0,0 l/m 5,0 km/h (1 Bft) O 90 2 min 0,000 mm 0,9 UV-I 443 W/m 2,4 C 5,8 C 8,0 km/h (2 Bft) 97,87 %
10.02.2019 11:36 5,9 C 3,9 C 12,2 C 79 % 1006,6 hPa 0,0 l/m 5,4 km/h (1 Bft) O 94 2 min 0,000 mm 1,0 UV-I 455 W/m 2,5 C 5,9 C 9,7 km/h (2 Bft) 94,74 %
10.02.2019 11:38 6,1 C 3,9 C 12,2 C 79 % 1006,5 hPa 0,0 l/m 8,9 km/h (2 Bft) O 86 2 min 0,000 mm 1,0 UV-I 459 W/m 2,7 C 4,1 C 12,9 km/h (3 Bft) 98,00 %
10.02.2019 11:40 6,1 C 3,9 C 12,2 C 78 % 1006,4 hPa 0,0 l/m 12,2 km/h (2 Bft) O-NO 78 2 min 0,000 mm 0,9 UV-I 451 W/m 2,6 C 1,9 C 16,1 km/h (3 Bft) 100,00 %
10.02.2019 11:42 6,1 C 3,9 C 12,2 C 77 % 1006,4 hPa 0,0 l/m 11,8 km/h (2 Bft) O-NO 77 2 min 0,000 mm 0,9 UV-I 430 W/m 2,4 C 2,1 C 14,5 km/h (3 Bft) 93,55 %
10.02.2019 11:44 6,1 C 3,9 C 11,7 C 76 % 1006,2 hPa 0,0 l/m 12,2 km/h (2 Bft) O-NO 63 2 min 0,000 mm 0,9 UV-I 410 W/m 2,2 C 1,9 C 16,1 km/h (3 Bft) 95,74 %
10.02.2019 11:46 6,1 C 3,9 C 11,1 C 76 % 1006,2 hPa 0,0 l/m 12,3 km/h (3 Bft) O 85 2 min 0,000 mm 0,9 UV-I 398 W/m 2,2 C 1,8 C 16,1 km/h (3 Bft) 97,87 %
10.02.2019 11:48 6,1 C 3,9 C 11,1 C 76 % 1006,2 hPa 0,0 l/m 10,4 km/h (2 Bft) O 88 2 min 0,000 mm 0,9 UV-I 390 W/m 2,2 C 3,0 C 14,5 km/h (3 Bft) 95,74 %
10.02.2019 11:50 6,1 C 3,9 C 11,1 C 76 % 1006,2 hPa 0,0 l/m 8,9 km/h (2 Bft) O-NO 61 2 min 0,000 mm 0,9 UV-I 392 W/m 2,2 C 4,1 C 12,9 km/h (3 Bft) 97,87 %
10.02.2019 11:52 6,2 C 3,9 C 11,7 C 76 % 1006,2 hPa 0,0 l/m 8,1 km/h (2 Bft) O-NO 58 2 min 0,000 mm 0,9 UV-I 384 W/m 2,3 C 4,8 C 12,9 km/h (3 Bft) 97,87 %
10.02.2019 11:54 6,2 C 3,9 C 12,2 C 76 % 1006,1 hPa 0,0 l/m 7,8 km/h (2 Bft) NO 51 2 min 0,000 mm 0,9 UV-I 392 W/m 2,3 C 5,0 C 9,7 km/h (2 Bft) 100,00 %
10.02.2019 11:56 6,3 C 3,9 C 12,2 C 76 % 1006,1 hPa 0,0 l/m 8,2 km/h (2 Bft) O-SO 106 2 min 0,000 mm 0,9 UV-I 375 W/m 2,4 C 4,8 C 12,9 km/h (3 Bft) 97,87 %
10.02.2019 11:58 6,3 C 3,9 C 12,2 C 76 % 1006,1 hPa 0,0 l/m 7,6 km/h (2 Bft) O 84 2 min 0,000 mm 0,9 UV-I 372 W/m 2,4 C 5,3 C 12,9 km/h (3 Bft) 97,87 %
10.02.2019 12:00 6,3 C 3,9 C 12,2 C 75 % 1006,0 hPa 0,0 l/m 7,1 km/h (2 Bft) O-NO 73 2 min 0,178 mm 0,9 UV-I 362 W/m 2,2 C 5,7 C 11,3 km/h (2 Bft) 100,00 %
10.02.2019 12:02 6,4 C 3,9 C 12,2 C 77 % 1005,9 hPa 0,0 l/m 7,1 km/h (2 Bft) O-NO 58 2 min 0,000 mm 0,9 UV-I 361 W/m 2,7 C 5,8 C 12,9 km/h (3 Bft) 100,00 %
10.02.2019 12:04 6,4 C 3,9 C 11,7 C 76 % 1005,9 hPa 0,0 l/m 6,4 km/h (2 Bft) O-NO 73 2 min 0,000 mm 0,8 UV-I 356 W/m 2,5 C 6,4 C 9,7 km/h (2 Bft) 97,37 %
10.02.2019 12:06 6,4 C 3,9 C 11,7 C 76 % 1005,8 hPa 0,0 l/m 6,9 km/h (2 Bft) O-NO 62 2 min 0,000 mm 0,8 UV-I 338 W/m 2,5 C 6,0 C 9,7 km/h (2 Bft) 100,00 %
10.02.2019 12:08 6,4 C 3,9 C 11,1 C 75 % 1005,8 hPa 0,0 l/m 6,3 km/h (2 Bft) NO 55 2 min 0,000 mm 0,8 UV-I 318 W/m 2,3 C 6,4 C 8,0 km/h (2 Bft) 97,87 %
10.02.2019 12:10 6,4 C 3,9 C 11,1 C 75 % 1005,8 hPa 0,0 l/m 7,0 km/h (2 Bft) O-NO 57 2 min 0,000 mm 0,8 UV-I 296 W/m 2,3 C 5,9 C 9,7 km/h (2 Bft) 98,00 %
10.02.2019 12:12 6,4 C 3,9 C 10,6 C 76 % 1005,7 hPa 0,0 l/m 6,9 km/h (2 Bft) O-NO 76 2 min 0,000 mm 0,8 UV-I 284 W/m 2,5 C 6,0 C 9,7 km/h (2 Bft) 100,00 %
10.02.2019 12:14 6,3 C 3,9 C 10,6 C 76 % 1005,5 hPa 0,0 l/m 6,5 km/h (2 Bft) O 86 0 min 0,000 mm 0,7 UV-I 254 W/m 2,4 C 6,2 C 8,0 km/h (2 Bft) 100,00 %
10.02.2019 12:16 6,3 C 3,9 C 10,0 C 76 % 1005,5 hPa 0,0 l/m 6,3 km/h (2 Bft) O-NO 63 0 min 0,000 mm 0,7 UV-I 248 W/m 2,4 C 6,3 C 8,0 km/h (2 Bft) 97,87 %
10.02.2019 12:18 6,3 C 3,9 C 10,0 C 77 % 1005,5 hPa 0,0 l/m 6,2 km/h (2 Bft) O-NO 61 0 min 0,000 mm 0,7 UV-I 249 W/m 2,6 C 6,3 C 8,0 km/h (2 Bft) 100,00 %
10.02.2019 12:20 6,3 C 3,9 C 9,4 C 77 % 1005,6 hPa 0,0 l/m 5,8 km/h (2 Bft) NO 40 0 min 0,000 mm 0,8 UV-I 253 W/m 2,6 C 6,3 C 8,0 km/h (2 Bft) 98,00 %
10.02.2019 12:22 6,3 C 3,9 C 9,4 C 77 % 1005,5 hPa 0,0 l/m 5,7 km/h (1 Bft) O-NO 61 2 min 0,000 mm 0,8 UV-I 282 W/m 2,6 C 6,3 C 8,0 km/h (2 Bft) 95,74 %
10.02.2019 12:24 6,3 C 3,9 C 9,4 C 77 % 1005,5 hPa 0,0 l/m 5,1 km/h (1 Bft) O-NO 71 2 min 0,000 mm 0,8 UV-I 305 W/m 2,6 C 6,3 C 6,4 km/h (2 Bft) 100,00 %
10.02.2019 12:26 6,4 C 3,9 C 10,0 C 77 % 1005,4 hPa 0,0 l/m 4,7 km/h (1 Bft) O-NO 63 2 min 0,000 mm 0,9 UV-I 380 W/m 2,7 C 6,4 C 6,4 km/h (2 Bft) 98,00 %
10.02.2019 12:28 6,6 C 3,9 C 10,0 C 77 % 1005,3 hPa 0,0 l/m 4,8 km/h (1 Bft) O-NO 68 2 min 0,000 mm 0,9 UV-I 394 W/m 2,9 C 6,6 C 6,4 km/h (2 Bft) 95,74 %
10.02.2019 12:30 6,7 C 3,9 C 10,6 C 77 % 1005,2 hPa 0,0 l/m 5,6 km/h (1 Bft) O-NO 76 2 min 0,000 mm 0,9 UV-I 416 W/m 3,0 C 6,7 C 8,0 km/h (2 Bft) 100,00 %
10.02.2019 12:32 6,7 C 3,9 C 10,6 C 77 % 1005,1 hPa 0,0 l/m 5,1 km/h (1 Bft) O 86 2 min 0,000 mm 1,0 UV-I 424 W/m 3,0 C 6,7 C 8,0 km/h (2 Bft) 97,87 %
10.02.2019 12:34 6,8 C 3,9 C 10,6 C 77 % 1005,1 hPa 0,0 l/m 5,6 km/h (1 Bft) O-NO 72 2 min 0,000 mm 0,9 UV-I 407 W/m 3,1 C 6,8 C 8,0 km/h (2 Bft) 100,00 %
10.02.2019 12:36 6,8 C 3,9 C 10,6 C 76 % 1005,1 hPa 0,0 l/m 3,6 km/h (1 Bft) O-NO 74 2 min 0,000 mm 0,9 UV-I 402 W/m 2,9 C 6,8 C 4,8 km/h (1 Bft) 100,00 %
10.02.2019 12:38 6,8 C 3,9 C 11,1 C 77 % 1005,0 hPa 0,0 l/m 4,4 km/h (1 Bft) O-NO 76 2 min 0,000 mm 0,9 UV-I 387 W/m 3,1 C 6,8 C 6,4 km/h (2 Bft) 100,00 %
10.02.2019 12:40 6,9 C 3,9 C 11,1 C 76 % 1005,0 hPa 0,0 l/m 3,5 km/h (1 Bft) O 84 2 min 0,000 mm 0,9 UV-I 385 W/m 3,0 C 6,9 C 4,8 km/h (1 Bft) 93,62 %
10.02.2019 12:42 6,9 C 3,9 C 11,7 C 76 % 1004,9 hPa 0,0 l/m 3,9 km/h (1 Bft) O-NO 77 2 min 0,000 mm 0,9 UV-I 411 W/m 3,0 C 6,9 C 6,4 km/h (2 Bft) 95,74 %
10.02.2019 12:44 7,1 C 3,9 C 11,1 C 76 % 1004,8 hPa 0,0 l/m 4,1 km/h (1 Bft) NO 34 2 min 0,000 mm 0,9 UV-I 395 W/m 3,2 C 7,1 C 6,4 km/h (2 Bft) 97,87 %
10.02.2019 12:46 7,1 C 3,9 C 11,1 C 76 % 1004,8 hPa 0,0 l/m 4,7 km/h (1 Bft) NO 35 2 min 0,000 mm 0,9 UV-I 372 W/m 3,2 C 7,1 C 6,4 km/h (2 Bft) 91,49 %
10.02.2019 12:48 7,2 C 3,9 C 11,1 C 78 % 1004,7 hPa 0,0 l/m 4,8 km/h (1 Bft) NO 35 2 min 0,000 mm 0,9 UV-I 343 W/m 3,6 C 7,2 C 6,4 km/h (2 Bft) 94,00 %
10.02.2019 12:50 7,2 C 3,9 C 10,6 C 77 % 1004,7 hPa 0,0 l/m 3,6 km/h (1 Bft) NO 42 2 min 0,000 mm 0,8 UV-I 317 W/m 3,4 C 7,2 C 4,8 km/h (1 Bft) 95,74 %
10.02.2019 12:52 7,1 C 3,9 C 10,6 C 75 % 1004,8 hPa 0,0 l/m 4,0 km/h (1 Bft) N-NO 26 2 min 0,000 mm 0,8 UV-I 294 W/m 3,0 C 7,1 C 6,4 km/h (2 Bft) 93,62 %
10.02.2019 12:54 6,9 C 3,9 C 10,0 C 75 % 1004,8 hPa 0,0 l/m 2,6 km/h (1 Bft) N-NO 26 2 min 0,000 mm 0,8 UV-I 296 W/m 2,8 C 6,9 C 4,8 km/h (1 Bft) 95,74 %
10.02.2019 12:56 6,9 C 3,9 C 10,0 C 76 % 1004,8 hPa 0,0 l/m 1,8 km/h (1 Bft) N-NO 26 2 min 0,000 mm 0,8 UV-I 323 W/m 3,0 C 6,9 C 3,2 km/h (1 Bft) 95,74 %
10.02.2019 12:58 6,9 C 3,9 C 10,0 C 74 % 1004,7 hPa 0,0 l/m 0,2 km/h (0 Bft) N-NO 26 2 min 0,000 mm 0,8 UV-I 313 W/m 2,6 C 6,9 C 1,6 km/h (1 Bft) 91,49 %
10.02.2019 13:00 7,0 C 3,9 C 10,6 C 75 % 1004,6 hPa 0,0 l/m 0,3 km/h (0 Bft) N-NO 26 2 min 0,152 mm 0,8 UV-I 312 W/m 2,9 C 7,0 C 1,6 km/h (1 Bft) 91,49 %
10.02.2019 13:02 7,1 C 3,9 C 10,6 C 75 % 1004,6 hPa 0,0 l/m 2,0 km/h (1 Bft) NO 51 2 min 0,000 mm 0,8 UV-I 290 W/m 3,0 C 7,1 C 3,2 km/h (1 Bft) 95,74 %
10.02.2019 13:04 7,2 C 3,9 C 10,6 C 75 % 1004,5 hPa 0,0 l/m 1,3 km/h (1 Bft) NO 51 2 min 0,000 mm 0,8 UV-I 300 W/m 3,1 C 7,2 C 3,2 km/h (1 Bft) 95,74 %
10.02.2019 13:06 7,3 C 3,9 C 10,6 C 74 % 1004,5 hPa 0,0 l/m 2,5 km/h (1 Bft) NO 50 2 min 0,000 mm 0,8 UV-I 290 W/m 3,0 C 7,3 C 3,2 km/h (1 Bft) 100,00 %
10.02.2019 13:08 7,3 C 3,9 C 10,0 C 75 % 1004,4 hPa 0,0 l/m 1,8 km/h (1 Bft) NO 51 2 min 0,000 mm 0,8 UV-I 305 W/m 3,2 C 7,3 C 3,2 km/h (1 Bft) 97,87 %
10.02.2019 13:10 7,2 C 3,9 C 10,0 C 74 % 1004,4 hPa 0,0 l/m 0,7 km/h (0 Bft) NO 51 2 min 0,000 mm 0,8 UV-I 298 W/m 2,9 C 7,2 C 3,2 km/h (1 Bft) 98,00 %
10.02.2019 13:12 7,2 C 3,9 C 10,0 C 74 % 1004,4 hPa 0,0 l/m 0,5 km/h (0 Bft) NO 51 2 min 0,000 mm 0,8 UV-I 294 W/m 2,9 C 7,2 C 1,6 km/h (1 Bft) 100,00 %
10.02.2019 13:14 7,2 C 3,9 C 10,0 C 75 % 1004,3 hPa 0,0 l/m 1,1 km/h (1 Bft) NO 51 2 min 0,000 mm 0,8 UV-I 263 W/m 3,1 C 7,2 C 1,6 km/h (1 Bft) 100,00 %
10.02.2019 13:16 7,3 C 3,9 C 10,6 C 74 % 1004,4 hPa 0,0 l/m 2,7 km/h (1 Bft) NO 51 2 min 0,000 mm 0,8 UV-I 298 W/m 3,0 C 7,3 C 4,8 km/h (1 Bft) 100,00 %
10.02.2019 13:18 7,3 C 3,9 C 10,0 C 74 % 1004,3 hPa 0,0 l/m 3,8 km/h (1 Bft) NO 51 2 min 0,000 mm 0,8 UV-I 272 W/m 3,0 C 7,3 C 4,8 km/h (1 Bft) 98,11 %
10.02.2019 13:20 7,3 C 3,9 C 9,4 C 74 % 1004,3 hPa 0,0 l/m 3,2 km/h (1 Bft) NO 51 2 min 0,000 mm 0,8 UV-I 292 W/m 3,0 C 7,3 C 4,8 km/h (1 Bft) 100,00 %
10.02.2019 13:22 7,3 C 3,9 C 10,0 C 76 % 1004,2 hPa 0,0 l/m 3,4 km/h (1 Bft) O 87 2 min 0,000 mm 0,8 UV-I 338 W/m 3,4 C 7,3 C 6,4 km/h (2 Bft) 100,00 %
10.02.2019 13:24 7,5 C 3,9 C 10,6 C 75 % 1004,2 hPa 0,0 l/m 4,5 km/h (1 Bft) O 87 2 min 0,000 mm 0,8 UV-I 325 W/m 3,4 C 7,5 C 6,4 km/h (2 Bft) 97,87 %
10.02.2019 13:26 7,5 C 3,9 C 10,6 C 73 % 1004,1 hPa 0,0 l/m 2,9 km/h (1 Bft) O 92 2 min 0,000 mm 0,7 UV-I 304 W/m 3,0 C 7,5 C 4,8 km/h (1 Bft) 95,74 %
10.02.2019 13:28 7,5 C 3,9 C 11,1 C 73 % 1004,1 hPa 0,0 l/m 3,8 km/h (1 Bft) O 80 2 min 0,000 mm 0,7 UV-I 311 W/m 3,0 C 7,5 C 6,4 km/h (2 Bft) 100,00 %
10.02.2019 13:30 7,6 C 3,9 C 10,6 C 74 % 1004,0 hPa 0,0 l/m 4,3 km/h (1 Bft) O 80 2 min 0,000 mm 0,7 UV-I 261 W/m 3,3 C 7,6 C 4,8 km/h (1 Bft) 100,00 %
10.02.2019 13:32 7,6 C 3,9 C 11,1 C 74 % 1004,0 hPa 0,0 l/m 3,9 km/h (1 Bft) O 80 2 min 0,000 mm 0,7 UV-I 292 W/m 3,3 C 7,6 C 6,4 km/h (2 Bft) 100,00 %
10.02.2019 13:34 7,6 C 3,9 C 11,1 C 73 % 1004,0 hPa 0,0 l/m 3,2 km/h (1 Bft) O 80 2 min 0,000 mm 0,7 UV-I 288 W/m 3,1 C 7,6 C 4,8 km/h (1 Bft) 100,00 %
10.02.2019 13:36 7,6 C 3,9 C 11,1 C 73 % 1004,0 hPa 0,0 l/m 3,0 km/h (1 Bft) O 80 2 min 0,000 mm 0,7 UV-I 291 W/m 3,1 C 7,6 C 4,8 km/h (1 Bft) 97,37 %
10.02.2019 13:38 7,7 C 3,9 C 11,7 C 74 % 1004,0 hPa 0,0 l/m 4,3 km/h (1 Bft) O-NO 76 2 min 0,000 mm 0,7 UV-I 271 W/m 3,4 C 7,7 C 6,4 km/h (2 Bft) 100,00 %
10.02.2019 13:40 7,7 C 3,9 C 11,1 C 74 % 1004,0 hPa 0,0 l/m 4,4 km/h (1 Bft) O-NO 76 2 min 0,000 mm 0,6 UV-I 246 W/m 3,4 C 7,7 C 6,4 km/h (2 Bft) 100,00 %
10.02.2019 13:42 7,6 C 3,9 C 10,6 C 74 % 1003,9 hPa 0,0 l/m 3,8 km/h (1 Bft) O-NO 76 2 min 0,000 mm 0,6 UV-I 250 W/m 3,3 C 7,6 C 6,4 km/h (2 Bft) 100,00 %
10.02.2019 13:44 7,6 C 3,9 C 10,6 C 75 % 1003,8 hPa 0,0 l/m 4,3 km/h (1 Bft) O-NO 76 2 min 0,000 mm 0,6 UV-I 250 W/m 3,5 C 7,6 C 6,4 km/h (2 Bft) 100,00 %
10.02.2019 13:46 7,6 C 3,9 C 10,6 C 75 % 1003,7 hPa 0,0 l/m 3,4 km/h (1 Bft) O-NO 76 2 min 0,000 mm 0,6 UV-I 245 W/m 3,5 C 7,6 C 4,8 km/h (1 Bft) 100,00 %
10.02.2019 13:48 7,6 C 3,9 C 10,6 C 75 % 1003,7 hPa 0,0 l/m 3,4 km/h (1 Bft) O-NO 76 0 min 0,000 mm 0,6 UV-I 205 W/m 3,5 C 7,6 C 4,8 km/h (1 Bft) 100,00 %
10.02.2019 13:50 7,6 C 3,9 C 10,6 C 75 % 1003,7 hPa 0,0 l/m 3,2 km/h (1 Bft) O-NO 77 0 min 0,000 mm 0,6 UV-I 191 W/m 3,5 C 7,6 C 4,8 km/h (1 Bft) 100,00 %
10.02.2019 13:52 7,6 C 3,9 C 10,0 C 74 % 1003,6 hPa 0,0 l/m 2,7 km/h (1 Bft) O-NO 76 0 min 0,000 mm 0,5 UV-I 184 W/m 3,3 C 7,6 C 4,8 km/h (1 Bft) 100,00 %
10.02.2019 13:54 7,5 C 3,9 C 10,0 C 75 % 1003,6 hPa 0,0 l/m 3,4 km/h (1 Bft) O-NO 64 0 min 0,000 mm 0,5 UV-I 189 W/m 3,4 C 7,5 C 4,8 km/h (1 Bft) 100,00 %
10.02.2019 13:56 7,5 C 3,9 C 10,0 C 77 % 1003,5 hPa 0,0 l/m 3,7 km/h (1 Bft) O-NO 64 0 min 0,000 mm 0,5 UV-I 193 W/m 3,7 C 7,5 C 4,8 km/h (1 Bft) 100,00 %
10.02.2019 13:58 7,5 C 3,9 C 10,0 C 75 % 1003,5 hPa 0,0 l/m 2,8 km/h (1 Bft) O-NO 75 0 min 0,000 mm 0,5 UV-I 176 W/m 3,4 C 7,5 C 4,8 km/h (1 Bft) 100,00 %
10.02.2019 14:00 7,5 C 3,9 C 10,0 C 75 % 1003,4 hPa 0,0 l/m 3,0 km/h (1 Bft) O-NO 74 0 min 0,127 mm 0,5 UV-I 168 W/m 3,4 C 7,5 C 4,8 km/h (1 Bft) 93,62 %
10.02.2019 14:02 7,4 C 3,9 C 10,0 C 75 % 1003,3 hPa 0,0 l/m 2,8 km/h (1 Bft) O 80 0 min 0,000 mm 0,5 UV-I 164 W/m 3,3 C 7,4 C 4,8 km/h (1 Bft) 97,87 %
10.02.2019 14:04 7,4 C 3,9 C 10,0 C 75 % 1003,3 hPa 0,0 l/m 2,5 km/h (1 Bft) O 94 0 min 0,000 mm 0,5 UV-I 170 W/m 3,3 C 7,4 C 4,8 km/h (1 Bft) 95,74 %
10.02.2019 14:06 7,3 C 3,9 C 10,0 C 76 % 1003,2 hPa 0,0 l/m 3,9 km/h (1 Bft) O-SO 123 0 min 0,000 mm 0,5 UV-I 210 W/m 3,4 C 7,3 C 6,4 km/h (2 Bft) 97,87 %
10.02.2019 14:08 7,4 C 3,9 C 10,6 C 76 % 1003,2 hPa 0,0 l/m 4,2 km/h (1 Bft) O-SO 122 2 min 0,000 mm 0,5 UV-I 225 W/m 3,5 C 7,4 C 6,4 km/h (2 Bft) 97,87 %
10.02.2019 14:10 7,5 C 3,9 C 10,6 C 76 % 1003,1 hPa 0,0 l/m 2,8 km/h (1 Bft) O-SO 122 0 min 0,000 mm 0,6 UV-I 209 W/m 3,5 C 7,5 C 4,8 km/h (1 Bft) 97,87 %
10.02.2019 14:12 7,6 C 3,9 C 10,6 C 76 % 1002,9 hPa 0,0 l/m 6,2 km/h (2 Bft) O-NO 64 0 min 0,000 mm 0,5 UV-I 174 W/m 3,6 C 7,6 C 11,3 km/h (2 Bft) 97,87 %
10.02.2019 14:14 7,6 C 3,9 C 10,0 C 75 % 1002,9 hPa 0,0 l/m 6,9 km/h (2 Bft) O 87 0 min 0,000 mm 0,2 UV-I 162 W/m 3,5 C 7,2 C 12,9 km/h (3 Bft) 97,87 %
10.02.2019 14:16 7,6 C 3,9 C 10,0 C 75 % 1002,8 hPa 0,0 l/m 4,3 km/h (1 Bft) O-SO 109 0 min 0,000 mm 0,4 UV-I 175 W/m 3,5 C 7,6 C 6,4 km/h (2 Bft) 94,00 %
10.02.2019 14:18 7,6 C 3,9 C 10,6 C 75 % 1002,7 hPa 0,0 l/m 4,2 km/h (1 Bft) O 93 0 min 0,000 mm 0,5 UV-I 186 W/m 3,5 C 7,6 C 6,4 km/h (2 Bft) 93,62 %
10.02.2019 14:20 7,6 C 3,9 C 10,6 C 75 % 1002,7 hPa 0,0 l/m 4,7 km/h (1 Bft) O 87 0 min 0,000 mm 0,2 UV-I 192 W/m 3,5 C 7,6 C 8,0 km/h (2 Bft) 93,62 %
10.02.2019 14:22 7,6 C 3,9 C 10,6 C 75 % 1002,6 hPa 0,0 l/m 6,2 km/h (2 Bft) SO 124 0 min 0,000 mm 0,0 UV-I 197 W/m 3,5 C 7,6 C 9,7 km/h (2 Bft) 93,62 %
10.02.2019 14:24 7,6 C 3,9 C 10,6 C 75 % 1002,6 hPa 0,0 l/m 8,0 km/h (2 Bft) SO 136 0 min 0,000 mm 0,0 UV-I 190 W/m 3,5 C 6,3 C 12,9 km/h (3 Bft) 97,87 %
10.02.2019 14:26 7,7 C 3,9 C 10,6 C 75 % 1002,5 hPa 0,0 l/m 6,6 km/h (2 Bft) O-SO 113 2 min 0,000 mm 0,3 UV-I 223 W/m 3,6 C 7,6 C 11,3 km/h (2 Bft) 97,92 %
10.02.2019 14:28 7,7 C 3,9 C 10,6 C 75 % 1002,5 hPa 0,0 l/m 7,9 km/h (2 Bft) O-SO 112 2 min 0,000 mm 0,5 UV-I 250 W/m 3,6 C 6,5 C 12,9 km/h (3 Bft) 95,74 %
10.02.2019 14:30 7,8 C 3,9 C 10,6 C 76 % 1002,4 hPa 0,0 l/m 4,5 km/h (1 Bft) O 82 2 min 0,000 mm 0,5 UV-I 265 W/m 3,8 C 7,8 C 6,4 km/h (2 Bft) 97,87 %
10.02.2019 14:32 7,9 C 3,9 C 11,1 C 74 % 1002,4 hPa 0,0 l/m 4,2 km/h (1 Bft) O-SO 114 2 min 0,000 mm 0,5 UV-I 254 W/m 3,6 C 7,9 C 9,7 km/h (2 Bft) 95,74 %
10.02.2019 14:34 7,9 C 3,9 C 10,6 C 74 % 1002,4 hPa 0,0 l/m 5,1 km/h (1 Bft) O-NO 78 0 min 0,000 mm 0,5 UV-I 190 W/m 3,6 C 7,9 C 9,7 km/h (2 Bft) 97,37 %
10.02.2019 14:36 7,9 C 3,9 C 10,0 C 74 % 1002,3 hPa 0,0 l/m 5,2 km/h (1 Bft) O 93 0 min 0,000 mm 0,0 UV-I 147 W/m 3,6 C 7,9 C 14,5 km/h (3 Bft) 97,87 %
10.02.2019 14:38 7,8 C 3,9 C 9,4 C 74 % 1002,2 hPa 0,0 l/m 9,6 km/h (2 Bft) O 93 0 min 0,000 mm 0,0 UV-I 146 W/m 3,5 C 5,4 C 14,5 km/h (3 Bft) 95,74 %
10.02.2019 14:40 7,8 C 3,9 C 8,9 C 74 % 1002,1 hPa 0,0 l/m 8,9 km/h (2 Bft) O 90 0 min 0,000 mm 0,0 UV-I 168 W/m 3,5 C 5,9 C 14,5 km/h (3 Bft) 98,00 %
10.02.2019 14:42 7,8 C 3,9 C 8,9 C 75 % 1002,0 hPa 0,0 l/m 6,5 km/h (2 Bft) O 93 2 min 0,000 mm 0,5 UV-I 215 W/m 3,7 C 7,7 C 11,3 km/h (2 Bft) 93,62 %
10.02.2019 14:44 7,8 C 3,9 C 8,3 C 76 % 1002,0 hPa 0,0 l/m 7,1 km/h (2 Bft) O-NO 76 2 min 0,000 mm 0,5 UV-I 276 W/m 3,8 C 7,2 C 11,3 km/h (2 Bft) 97,87 %
10.02.2019 14:46 7,8 C 3,9 C 8,3 C 76 % 1001,9 hPa 0,0 l/m 9,9 km/h (2 Bft) O 89 2 min 0,000 mm 0,5 UV-I 261 W/m 3,8 C 5,2 C 16,1 km/h (3 Bft) 97,87 %
10.02.2019 14:48 7,8 C 3,9 C 8,3 C 76 % 1001,8 hPa 0,0 l/m 11,6 km/h (2 Bft) O 88 2 min 0,000 mm 0,5 UV-I 266 W/m 3,8 C 4,2 C 17,7 km/h (3 Bft) 96,00 %
10.02.2019 14:50 7,8 C 3,9 C 8,3 C 76 % 1001,9 hPa 0,0 l/m 10,8 km/h (2 Bft) O 90 2 min 0,000 mm 0,5 UV-I 268 W/m 3,8 C 4,7 C 12,9 km/h (3 Bft) 97,37 %
10.02.2019 14:52 7,9 C 3,9 C 8,3 C 76 % 1001,8 hPa 0,0 l/m 7,0 km/h (2 Bft) O-SO 109 2 min 0,000 mm 0,1 UV-I 256 W/m 3,9 C 7,4 C 11,3 km/h (2 Bft) 97,87 %
10.02.2019 14:54 7,9 C 3,9 C 8,3 C 76 % 1001,6 hPa 0,0 l/m 8,2 km/h (2 Bft) O 93 2 min 0,000 mm 0,0 UV-I 258 W/m 3,9 C 6,5 C 11,3 km/h (2 Bft) 100,00 %
10.02.2019 14:56 8,0 C 3,9 C 8,9 C 76 % 1001,7 hPa 0,0 l/m 6,4 km/h (2 Bft) O 101 2 min 0,000 mm 0,0 UV-I 254 W/m 4,0 C 8,0 C 9,7 km/h (2 Bft) 100,00 %
10.02.2019 14:58 7,9 C 3,9 C 8,9 C 76 % 1001,7 hPa 0,0 l/m 6,2 km/h (2 Bft) O 92 2 min 0,000 mm 0,0 UV-I 258 W/m 3,9 C 7,9 C 9,7 km/h (2 Bft) 97,87 %
10.02.2019 15:00 8,1 C 3,9 C 8,9 C 76 % 1001,8 hPa 0,0 l/m 5,1 km/h (1 Bft) O 101 2 min 0,102 mm 0,0 UV-I 256 W/m 4,1 C 8,1 C 6,4 km/h (2 Bft) 96,00 %
10.02.2019 15:02 8,2 C 3,9 C 8,9 C 76 % 1001,7 hPa 0,0 l/m 4,2 km/h (1 Bft) O-NO 78 2 min 0,000 mm 0,0 UV-I 252 W/m 4,2 C 8,2 C 8,0 km/h (2 Bft) 100,00 %
10.02.2019 15:04 8,2 C 3,9 C 8,9 C 76 % 1001,7 hPa 0,0 l/m 8,0 km/h (2 Bft) O-NO 74 2 min 0,000 mm 0,0 UV-I 222 W/m 4,2 C 7,0 C 12,9 km/h (3 Bft) 100,00 %
10.02.2019 15:06 8,2 C 3,9 C 8,9 C 76 % 1001,6 hPa 0,0 l/m 6,6 km/h (2 Bft) O-NO 65 2 min 0,000 mm 0,0 UV-I 233 W/m 4,2 C 8,1 C 12,9 km/h (3 Bft) 100,00 %
10.02.2019 15:08 8,2 C 3,9 C 8,9 C 76 % 1001,5 hPa 0,0 l/m 6,8 km/h (2 Bft) O-NO 66 2 min 0,000 mm 0,0 UV-I 209 W/m 4,2 C 7,9 C 12,9 km/h (3 Bft) 97,87 %
10.02.2019 15:10 8,2 C 3,9 C 8,3 C 76 % 1001,5 hPa 0,0 l/m 6,8 km/h (2 Bft) NO 47 2 min 0,000 mm 0,0 UV-I 206 W/m 4,2 C 7,9 C 11,3 km/h (2 Bft) 100,00 %
10.02.2019 15:12 8,2 C 3,9 C 8,3 C 76 % 1001,5 hPa 0,0 l/m 7,3 km/h (2 Bft) O-NO 75 2 min 0,000 mm 0,0 UV-I 212 W/m 4,2 C 7,5 C 16,1 km/h (3 Bft) 100,00 %
10.02.2019 15:14 8,2 C 3,9 C 8,3 C 75 % 1001,3 hPa 0,0 l/m 12,1 km/h (2 Bft) O 80 2 min 0,000 mm 0,0 UV-I 201 W/m 4,0 C 4,4 C 16,1 km/h (3 Bft) 100,00 %
10.02.2019 15:16 8,2 C 3,9 C 8,3 C 75 % 1001,3 hPa 0,0 l/m 9,6 km/h (2 Bft) O 80 2 min 0,000 mm 0,0 UV-I 192 W/m 4,0 C 5,9 C 14,5 km/h (3 Bft) 100,00 %
10.02.2019 15:18 8,2 C 3,9 C 8,3 C 75 % 1001,2 hPa 0,0 l/m 11,1 km/h (2 Bft) O 80 2 min 0,000 mm 0,0 UV-I 190 W/m 4,0 C 4,9 C 16,1 km/h (3 Bft) 95,74 %
10.02.2019 15:20 8,2 C 3,9 C 8,3 C 76 % 1001,2 hPa 0,0 l/m 8,4 km/h (2 Bft) O 89 2 min 0,000 mm 0,0 UV-I 192 W/m 4,2 C 6,7 C 12,9 km/h (3 Bft) 97,87 %
10.02.2019 15:22 8,2 C 3,9 C 7,8 C 76 % 1001,2 hPa 0,0 l/m 13,7 km/h (3 Bft) O-NO 73 2 min 0,000 mm 0,0 UV-I 186 W/m 4,2 C 3,6 C 17,7 km/h (3 Bft) 96,00 %
10.02.2019 15:24 8,1 C 3,9 C 7,8 C 75 % 1001,0 hPa 0,0 l/m 13,1 km/h (3 Bft) O-SO 107 2 min 0,000 mm 0,0 UV-I 192 W/m 3,9 C 3,7 C 19,3 km/h (3 Bft) 95,74 %
10.02.2019 15:26 8,2 C 3,9 C 7,8 C 75 % 1001,1 hPa 0,0 l/m 11,6 km/h (2 Bft) O 101 2 min 0,000 mm 0,0 UV-I 165 W/m 4,0 C 4,7 C 16,1 km/h (3 Bft) 98,00 %
10.02.2019 15:28 8,1 C 3,9 C 7,8 C 75 % 1001,1 hPa 0,0 l/m 10,4 km/h (2 Bft) O 87 2 min 0,000 mm 0,0 UV-I 191 W/m 3,9 C 5,2 C 14,5 km/h (3 Bft) 95,74 %
10.02.2019 15:30 8,1 C 3,9 C 7,8 C 74 % 1001,1 hPa 0,0 l/m 12,0 km/h (2 Bft) O 95 2 min 0,000 mm 0,0 UV-I 174 W/m 3,8 C 4,3 C 14,5 km/h (3 Bft) 94,74 %
10.02.2019 15:32 8,1 C 3,9 C 7,8 C 73 % 1001,0 hPa 0,0 l/m 10,4 km/h (2 Bft) O 93 0 min 0,000 mm 0,0 UV-I 109 W/m 3,6 C 5,2 C 14,5 km/h (3 Bft) 96,00 %
10.02.2019 15:34 8,1 C 3,9 C 7,8 C 74 % 1001,0 hPa 0,0 l/m 11,0 km/h (2 Bft) O-NO 77 0 min 0,000 mm 0,0 UV-I 96 W/m 3,8 C 4,9 C 14,5 km/h (3 Bft) 97,87 %
10.02.2019 15:36 7,9 C 3,9 C 7,8 C 74 % 1001,0 hPa 0,0 l/m 8,3 km/h (2 Bft) O 94 0 min 0,000 mm 0,0 UV-I 98 W/m 3,6 C 6,4 C 11,3 km/h (2 Bft) 97,87 %
10.02.2019 15:38 7,8 C 3,9 C 7,8 C 75 % 1001,0 hPa 0,0 l/m 10,9 km/h (2 Bft) O-NO 67 0 min 0,000 mm 0,0 UV-I 103 W/m 3,7 C 4,6 C 14,5 km/h (3 Bft) 95,74 %
10.02.2019 15:40 7,7 C 3,9 C 7,8 C 76 % 1000,9 hPa 0,0 l/m 11,5 km/h (2 Bft) O-NO 57 0 min 0,000 mm 0,0 UV-I 107 W/m 3,7 C 4,1 C 16,1 km/h (3 Bft) 100,00 %
10.02.2019 15:42 7,6 C 3,9 C 7,8 C 76 % 1001,0 hPa 0,0 l/m 9,2 km/h (2 Bft) O-NO 69 0 min 0,000 mm 0,0 UV-I 113 W/m 3,6 C 5,5 C 14,5 km/h (3 Bft) 100,00 %
10.02.2019 15:44 7,6 C 3,9 C 7,8 C 76 % 1000,9 hPa 0,0 l/m 8,5 km/h (2 Bft) O-NO 74 0 min 0,000 mm 0,0 UV-I 108 W/m 3,6 C 6,0 C 14,5 km/h (3 Bft) 97,87 %
10.02.2019 15:46 7,6 C 3,9 C 7,8 C 76 % 1000,9 hPa 0,0 l/m 12,3 km/h (3 Bft) O-NO 72 0 min 0,000 mm 0,0 UV-I 109 W/m 3,6 C 3,6 C 16,1 km/h (3 Bft) 97,56 %
10.02.2019 15:48 7,5 C 3,9 C 7,8 C 76 % 1001,0 hPa 0,0 l/m 10,5 km/h (2 Bft) O-NO 74 0 min 0,000 mm 0,0 UV-I 107 W/m 3,5 C 4,5 C 16,1 km/h (3 Bft) 97,87 %
10.02.2019 15:50 7,4 C 3,9 C 7,8 C 76 % 1001,0 hPa 0,0 l/m 8,0 km/h (2 Bft) O 88 0 min 0,000 mm 0,0 UV-I 100 W/m 3,5 C 6,1 C 12,9 km/h (3 Bft) 97,87 %
10.02.2019 15:52 7,4 C 3,9 C 7,8 C 76 % 1001,0 hPa 0,0 l/m 6,5 km/h (2 Bft) O-NO 68 0 min 0,000 mm 0,0 UV-I 93 W/m 3,5 C 7,3 C 11,3 km/h (2 Bft) 100,00 %
10.02.2019 15:54 7,3 C 3,9 C 7,8 C 76 % 1000,9 hPa 0,0 l/m 8,3 km/h (2 Bft) O-NO 70 0 min 0,000 mm 0,0 UV-I 90 W/m 3,4 C 5,8 C 12,9 km/h (3 Bft) 97,87 %
10.02.2019 15:56 7,3 C 3,9 C 7,2 C 76 % 1001,0 hPa 0,0 l/m 5,3 km/h (1 Bft) O-NO 61 0 min 0,000 mm 0,0 UV-I 84 W/m 3,4 C 7,3 C 8,0 km/h (2 Bft) 100,00 %
10.02.2019 15:58 7,2 C 3,9 C 7,2 C 77 % 1000,9 hPa 0,0 l/m 6,9 km/h (2 Bft) O-NO 64 0 min 0,000 mm 0,0 UV-I 80 W/m 3,4 C 6,8 C 11,3 km/h (2 Bft) 98,00 %
10.02.2019 16:00 7,2 C 3,9 C 7,2 C 76 % 1001,0 hPa 0,0 l/m 6,3 km/h (2 Bft) O-NO 71 0 min 0,000 mm 0,0 UV-I 79 W/m 3,3 C 7,2 C 9,7 km/h (2 Bft) 100,00 %
10.02.2019 16:02 7,1 C 3,9 C 7,2 C 77 % 1001,0 hPa 0,0 l/m 7,9 km/h (2 Bft) NO 55 0 min 0,076 mm 0,0 UV-I 76 W/m 3,3 C 5,9 C 14,5 km/h (3 Bft) 95,74 %
10.02.2019 16:04 7,0 C 3,9 C 7,2 C 77 % 1000,9 hPa 0,0 l/m 7,8 km/h (2 Bft) O-NO 58 0 min 0,000 mm 0,0 UV-I 72 W/m 3,2 C 5,9 C 11,3 km/h (2 Bft) 100,00 %
10.02.2019 16:06 7,0 C 3,9 C 7,2 C 76 % 1000,8 hPa 0,0 l/m 9,0 km/h (2 Bft) O 80 0 min 0,000 mm 0,0 UV-I 68 W/m 3,1 C 5,0 C 12,9 km/h (3 Bft) 100,00 %
10.02.2019 16:08 7,0 C 3,9 C 6,7 C 76 % 1000,8 hPa 0,0 l/m 9,5 km/h (2 Bft) NO 54 0 min 0,000 mm 0,0 UV-I 65 W/m 3,1 C 4,6 C 14,5 km/h (3 Bft) 97,87 %
10.02.2019 16:10 6,9 C 3,9 C 6,7 C 77 % 1000,8 hPa 0,0 l/m 9,6 km/h (2 Bft) O-NO 71 0 min 0,000 mm 0,0 UV-I 65 W/m 3,2 C 4,4 C 12,9 km/h (3 Bft) 100,00 %
10.02.2019 16:12 6,8 C 3,9 C 6,7 C 77 % 1000,6 hPa 0,0 l/m 11,8 km/h (2 Bft) O-NO 78 0 min 0,000 mm 0,0 UV-I 63 W/m 3,1 C 2,9 C 14,5 km/h (3 Bft) 100,00 %
10.02.2019 16:14 6,7 C 3,9 C 6,7 C 78 % 1000,6 hPa 0,0 l/m 11,2 km/h (2 Bft) O-NO 66 0 min 0,000 mm 0,0 UV-I 59 W/m 3,1 C 3,2 C 14,5 km/h (3 Bft) 100,00 %
10.02.2019 16:16 6,5 C 3,9 C 6,1 C 78 % 1000,5 hPa 0,0 l/m 12,1 km/h (2 Bft) O-NO 74 0 min 0,000 mm 0,0 UV-I 56 W/m 2,9 C 2,4 C 16,1 km/h (3 Bft) 100,00 %
10.02.2019 16:18 6,4 C 3,9 C 6,1 C 79 % 1000,4 hPa 0,0 l/m 12,8 km/h (3 Bft) O-NO 75 0 min 0,000 mm 0,0 UV-I 54 W/m 3,0 C 1,9 C 16,1 km/h (3 Bft) 100,00 %
10.02.2019 16:20 6,3 C 3,9 C 6,1 C 79 % 1000,4 hPa 0,0 l/m 11,5 km/h (2 Bft) O-NO 65 0 min 0,000 mm 0,0 UV-I 52 W/m 2,9 C 2,6 C 16,1 km/h (3 Bft) 97,87 %
10.02.2019 16:22 6,2 C 3,9 C 5,6 C 80 % 1000,3 hPa 0,0 l/m 10,3 km/h (2 Bft) O-NO 70 0 min 0,000 mm 0,0 UV-I 47 W/m 3,0 C 3,2 C 16,1 km/h (3 Bft) 97,87 %
10.02.2019 16:24 6,1 C 3,9 C 5,6 C 80 % 1000,3 hPa 0,0 l/m 10,5 km/h (2 Bft) O 79 0 min 0,000 mm 0,0 UV-I 44 W/m 2,9 C 3,0 C 14,5 km/h (3 Bft) 95,74 %
10.02.2019 16:26 6,1 C 3,9 C 5,6 C 80 % 1000,2 hPa 0,0 l/m 11,7 km/h (2 Bft) O 93 0 min 0,000 mm 0,0 UV-I 40 W/m 2,9 C 2,2 C 16,1 km/h (3 Bft) 93,62 %
10.02.2019 16:28 6,0 C 3,9 C 5,6 C 80 % 1000,2 hPa 0,0 l/m 13,4 km/h (3 Bft) O-NO 72 0 min 0,000 mm 0,0 UV-I 38 W/m 2,8 C 1,1 C 17,7 km/h (3 Bft) 97,87 %
10.02.2019 16:30 5,9 C 3,9 C 5,0 C 80 % 1000,1 hPa 0,0 l/m 14,2 km/h (3 Bft) O 86 0 min 0,000 mm 0,0 UV-I 37 W/m 2,7 C 0,6 C 20,9 km/h (4 Bft) 98,00 %
10.02.2019 16:32 5,9 C 3,9 C 5,0 C 80 % 1000,0 hPa 0,0 l/m 15,5 km/h (3 Bft) O 88 0 min 0,000 mm 0,0 UV-I 37 W/m 2,7 C -0,1 C 19,3 km/h (3 Bft) 97,87 %
10.02.2019 16:34 5,9 C 3,9 C 5,0 C 80 % 1000,0 hPa 0,0 l/m 14,7 km/h (3 Bft) O-SO 119 0 min 0,000 mm 0,0 UV-I 39 W/m 2,7 C 0,3 C 19,3 km/h (3 Bft) 95,74 %
10.02.2019 16:36 5,8 C 3,9 C 5,0 C 80 % 999,9 hPa 0,0 l/m 13,9 km/h (3 Bft) O-SO 104 0 min 0,000 mm 0,0 UV-I 37 W/m 2,6 C 0,6 C 20,9 km/h (4 Bft) 95,74 %
10.02.2019 16:38 5,8 C 3,9 C 5,0 C 80 % 999,9 hPa 0,0 l/m 14,0 km/h (3 Bft) O-SO 103 0 min 0,000 mm 0,0 UV-I 34 W/m 2,6 C 0,6 C 19,3 km/h (3 Bft) 93,62 %
10.02.2019 16:40 5,8 C 3,9 C 5,0 C 80 % 999,8 hPa 0,0 l/m 11,5 km/h (2 Bft) O 79 0 min 0,000 mm 0,0 UV-I 30 W/m 2,6 C 2,0 C 16,1 km/h (3 Bft) 94,00 %
10.02.2019 16:42 5,8 C 3,9 C 5,0 C 80 % 999,8 hPa 0,0 l/m 11,9 km/h (2 Bft) O-SO 119 0 min 0,000 mm 0,0 UV-I 26 W/m 2,6 C 1,7 C 16,1 km/h (3 Bft) 93,62 %
10.02.2019 16:44 5,8 C 3,9 C 5,0 C 80 % 999,7 hPa 0,0 l/m 11,2 km/h (2 Bft) O 96 0 min 0,000 mm 0,0 UV-I 24 W/m 2,6 C 2,2 C 14,5 km/h (3 Bft) 93,48 %
10.02.2019 16:46 5,7 C 3,9 C 5,0 C 80 % 999,7 hPa 0,0 l/m 9,0 km/h (2 Bft) O 101 0 min 0,000 mm 0,0 UV-I 22 W/m 2,5 C 3,6 C 16,1 km/h (3 Bft) 95,74 %
10.02.2019 16:48 5,6 C 3,9 C 5,0 C 81 % 999,7 hPa 0,0 l/m 9,6 km/h (2 Bft) O 89 0 min 0,000 mm 0,0 UV-I 21 W/m 2,6 C 3,0 C 17,7 km/h (3 Bft) 92,11 %
10.02.2019 16:50 5,5 C 3,9 C 5,0 C 80 % 999,6 hPa 0,0 l/m 17,7 km/h (3 Bft) O-SO 102 0 min 0,000 mm 0,0 UV-I 21 W/m 2,3 C -1,6 C 24,1 km/h (4 Bft) 96,00 %
10.02.2019 16:52 5,5 C 3,9 C 5,0 C 80 % 999,6 hPa 0,0 l/m 13,9 km/h (3 Bft) O 101 0 min 0,000 mm 0,0 UV-I 19 W/m 2,3 C 0,3 C 19,3 km/h (3 Bft) 95,74 %
10.02.2019 16:54 5,4 C 3,9 C 5,0 C 80 % 999,6 hPa 0,0 l/m 13,7 km/h (3 Bft) O-SO 112 0 min 0,000 mm 0,0 UV-I 19 W/m 2,2 C 0,2 C 20,9 km/h (4 Bft) 97,92 %
10.02.2019 16:56 5,4 C 3,9 C 4,4 C 80 % 999,6 hPa 0,0 l/m 16,0 km/h (3 Bft) O-SO 103 0 min 0,000 mm 0,0 UV-I 16 W/m 2,2 C -0,9 C 24,1 km/h (4 Bft) 92,11 %
10.02.2019 16:58 5,4 C 3,9 C 4,4 C 80 % 999,5 hPa 0,0 l/m 16,8 km/h (3 Bft) O-SO 114 0 min 0,000 mm 0,0 UV-I 13 W/m 2,2 C -1,3 C 22,5 km/h (4 Bft) 96,00 %
10.02.2019 17:00 5,4 C 3,9 C 4,4 C 80 % 999,5 hPa 0,0 l/m 13,2 km/h (3 Bft) O 90 0 min 0,000 mm 0,0 UV-I 12 W/m 2,2 C 0,5 C 19,3 km/h (3 Bft) 100,00 %
10.02.2019 17:02 5,3 C 3,9 C 4,4 C 80 % 999,5 hPa 0,0 l/m 13,1 km/h (3 Bft) O-NO 75 0 min 0,051 mm 0,0 UV-I 11 W/m 2,1 C 0,5 C 19,3 km/h (3 Bft) 98,00 %
10.02.2019 17:04 5,2 C 3,9 C 4,4 C 81 % 999,4 hPa 0,0 l/m 13,0 km/h (3 Bft) O-SO 106 0 min 0,000 mm 0,0 UV-I 11 W/m 2,2 C 0,4 C 17,7 km/h (3 Bft) 94,00 %
10.02.2019 17:06 5,1 C 3,9 C 4,4 C 81 % 999,5 hPa 0,0 l/m 10,8 km/h (2 Bft) O 100 2 min 0,000 mm 0,0 UV-I 12 W/m 2,1 C 1,6 C 14,5 km/h (3 Bft) 97,87 %
10.02.2019 17:08 5,0 C 3,9 C 4,4 C 81 % 999,4 hPa 0,0 l/m 9,6 km/h (2 Bft) O-NO 73 0 min 0,000 mm 0,0 UV-I 11 W/m 2,0 C 2,4 C 14,5 km/h (3 Bft) 100,00 %
10.02.2019 17:10 5,0 C 3,9 C 3,9 C 82 % 999,4 hPa 0,0 l/m 9,4 km/h (2 Bft) O-NO 76 0 min 0,000 mm 0,0 UV-I 9 W/m 2,2 C 2,5 C 12,9 km/h (3 Bft) 100,00 %
10.02.2019 17:12 4,9 C 3,9 C 3,9 C 82 % 999,3 hPa 0,0 l/m 8,1 km/h (2 Bft) O-NO 76 0 min 0,000 mm 0,0 UV-I 7 W/m 2,1 C 3,4 C 12,9 km/h (3 Bft) 95,74 %
10.02.2019 17:14 4,9 C 3,9 C 3,9 C 83 % 999,4 hPa 0,0 l/m 8,9 km/h (2 Bft) O 81 0 min 0,000 mm 0,0 UV-I 7 W/m 2,3 C 2,8 C 12,9 km/h (3 Bft) 97,87 %
10.02.2019 17:16 4,8 C 3,9 C 3,9 C 83 % 999,4 hPa 0,0 l/m 9,7 km/h (2 Bft) O-NO 67 0 min 0,000 mm 0,0 UV-I 7 W/m 2,2 C 2,1 C 16,1 km/h (3 Bft) 100,00 %
10.02.2019 17:18 4,7 C 3,9 C 3,9 C 83 % 999,4 hPa 0,0 l/m 13,1 km/h (3 Bft) O-NO 59 0 min 0,000 mm 0,0 UV-I 5 W/m 2,1 C -0,2 C 17,7 km/h (3 Bft) 100,00 %
10.02.2019 17:20 4,7 C 3,9 C 3,9 C 84 % 999,5 hPa 0,0 l/m 6,3 km/h (2 Bft) O-NO 70 0 min 0,000 mm 0,0 UV-I 5 W/m 2,2 C 4,7 C 12,9 km/h (3 Bft) 97,87 %
10.02.2019 17:22 4,7 C 3,9 C 3,9 C 84 % 999,5 hPa 0,0 l/m 8,9 km/h (2 Bft) NO 50 0 min 0,000 mm 0,0 UV-I 5 W/m 2,2 C 2,6 C 12,9 km/h (3 Bft) 100,00 %
10.02.2019 17:24 4,6 C 3,9 C 3,9 C 84 % 999,4 hPa 0,0 l/m 10,0 km/h (2 Bft) O-NO 76 0 min 0,000 mm 0,0 UV-I 2 W/m 2,1 C 1,6 C 16,1 km/h (3 Bft) 100,00 %
10.02.2019 17:26 4,6 C 3,9 C 3,9 C 84 % 999,4 hPa 0,0 l/m 10,8 km/h (2 Bft) O-NO 63 0 min 0,000 mm 0,0 UV-I 0 W/m 2,1 C 1,1 C 16,1 km/h (3 Bft) 100,00 %
10.02.2019 17:28 4,6 C 3,9 C 3,9 C 84 % 999,3 hPa 0,0 l/m 11,1 km/h (2 Bft) O-NO 64 0 min 0,000 mm 0,0 UV-I 0 W/m 2,1 C 0,9 C 16,1 km/h (3 Bft) 97,87 %
10.02.2019 17:30 4,5 C 3,9 C 3,9 C 84 % 999,3 hPa 0,0 l/m 9,3 km/h (2 Bft) NO 53 0 min 0,000 mm 0,0 UV-I 0 W/m 2,0 C 2,0 C 12,9 km/h (3 Bft) 97,87 %
10.02.2019 17:32 4,4 C 3,9 C 3,9 C 84 % 999,2 hPa 0,0 l/m 9,1 km/h (2 Bft) O-NO 74 0 min 0,000 mm 0,0 UV-I 0 W/m 1,9 C 2,1 C 14,5 km/h (3 Bft) 93,75 %
10.02.2019 17:34 4,4 C 3,9 C 3,9 C 84 % 999,2 hPa 0,0 l/m 12,4 km/h (3 Bft) O-NO 67 0 min 0,000 mm 0,0 UV-I 0 W/m 1,9 C -0,2 C 20,9 km/h (4 Bft) 95,65 %
10.02.2019 17:36 4,3 C 3,9 C 3,9 C 85 % 999,2 hPa 0,0 l/m 13,7 km/h (3 Bft) O 88 0 min 0,000 mm 0,0 UV-I 0 W/m 2,0 C -1,1 C 20,9 km/h (4 Bft) 95,83 %
10.02.2019 17:38 4,3 C 3,9 C 3,9 C 85 % 999,1 hPa 0,0 l/m 13,1 km/h (3 Bft) O-NO 78 0 min 0,000 mm 0,0 UV-I 0 W/m 2,0 C -0,7 C 19,3 km/h (3 Bft) 97,56 %
10.02.2019 17:40 4,2 C 3,9 C 3,9 C 85 % 999,1 hPa 0,0 l/m 14,6 km/h (3 Bft) O-NO 76 0 min 0,000 mm 0,0 UV-I 0 W/m 1,9 C -1,7 C 19,3 km/h (3 Bft) 91,49 %
10.02.2019 17:42 4,2 C 3,9 C 3,9 C 85 % 999,0 hPa 0,0 l/m 15,2 km/h (3 Bft) NO 34 0 min 0,000 mm 0,0 UV-I 0 W/m 1,9 C -2,0 C 20,9 km/h (4 Bft) 95,74 %
10.02.2019 17:44 4,1 C 3,9 C 3,3 C 85 % 999,0 hPa 0,0 l/m 18,2 km/h (3 Bft) O-NO 74 0 min 0,000 mm 0,0 UV-I 0 W/m 1,8 C -3,6 C 22,5 km/h (4 Bft) 91,49 %
10.02.2019 17:46 4,0 C 3,9 C 3,3 C 85 % 999,0 hPa 0,0 l/m 16,2 km/h (3 Bft) O-NO 61 0 min 0,000 mm 0,0 UV-I 0 W/m 1,7 C -2,8 C 24,1 km/h (4 Bft) 95,74 %
10.02.2019 17:48 3,9 C 3,9 C 3,3 C 86 % 999,0 hPa 0,0 l/m 15,4 km/h (3 Bft) O-NO 64 0 min 0,000 mm 0,0 UV-I 0 W/m 1,8 C -2,5 C 22,5 km/h (4 Bft) 97,87 %
10.02.2019 17:50 3,8 C 3,9 C 3,3 C 86 % 998,9 hPa 0,0 l/m 16,2 km/h (3 Bft) O-NO 69 0 min 0,000 mm 0,0 UV-I 0 W/m 1,7 C -3,0 C 20,9 km/h (4 Bft) 97,87 %
10.02.2019 17:52 3,9 C 3,9 C 3,3 C 86 % 998,8 hPa 0,0 l/m 17,5 km/h (3 Bft) O 91 0 min 0,000 mm 0,0 UV-I 0 W/m 1,8 C -3,5 C 24,1 km/h (4 Bft) 97,87 %
10.02.2019 17:54 3,8 C 3,9 C 3,3 C 86 % 998,7 hPa 0,0 l/m 16,2 km/h (3 Bft) O 94 0 min 0,000 mm 0,0 UV-I 0 W/m 1,7 C -3,0 C 22,5 km/h (4 Bft) 97,87 %
10.02.2019 17:56 3,8 C 3,9 C 3,3 C 86 % 998,8 hPa 0,0 l/m 14,9 km/h (3 Bft) O 91 0 min 0,000 mm 0,0 UV-I 0 W/m 1,7 C -2,3 C 19,3 km/h (3 Bft) 95,74 %
10.02.2019 17:58 3,8 C 3,9 C 3,3 C 86 % 999,0 hPa 0,0 l/m 9,5 km/h (2 Bft) O-NO 59 0 min 0,000 mm 0,0 UV-I 0 W/m 1,7 C 1,1 C 16,1 km/h (3 Bft) 93,62 %
10.02.2019 18:00 3,8 C 3,9 C 3,3 C 86 % 999,1 hPa 0,0 l/m 6,2 km/h (2 Bft) NO 42 0 min 0,000 mm 0,0 UV-I 0 W/m 1,7 C 3,8 C 11,3 km/h (2 Bft) 93,62 %
10.02.2019 18:02 3,7 C 3,9 C 2,8 C 86 % 999,2 hPa 0,0 l/m 5,2 km/h (1 Bft) NO 36 0 min 0,025 mm 0,0 UV-I 0 W/m 1,6 C 3,7 C 6,4 km/h (2 Bft) 94,00 %
10.02.2019 18:04 3,4 C 3,9 C 2,8 C 86 % 999,3 hPa 0,0 l/m 6,1 km/h (2 Bft) O-NO 61 0 min 0,000 mm 0,0 UV-I 0 W/m 1,3 C 3,4 C 8,0 km/h (2 Bft) 93,62 %
10.02.2019 18:06 3,4 C 3,9 C 2,8 C 87 % 999,3 hPa 0,0 l/m 7,7 km/h (2 Bft) O-NO 73 0 min 0,000 mm 0,0 UV-I 0 W/m 1,4 C 2,2 C 11,3 km/h (2 Bft) 95,74 %
10.02.2019 18:08 3,5 C 3,9 C 2,8 C 88 % 999,3 hPa 0,0 l/m 7,5 km/h (2 Bft) O 94 0 min 0,000 mm 0,0 UV-I 0 W/m 1,7 C 2,5 C 12,9 km/h (3 Bft) 95,74 %
10.02.2019 18:10 3,6 C 3,9 C 2,8 C 88 % 999,4 hPa 0,0 l/m 6,4 km/h (2 Bft) O-NO 67 0 min 0,000 mm 0,0 UV-I 0 W/m 1,8 C 3,6 C 9,7 km/h (2 Bft) 93,62 %
10.02.2019 18:12 3,6 C 3,9 C 2,8 C 87 % 999,3 hPa 0,0 l/m 5,1 km/h (1 Bft) NO 53 0 min 0,000 mm 0,0 UV-I 0 W/m 1,6 C 3,6 C 6,4 km/h (2 Bft) 95,74 %
10.02.2019 18:14 3,5 C 3,9 C 2,8 C 87 % 999,4 hPa 0,0 l/m 5,0 km/h (1 Bft) O-NO 60 0 min 0,000 mm 0,0 UV-I 0 W/m 1,5 C 3,5 C 6,4 km/h (2 Bft) 93,75 %
10.02.2019 18:16 3,4 C 3,9 C 2,8 C 87 % 999,4 hPa 0,0 l/m 6,9 km/h (2 Bft) O-NO 66 0 min 0,000 mm 0,0 UV-I 0 W/m 1,4 C 2,9 C 9,7 km/h (2 Bft) 94,74 %
10.02.2019 18:18 3,4 C 3,9 C 2,8 C 88 % 999,3 hPa 0,0 l/m 7,4 km/h (2 Bft) O-NO 70 0 min 0,000 mm 0,0 UV-I 0 W/m 1,6 C 2,5 C 11,3 km/h (2 Bft) 96,00 %
10.02.2019 18:20 3,5 C 3,9 C 2,8 C 88 % 999,3 hPa 0,0 l/m 8,4 km/h (2 Bft) O-SO 103 0 min 0,000 mm 0,0 UV-I 0 W/m 1,7 C 1,7 C 12,9 km/h (3 Bft) 97,87 %
10.02.2019 18:22 3,5 C 3,9 C 2,8 C 87 % 999,3 hPa 0,0 l/m 8,8 km/h (2 Bft) NO 56 0 min 0,000 mm 0,0 UV-I 0 W/m 1,5 C 1,4 C 12,9 km/h (3 Bft) 97,87 %
10.02.2019 18:24 3,5 C 3,9 C 2,8 C 87 % 999,4 hPa 0,0 l/m 6,2 km/h (2 Bft) O-NO 74 0 min 0,000 mm 0,0 UV-I 0 W/m 1,5 C 3,5 C 11,3 km/h (2 Bft) 91,49 %
10.02.2019 18:26 3,5 C 3,9 C 2,8 C 87 % 999,3 hPa 0,0 l/m 9,1 km/h (2 Bft) O 99 0 min 0,000 mm 0,0 UV-I 0 W/m 1,5 C 1,1 C 12,9 km/h (3 Bft) 94,00 %
10.02.2019 18:28 3,4 C 3,9 C 2,8 C 87 % 999,2 hPa 0,0 l/m 13,3 km/h (3 Bft) O 91 0 min 0,000 mm 0,0 UV-I 0 W/m 1,4 C -1,9 C 17,7 km/h (3 Bft) 95,74 %
10.02.2019 18:30 3,4 C 3,9 C 2,8 C 87 % 999,3 hPa 0,0 l/m 9,1 km/h (2 Bft) O-NO 67 0 min 0,000 mm 0,0 UV-I 0 W/m 1,4 C 1,0 C 12,9 km/h (3 Bft) 96,00 %
10.02.2019 18:32 3,4 C 3,9 C 2,8 C 87 % 999,6 hPa 0,0 l/m 3,7 km/h (1 Bft) O 101 0 min 0,000 mm 0,0 UV-I 0 W/m 1,4 C 3,4 C 9,7 km/h (2 Bft) 94,74 %
10.02.2019 18:34 3,4 C 3,9 C 2,8 C 87 % 999,6 hPa 0,0 l/m 3,6 km/h (1 Bft) NO 37 0 min 0,000 mm 0,0 UV-I 0 W/m 1,4 C 3,4 C 4,8 km/h (1 Bft) 95,74 %
10.02.2019 18:36 3,3 C 3,9 C 2,8 C 88 % 999,5 hPa 0,0 l/m 4,7 km/h (1 Bft) NO 43 0 min 0,000 mm 0,0 UV-I 0 W/m 1,5 C 3,3 C 9,7 km/h (2 Bft) 91,49 %
10.02.2019 18:38 3,2 C 3,9 C 2,8 C 87 % 999,5 hPa 0,0 l/m 8,4 km/h (2 Bft) NO 36 0 min 0,000 mm 0,0 UV-I 0 W/m 1,2 C 1,4 C 9,7 km/h (2 Bft) 95,74 %
10.02.2019 18:40 3,1 C 3,9 C 2,8 C 88 % 999,5 hPa 0,0 l/m 7,0 km/h (2 Bft) N-NO 25 0 min 0,000 mm 0,0 UV-I 0 W/m 1,3 C 2,5 C 9,7 km/h (2 Bft) 97,87 %
10.02.2019 18:42 3,0 C 3,9 C 2,8 C 88 % 999,5 hPa 0,0 l/m 5,9 km/h (2 Bft) NO 55 0 min 0,000 mm 0,0 UV-I 0 W/m 1,2 C 3,0 C 11,3 km/h (2 Bft) 93,62 %
10.02.2019 18:44 3,1 C 3,9 C 2,8 C 89 % 999,3 hPa 0,0 l/m 9,9 km/h (2 Bft) O 82 0 min 0,000 mm 0,0 UV-I 0 W/m 1,5 C 0,0 C 12,9 km/h (3 Bft) 97,87 %
10.02.2019 18:46 3,2 C 3,9 C 2,8 C 89 % 999,2 hPa 0,0 l/m 10,6 km/h (2 Bft) O 80 0 min 0,000 mm 0,0 UV-I 0 W/m 1,6 C -0,4 C 14,5 km/h (3 Bft) 95,74 %
10.02.2019 18:48 3,2 C 3,9 C 2,8 C 89 % 999,2 hPa 0,0 l/m 10,3 km/h (2 Bft) NO 46 0 min 0,000 mm 0,0 UV-I 0 W/m 1,6 C -0,1 C 14,5 km/h (3 Bft) 97,87 %
10.02.2019 18:50 3,2 C 3,9 C 2,8 C 88 % 999,3 hPa 0,0 l/m 6,8 km/h (2 Bft) NO 55 0 min 0,000 mm 0,0 UV-I 0 W/m 1,4 C 2,8 C 12,9 km/h (3 Bft) 96,23 %
10.02.2019 18:52 3,1 C 3,9 C 2,8 C 88 % 999,5 hPa 0,0 l/m 5,1 km/h (1 Bft) NO 50 0 min 0,000 mm 0,0 UV-I 0 W/m 1,3 C 3,1 C 8,0 km/h (2 Bft) 91,49 %
10.02.2019 18:54 3,1 C 3,9 C 2,8 C 88 % 999,5 hPa 0,0 l/m 2,2 km/h (1 Bft) NO 46 0 min 0,000 mm 0,0 UV-I 0 W/m 1,3 C 3,1 C 3,2 km/h (1 Bft) 95,83 %
10.02.2019 18:56 3,1 C 3,9 C 2,8 C 89 % 999,8 hPa 0,0 l/m 3,7 km/h (1 Bft) W-NW 296 0 min 0,000 mm 0,0 UV-I 0 W/m 1,5 C 3,1 C 4,8 km/h (1 Bft) 95,74 %
10.02.2019 18:59 3,1 C 3,9 C 2,8 C 89 % 999,7 hPa 0,0 l/m 3,7 km/h (1 Bft) O 96 0 min 0,000 mm 0,0 UV-I 0 W/m 1,5 C 3,1 C 9,7 km/h (2 Bft) 100,00 %
10.02.2019 19:00 3,2 C 3,9 C 2,8 C 89 % 999,7 hPa 0,0 l/m 9,0 km/h (2 Bft) O 89 0 min 0,000 mm 0,0 UV-I 0 W/m 1,6 C 0,9 C 11,3 km/h (2 Bft) 100,00 %
10.02.2019 19:02 3,2 C 3,9 C 2,8 C 89 % 999,4 hPa 0,0 l/m 8,9 km/h (2 Bft) O-SO 114 0 min 0,000 mm 0,0 UV-I 0 W/m 1,6 C 0,9 C 12,9 km/h (3 Bft) 97,87 %
10.02.2019 19:04 3,2 C 3,9 C 2,8 C 88 % 999,4 hPa 0,0 l/m 6,8 km/h (2 Bft) W-NW 297 0 min 0,000 mm 0,0 UV-I 0 W/m 1,4 C 2,8 C 14,5 km/h (3 Bft) 100,00 %
10.02.2019 19:06 3,1 C 3,9 C 2,8 C 89 % 1000,1 hPa 0,0 l/m 5,9 km/h (2 Bft) N-NO 13 0 min 0,000 mm 0,0 UV-I 0 W/m 1,5 C 3,1 C 12,9 km/h (3 Bft) 100,00 %
10.02.2019 19:09 3,1 C 3,9 C 2,8 C 89 % 999,7 hPa 0,0 l/m 8,1 km/h (2 Bft) N-NO 19 0 min 0,000 mm 0,0 UV-I 0 W/m 1,5 C 1,5 C 16,1 km/h (3 Bft) 94,29 %
10.02.2019 19:10 3,1 C 3,9 C 2,8 C 89 % 999,7 hPa 0,0 l/m 7,3 km/h (2 Bft) N-NW 329 0 min 0,000 mm 0,0 UV-I 0 W/m 1,5 C 2,2 C 9,7 km/h (2 Bft) 100,00 %
10.02.2019 19:12 3,1 C 3,9 C 2,8 C 89 % 999,9 hPa 0,0 l/m 4,3 km/h (1 Bft) W 277 0 min 0,000 mm 0,0 UV-I 0 W/m 1,5 C 3,1 C 8,0 km/h (2 Bft) 97,87 %
10.02.2019 19:14 3,1 C 3,9 C 2,8 C 89 % 999,6 hPa 0,0 l/m 5,9 km/h (2 Bft) O-NO 69 0 min 0,000 mm 0,0 UV-I 0 W/m 1,5 C 3,1 C 8,0 km/h (2 Bft) 96,00 %
10.02.2019 19:16 3,1 C 3,9 C 2,8 C 89 % 999,4 hPa 0,0 l/m 11,9 km/h (2 Bft) NO 37 0 min 0,000 mm 0,0 UV-I 0 W/m 1,5 C -1,4 C 16,1 km/h (3 Bft) 95,74 %
10.02.2019 19:18 3,1 C 3,9 C 2,8 C 89 % 999,3 hPa 0,0 l/m 14,2 km/h (3 Bft) O-NO 57 0 min 0,000 mm 0,0 UV-I 0 W/m 1,5 C -2,8 C 17,7 km/h (3 Bft) 96,00 %
10.02.2019 19:20 3,1 C 3,9 C 2,8 C 89 % 999,4 hPa 0,0 l/m 7,4 km/h (2 Bft) W 268 0 min 0,000 mm 0,0 UV-I 0 W/m 1,5 C 2,2 C 16,1 km/h (3 Bft) 95,74 %
10.02.2019 19:22 3,1 C 3,9 C 2,8 C 89 % 999,8 hPa 0,0 l/m 3,7 km/h (1 Bft) W 275 0 min 0,000 mm 0,0 UV-I 0 W/m 1,5 C 3,1 C 6,4 km/h (2 Bft) 93,62 %
10.02.2019 19:24 3,1 C 3,9 C 2,8 C 89 % 999,7 hPa 0,0 l/m 2,4 km/h (1 Bft) O-NO 63 0 min 0,000 mm 0,0 UV-I 0 W/m 1,5 C 3,1 C 4,8 km/h (1 Bft) 97,87 %
10.02.2019 19:26 3,1 C 3,9 C 2,8 C 89 % 999,7 hPa 0,0 l/m 5,3 km/h (1 Bft) O-NO 57 0 min 0,000 mm 0,0 UV-I 0 W/m 1,5 C 3,1 C 8,0 km/h (2 Bft) 97,87 %
10.02.2019 19:28 3,0 C 3,9 C 2,8 C 89 % 999,7 hPa 0,0 l/m 3,2 km/h (1 Bft) NO 38 0 min 0,000 mm 0,0 UV-I 0 W/m 1,4 C 3,0 C 4,8 km/h (1 Bft) 95,74 %
10.02.2019 19:30 2,9 C 3,9 C 2,8 C 89 % 999,7 hPa 0,0 l/m 3,6 km/h (1 Bft) NO 49 0 min 0,000 mm 0,0 UV-I 0 W/m 1,3 C 2,9 C 6,4 km/h (2 Bft) 97,92 %
10.02.2019 19:32 2,9 C 3,9 C 2,8 C 89 % 999,6 hPa 0,0 l/m 5,2 km/h (1 Bft) O-NO 76 0 min 0,000 mm 0,0 UV-I 0 W/m 1,3 C 2,9 C 6,4 km/h (2 Bft) 97,87 %
10.02.2019 19:34 2,9 C 3,9 C 2,8 C 89 % 999,5 hPa 0,0 l/m 5,0 km/h (1 Bft) O 90 0 min 0,000 mm 0,0 UV-I 0 W/m 1,3 C 2,9 C 6,4 km/h (2 Bft) 97,87 %
10.02.2019 19:36 2,9 C 3,9 C 2,8 C 89 % 999,6 hPa 0,0 l/m 3,6 km/h (1 Bft) O-NO 69 0 min 0,000 mm 0,0 UV-I 0 W/m 1,3 C 2,9 C 6,4 km/h (2 Bft) 97,37 %
10.02.2019 19:38 2,9 C 3,9 C 2,8 C 89 % 999,5 hPa 0,0 l/m 6,8 km/h (2 Bft) O 96 0 min 0,000 mm 0,0 UV-I 0 W/m 1,3 C 2,5 C 14,5 km/h (3 Bft) 100,00 %
10.02.2019 19:40 2,8 C 3,9 C 2,8 C 89 % 999,4 hPa 0,0 l/m 10,9 km/h (2 Bft) SO 124 0 min 0,000 mm 0,0 UV-I 0 W/m 1,2 C -1,0 C 14,5 km/h (3 Bft) 97,87 %
10.02.2019 19:42 2,8 C 3,9 C 2,8 C 89 % 999,2 hPa 0,0 l/m 10,1 km/h (2 Bft) SO 128 0 min 0,000 mm 0,0 UV-I 0 W/m 1,2 C -0,4 C 14,5 km/h (3 Bft) 98,00 %
10.02.2019 19:44 2,8 C 3,9 C 2,8 C 89 % 999,2 hPa 0,0 l/m 9,1 km/h (2 Bft) O 96 0 min 0,000 mm 0,0 UV-I 0 W/m 1,2 C 0,4 C 14,5 km/h (3 Bft) 97,87 %
10.02.2019 19:46 2,8 C 3,9 C 2,8 C 89 % 999,3 hPa 0,0 l/m 6,6 km/h (2 Bft) O-SO 118 0 min 0,000 mm 0,0 UV-I 0 W/m 1,2 C 2,6 C 11,3 km/h (2 Bft) 100,00 %
10.02.2019 19:48 2,9 C 3,9 C 2,8 C 89 % 999,3 hPa 0,0 l/m 4,0 km/h (1 Bft) O-NO 69 0 min 0,000 mm 0,0 UV-I 0 W/m 1,3 C 2,9 C 8,0 km/h (2 Bft) 96,00 %
10.02.2019 19:50 2,9 C 3,9 C 2,8 C 89 % 999,3 hPa 0,0 l/m 3,7 km/h (1 Bft) O-SO 119 0 min 0,000 mm 0,0 UV-I 0 W/m 1,3 C 2,9 C 6,4 km/h (2 Bft) 100,00 %
10.02.2019 19:52 2,9 C 3,9 C 2,8 C 89 % 999,3 hPa 0,0 l/m 4,8 km/h (1 Bft) O-SO 123 0 min 0,000 mm 0,0 UV-I 0 W/m 1,3 C 2,9 C 6,4 km/h (2 Bft) 97,87 %
10.02.2019 19:55 2,9 C 3,9 C 2,8 C 89 % 999,5 hPa 0,0 l/m 4,8 km/h (1 Bft) O-SO 112 0 min 0,000 mm 0,0 UV-I 0 W/m 1,3 C 2,9 C 6,4 km/h (2 Bft) 99,12 %
10.02.2019 19:56 2,9 C 3,9 C 2,8 C 89 % 999,5 hPa 0,0 l/m 6,4 km/h (2 Bft) NO 51 0 min 0,000 mm 0,0 UV-I 0 W/m 1,3 C 2,9 C 8,0 km/h (2 Bft) 100,00 %
10.02.2019 19:58 2,8 C 3,9 C 2,8 C 89 % 999,4 hPa 0,0 l/m 8,3 km/h (2 Bft) O 96 0 min 0,000 mm 0,0 UV-I 0 W/m 1,2 C 1,0 C 12,9 km/h (3 Bft) 97,87 %
10.02.2019 20:00 2,8 C 3,9 C 2,8 C 89 % 999,5 hPa 0,0 l/m 11,0 km/h (2 Bft) O-SO 110 0 min 0,000 mm 0,0 UV-I 0 W/m 1,2 C -1,1 C 12,9 km/h (3 Bft) 100,00 %
10.02.2019 20:02 2,8 C 3,9 C 2,8 C 89 % 999,6 hPa 0,0 l/m 3,8 km/h (1 Bft) O-SO 117 0 min 0,000 mm 0,0 UV-I 0 W/m 1,2 C 2,8 C 11,3 km/h (2 Bft) 98,11 %
10.02.2019 20:04 2,8 C 3,9 C 2,8 C 89 % 999,6 hPa 0,0 l/m 1,8 km/h (1 Bft) SO 127 0 min 0,000 mm 0,0 UV-I 0 W/m 1,2 C 2,8 C 3,2 km/h (1 Bft) 100,00 %
10.02.2019 20:06 2,7 C 3,9 C 2,2 C 89 % 999,5 hPa 0,0 l/m 6,2 km/h (2 Bft) SO 128 0 min 0,000 mm 0,0 UV-I 0 W/m 1,1 C 2,7 C 14,5 km/h (3 Bft) 100,00 %
10.02.2019 20:08 2,8 C 3,9 C 2,8 C 89 % 999,3 hPa 0,0 l/m 14,7 km/h (3 Bft) SO 134 0 min 0,000 mm 0,0 UV-I 0 W/m 1,2 C -3,4 C 19,3 km/h (3 Bft) 100,00 %
10.02.2019 20:10 2,8 C 3,9 C 2,8 C 89 % 999,2 hPa 0,0 l/m 15,7 km/h (3 Bft) SO 142 0 min 0,000 mm 0,0 UV-I 0 W/m 1,2 C -4,0 C 20,9 km/h (4 Bft) 100,00 %
10.02.2019 20:12 2,8 C 3,9 C 2,8 C 89 % 999,4 hPa 0,0 l/m 6,6 km/h (2 Bft) NW 320 0 min 0,000 mm 0,0 UV-I 0 W/m 1,2 C 2,6 C 14,5 km/h (3 Bft) 100,00 %
10.02.2019 20:14 2,8 C 3,9 C 2,8 C 89 % 999,4 hPa 0,0 l/m 5,4 km/h (1 Bft) N-NW 337 0 min 0,000 mm 0,0 UV-I 0 W/m 1,2 C 2,8 C 8,0 km/h (2 Bft) 100,00 %
10.02.2019 20:16 2,7 C 3,9 C 2,2 C 89 % 999,5 hPa 0,0 l/m 4,4 km/h (1 Bft) NW 313 0 min 0,000 mm 0,0 UV-I 0 W/m 1,1 C 2,7 C 6,4 km/h (2 Bft) 100,00 %
10.02.2019 20:18 2,7 C 3,9 C 2,2 C 90 % 999,6 hPa 0,0 l/m 6,9 km/h (2 Bft) N-NW 328 0 min 0,000 mm 0,0 UV-I 0 W/m 1,2 C 2,2 C 11,3 km/h (2 Bft) 98,00 %
10.02.2019 20:20 2,7 C 3,9 C 2,2 C 90 % 999,6 hPa 0,0 l/m 4,3 km/h (1 Bft) SW 219 0 min 0,000 mm 0,0 UV-I 0 W/m 1,2 C 2,7 C 8,0 km/h (2 Bft) 100,00 %
10.02.2019 20:22 2,7 C 3,9 C 2,2 C 90 % 999,7 hPa 0,0 l/m 6,7 km/h (2 Bft) W-SW 253 0 min 0,000 mm 0,0 UV-I 0 W/m 1,2 C 2,4 C 9,7 km/h (2 Bft) 100,00 %
10.02.2019 20:24 2,8 C 3,9 C 2,2 C 90 % 999,7 hPa 0,0 l/m 7,8 km/h (2 Bft) S 179 0 min 0,000 mm 0,0 UV-I 0 W/m 1,3 C 1,5 C 11,3 km/h (2 Bft) 96,00 %
10.02.2019 20:26 2,8 C 3,9 C 2,2 C 90 % 999,4 hPa 0,0 l/m 7,3 km/h (2 Bft) SO 140 0 min 0,000 mm 0,0 UV-I 0 W/m 1,3 C 1,9 C 11,3 km/h (2 Bft) 100,00 %
10.02.2019 20:28 2,8 C 3,9 C 2,2 C 90 % 999,4 hPa 0,0 l/m 1,9 km/h (1 Bft) S-SW 198 0 min 0,000 mm 0,0 UV-I 0 W/m 1,3 C 2,8 C 4,8 km/h (1 Bft) 94,34 %
10.02.2019 20:30 2,7 C 3,9 C 2,2 C 90 % 999,6 hPa 0,0 l/m 2,5 km/h (1 Bft) W-SW 251 0 min 0,000 mm 0,0 UV-I 0 W/m 1,2 C 2,7 C 4,8 km/h (1 Bft) 93,62 %
10.02.2019 20:32 2,7 C 3,9 C 2,2 C 90 % 999,6 hPa 0,0 l/m 2,7 km/h (1 Bft) O-SO 103 0 min 0,000 mm 0,0 UV-I 0 W/m 1,2 C 2,7 C 4,8 km/h (1 Bft) 93,62 %
10.02.2019 20:34 2,7 C 3,9 C 2,2 C 90 % 999,9 hPa 0,0 l/m 3,1 km/h (1 Bft) W 277 0 min 0,000 mm 0,0 UV-I 0 W/m 1,2 C 2,7 C 4,8 km/h (1 Bft) 95,12 %
10.02.2019 20:36 2,7 C 3,9 C 2,2 C 90 % 999,9 hPa 0,0 l/m 2,3 km/h (1 Bft) W 277 0 min 0,000 mm 0,0 UV-I 0 W/m 1,2 C 2,7 C 4,8 km/h (1 Bft) 94,34 %
10.02.2019 20:39 2,7 C 3,9 C 2,2 C 90 % 1000,0 hPa 0,0 l/m 3,3 km/h (1 Bft) W 277 0 min 0,000 mm 0,0 UV-I 0 W/m 1,2 C 2,7 C 6,4 km/h (2 Bft) 93,22 %
10.02.2019 20:40 2,7 C 3,9 C 2,2 C 90 % 1000,0 hPa 0,0 l/m 1,5 km/h (1 Bft) W 276 0 min 0,000 mm 0,0 UV-I 0 W/m 1,2 C 2,7 C 3,2 km/h (1 Bft) 100,00 %
10.02.2019 20:42 2,8 C 3,9 C 2,2 C 90 % 1000,1 hPa 0,0 l/m 4,4 km/h (1 Bft) W 269 0 min 0,000 mm 0,0 UV-I 0 W/m 1,3 C 2,8 C 6,4 km/h (2 Bft) 95,74 %
10.02.2019 20:44 2,8 C 3,9 C 2,2 C 90 % 1000,2 hPa 0,0 l/m 2,4 km/h (1 Bft) W 269 0 min 0,000 mm 0,0 UV-I 0 W/m 1,3 C 2,8 C 4,8 km/h (1 Bft) 93,75 %
10.02.2019 20:46 2,8 C 3,9 C 2,2 C 90 % 1000,4 hPa 0,0 l/m 4,2 km/h (1 Bft) W 269 0 min 0,000 mm 0,0 UV-I 0 W/m 1,3 C 2,8 C 6,4 km/h (2 Bft) 94,00 %
10.02.2019 20:48 2,8 C 3,9 C 2,2 C 90 % 1000,5 hPa 0,0 l/m 6,6 km/h (2 Bft) SW 236 0 min 0,000 mm 0,0 UV-I 0 W/m 1,3 C 2,6 C 9,7 km/h (2 Bft) 95,74 %
10.02.2019 20:50 2,8 C 3,9 C 2,2 C 90 % 1000,7 hPa 0,0 l/m 6,3 km/h (2 Bft) SW 231 0 min 0,000 mm 0,0 UV-I 0 W/m 1,3 C 2,8 C 11,3 km/h (2 Bft) 95,74 %
10.02.2019 20:52 2,8 C 3,9 C 2,8 C 90 % 1001,0 hPa 0,0 l/m 9,6 km/h (2 Bft) W-SW 257 0 min 0,000 mm 0,0 UV-I 0 W/m 1,3 C -0,0 C 16,1 km/h (3 Bft) 97,87 %
10.02.2019 20:54 2,8 C 3,9 C 2,8 C 90 % 1001,2 hPa 0,0 l/m 10,0 km/h (2 Bft) W 263 0 min 0,000 mm 0,0 UV-I 0 W/m 1,3 C -0,4 C 16,1 km/h (3 Bft) 95,74 %
10.02.2019 20:56 2,9 C 3,9 C 2,8 C 90 % 1001,3 hPa 0,0 l/m 10,2 km/h (2 Bft) W 261 0 min 0,000 mm 0,0 UV-I 0 W/m 1,4 C -0,4 C 16,1 km/h (3 Bft) 98,00 %
10.02.2019 20:58 2,9 C 3,9 C 2,8 C 90 % 1001,8 hPa 0,0 l/m 14,9 km/h (3 Bft) W-NW 285 0 min 0,000 mm 0,0 UV-I 0 W/m 1,4 C -3,4 C 19,3 km/h (3 Bft) 97,87 %
10.02.2019 21:00 2,9 C 3,9 C 2,8 C 90 % 1002,3 hPa 0,0 l/m 17,8 km/h (3 Bft) W 270 0 min 0,000 mm 0,0 UV-I 0 W/m 1,4 C -4,9 C 24,1 km/h (4 Bft) 95,74 %
10.02.2019 21:02 3,0 C 3,9 C 2,8 C 90 % 1002,7 hPa 0,0 l/m 20,8 km/h (4 Bft) W-NW 303 0 min 0,000 mm 0,0 UV-I 0 W/m 1,5 C -6,1 C 33,8 km/h (5 Bft) 97,87 %
10.02.2019 21:04 3,1 C 3,9 C 2,8 C 90 % 1003,0 hPa 0,2 l/m 22,4 km/h (4 Bft) W 275 0 min 0,000 mm 0,0 UV-I 0 W/m 1,6 C -6,6 C 38,6 km/h (5 Bft) 100,00 %
10.02.2019 21:06 3,2 C 3,9 C 2,8 C 90 % 1003,1 hPa 0,0 l/m 23,5 km/h (4 Bft) W-NW 299 0 min 0,000 mm 0,0 UV-I 0 W/m 1,7 C -6,9 C 40,2 km/h (6 Bft) 97,87 %
10.02.2019 21:08 3,4 C 3,9 C 2,8 C 91 % 1003,2 hPa 0,2 l/m 18,2 km/h (3 Bft) W 270 0 min 0,000 mm 0,0 UV-I 0 W/m 2,1 C -4,5 C 29,0 km/h (5 Bft) 100,00 %
10.02.2019 21:10 3,6 C 3,9 C 3,3 C 91 % 1003,6 hPa 0,0 l/m 20,2 km/h (4 Bft) W 276 0 min 0,000 mm 0,0 UV-I 0 W/m 2,3 C -5,1 C 30,6 km/h (5 Bft) 100,00 %
10.02.2019 21:12 3,7 C 3,9 C 3,3 C 91 % 1003,9 hPa 0,2 l/m 19,3 km/h (3 Bft) W 270 0 min 0,000 mm 0,0 UV-I 0 W/m 2,4 C -4,6 C 29,0 km/h (5 Bft) 97,87 %
10.02.2019 21:14 3,8 C 3,9 C 3,3 C 91 % 1003,9 hPa 0,0 l/m 21,1 km/h (4 Bft) W-SW 249 0 min 0,000 mm 0,0 UV-I 0 W/m 2,5 C -5,2 C 38,6 km/h (5 Bft) 97,87 %
10.02.2019 21:16 3,8 C 3,9 C 3,3 C 91 % 1004,0 hPa 0,0 l/m 24,4 km/h (4 Bft) W 271 0 min 0,000 mm 0,0 UV-I 0 W/m 2,5 C -6,4 C 41,8 km/h (6 Bft) 96,00 %
10.02.2019 21:18 3,8 C 3,9 C 3,3 C 91 % 1004,1 hPa 0,2 l/m 20,0 km/h (4 Bft) W 267 0 min 0,000 mm 0,0 UV-I 0 W/m 2,5 C -4,7 C 33,8 km/h (5 Bft) 97,87 %
10.02.2019 21:20 3,9 C 3,9 C 3,3 C 92 % 1004,2 hPa 0,0 l/m 21,5 km/h (4 Bft) W 265 0 min 0,000 mm 0,0 UV-I 0 W/m 2,7 C -5,2 C 35,4 km/h (5 Bft) 100,00 %
10.02.2019 21:22 3,9 C 3,9 C 3,3 C 92 % 1004,4 hPa 0,0 l/m 16,3 km/h (3 Bft) W 268 0 min 0,000 mm 0,0 UV-I 0 W/m 2,7 C -2,9 C 27,4 km/h (4 Bft) 100,00 %
10.02.2019 21:24 3,9 C 3,9 C 3,3 C 92 % 1004,6 hPa 0,0 l/m 16,1 km/h (3 Bft) NW 325 0 min 0,000 mm 0,0 UV-I 0 W/m 2,7 C -2,8 C 24,1 km/h (4 Bft) 97,92 %
10.02.2019 21:26 3,9 C 3,9 C 3,3 C 93 % 1004,6 hPa 0,2 l/m 19,6 km/h (3 Bft) W-NW 294 0 min 0,000 mm 0,0 UV-I 0 W/m 2,9 C -4,4 C 29,0 km/h (5 Bft) 97,56 %
10.02.2019 21:28 4,1 C 3,9 C 3,3 C 93 % 1004,8 hPa 0,0 l/m 21,4 km/h (4 Bft) W-NW 288 0 min 0,000 mm 0,0 UV-I 0 W/m 3,1 C -4,9 C 30,6 km/h (5 Bft) 97,87 %
10.02.2019 21:30 4,2 C 3,9 C 3,9 C 93 % 1004,8 hPa 0,2 l/m 18,1 km/h (3 Bft) W-SW 248 0 min 0,000 mm 0,0 UV-I 0 W/m 3,2 C -3,4 C 30,6 km/h (5 Bft) 95,74 %
10.02.2019 21:32 4,2 C 3,9 C 3,9 C 93 % 1004,9 hPa 0,0 l/m 23,4 km/h (4 Bft) W 275 0 min 0,000 mm 0,0 UV-I 0 W/m 3,2 C -5,5 C 40,2 km/h (6 Bft) 98,00 %
10.02.2019 21:34 4,3 C 3,9 C 3,9 C 93 % 1005,0 hPa 0,0 l/m 25,2 km/h (4 Bft) W 261 0 min 0,000 mm 0,0 UV-I 0 W/m 3,3 C -6,0 C 40,2 km/h (6 Bft) 100,00 %
10.02.2019 21:36 4,4 C 3,9 C 3,9 C 93 % 1005,1 hPa 0,0 l/m 25,2 km/h (4 Bft) W 278 0 min 0,000 mm 0,0 UV-I 0 W/m 3,4 C -5,8 C 40,2 km/h (6 Bft) 100,00 %
10.02.2019 21:38 4,4 C 3,9 C 3,9 C 93 % 1005,2 hPa 0,0 l/m 22,0 km/h (4 Bft) W 269 0 min 0,000 mm 0,0 UV-I 0 W/m 3,4 C -4,7 C 33,8 km/h (5 Bft) 97,56 %
10.02.2019 21:40 4,4 C 3,9 C 3,9 C 93 % 1005,2 hPa 0,0 l/m 25,3 km/h (4 Bft) W 261 0 min 0,000 mm 0,0 UV-I 0 W/m 3,4 C -5,9 C 40,2 km/h (6 Bft) 100,00 %
10.02.2019 21:42 4,5 C 3,9 C 3,9 C 93 % 1005,2 hPa 0,2 l/m 26,0 km/h (4 Bft) W 274 0 min 0,000 mm 0,0 UV-I 0 W/m 3,5 C -5,9 C 40,2 km/h (6 Bft) 100,00 %
10.02.2019 21:44 4,5 C 3,9 C 3,9 C 93 % 1005,4 hPa 0,0 l/m 19,4 km/h (3 Bft) W-NW 288 0 min 0,000 mm 0,0 UV-I 0 W/m 3,5 C -3,6 C 32,2 km/h (5 Bft) 97,87 %
10.02.2019 21:46 4,5 C 3,9 C 3,9 C 93 % 1005,3 hPa 0,0 l/m 20,6 km/h (4 Bft) W 270 0 min 0,000 mm 0,0 UV-I 0 W/m 3,5 C -4,1 C 30,6 km/h (5 Bft) 97,87 %
10.02.2019 21:48 4,6 C 3,9 C 3,9 C 93 % 1005,3 hPa 0,2 l/m 26,4 km/h (4 Bft) W-NW 300 0 min 0,000 mm 0,0 UV-I 0 W/m 3,6 C -5,9 C 40,2 km/h (6 Bft) 95,74 %
10.02.2019 21:50 4,6 C 3,9 C 3,9 C 93 % 1005,4 hPa 0,0 l/m 19,9 km/h (4 Bft) S-SW 213 0 min 0,000 mm 0,0 UV-I 0 W/m 3,6 C -3,6 C 32,2 km/h (5 Bft) 93,62 %
10.02.2019 21:52 4,5 C 3,9 C 3,9 C 92 % 1005,3 hPa 0,0 l/m 25,9 km/h (4 Bft) W 274 0 min 0,000 mm 0,0 UV-I 0 W/m 3,3 C -5,9 C 37,0 km/h (5 Bft) 96,00 %
10.02.2019 21:54 4,6 C 3,9 C 3,9 C 92 % 1005,4 hPa 0,0 l/m 31,7 km/h (5 Bft) W-SW 254 0 min 0,000 mm 0,0 UV-I 0 W/m 3,4 C -7,4 C 43,5 km/h (6 Bft) 97,87 %
10.02.2019 21:56 4,5 C 3,9 C 3,9 C 92 % 1005,4 hPa 0,2 l/m 24,4 km/h (4 Bft) W-SW 248 0 min 0,000 mm 0,0 UV-I 0 W/m 3,3 C -5,4 C 32,2 km/h (5 Bft) 94,74 %
10.02.2019 21:58 4,5 C 3,9 C 3,9 C 92 % 1005,5 hPa 0,0 l/m 23,0 km/h (4 Bft) W-SW 252 0 min 0,000 mm 0,0 UV-I 0 W/m 3,3 C -4,9 C 30,6 km/h (5 Bft) 94,00 %
10.02.2019 22:00 4,5 C 3,9 C 3,9 C 91 % 1005,5 hPa 0,0 l/m 20,5 km/h (4 Bft) W-SW 257 0 min 0,000 mm 0,0 UV-I 0 W/m 3,2 C -4,0 C 29,0 km/h (5 Bft) 93,62 %
10.02.2019 22:02 4,4 C 3,9 C 3,9 C 91 % 1005,4 hPa 0,0 l/m 22,2 km/h (4 Bft) W-SW 255 0 min 0,026 mm 0,0 UV-I 0 W/m 3,1 C -4,8 C 33,8 km/h (5 Bft) 95,83 %
10.02.2019 22:04 4,4 C 3,9 C 3,9 C 91 % 1005,4 hPa 0,2 l/m 22,9 km/h (4 Bft) W 272 0 min 0,000 mm 0,0 UV-I 0 W/m 3,1 C -5,0 C 33,8 km/h (5 Bft) 92,00 %
10.02.2019 22:06 4,5 C 3,9 C 3,9 C 91 % 1005,3 hPa 0,0 l/m 22,7 km/h (4 Bft) W-SW 242 0 min 0,000 mm 0,0 UV-I 0 W/m 3,2 C -4,8 C 35,4 km/h (5 Bft) 97,87 %
10.02.2019 22:08 4,4 C 3,9 C 3,3 C 91 % 1005,0 hPa 0,0 l/m 19,9 km/h (4 Bft) S-SW 200 0 min 0,000 mm 0,0 UV-I 0 W/m 3,1 C -3,9 C 29,0 km/h (5 Bft) 95,74 %
10.02.2019 22:10 4,4 C 3,9 C 3,3 C 91 % 1004,7 hPa 0,0 l/m 16,6 km/h (3 Bft) SW 226 0 min 0,000 mm 0,0 UV-I 0 W/m 3,1 C -2,5 C 22,5 km/h (4 Bft) 97,37 %
10.02.2019 22:12 4,4 C 3,9 C 3,3 C 91 % 1004,7 hPa 0,0 l/m 19,5 km/h (3 Bft) SW 235 0 min 0,000 mm 0,0 UV-I 0 W/m 3,1 C -3,7 C 30,6 km/h (5 Bft) 97,87 %
10.02.2019 22:14 4,4 C 3,9 C 3,3 C 91 % 1004,7 hPa 0,0 l/m 21,7 km/h (4 Bft) SW 225 0 min 0,000 mm 0,0 UV-I 0 W/m 3,1 C -4,6 C 29,0 km/h (5 Bft) 95,74 %
10.02.2019 22:16 4,5 C 3,9 C 3,3 C 91 % 1004,6 hPa 0,0 l/m 23,3 km/h (4 Bft) S-SW 211 0 min 0,000 mm 0,0 UV-I 0 W/m 3,2 C -5,1 C 38,6 km/h (5 Bft) 95,74 %
10.02.2019 22:18 4,5 C 3,9 C 3,3 C 91 % 1004,7 hPa 0,0 l/m 18,9 km/h (3 Bft) W-SW 238 0 min 0,000 mm 0,0 UV-I 0 W/m 3,2 C -3,4 C 33,8 km/h (5 Bft) 98,00 %
10.02.2019 22:20 4,6 C 3,9 C 3,3 C 91 % 1004,6 hPa 0,0 l/m 20,8 km/h (4 Bft) S-SW 194 0 min 0,000 mm 0,0 UV-I 0 W/m 3,3 C -4,0 C 30,6 km/h (5 Bft) 95,74 %
10.02.2019 22:22 4,6 C 3,9 C 3,9 C 91 % 1004,6 hPa 0,0 l/m 17,5 km/h (3 Bft) W-SW 249 0 min 0,000 mm 0,0 UV-I 0 W/m 3,3 C -2,6 C 25,7 km/h (4 Bft) 97,87 %
10.02.2019 22:24 4,6 C 3,9 C 3,3 C 91 % 1004,7 hPa 0,0 l/m 18,9 km/h (3 Bft) SW 219 0 min 0,000 mm 0,0 UV-I 0 W/m 3,3 C -3,2 C 30,6 km/h (5 Bft) 97,87 %
10.02.2019 22:26 4,6 C 3,9 C 3,9 C 90 % 1004,7 hPa 0,0 l/m 21,3 km/h (4 Bft) SW 228 0 min 0,000 mm 0,0 UV-I 0 W/m 3,1 C -4,2 C 32,2 km/h (5 Bft) 97,14 %
10.02.2019 22:28 4,7 C 3,9 C 3,9 C 90 % 1004,7 hPa 0,0 l/m 20,2 km/h (4 Bft) SW 236 0 min 0,000 mm 0,0 UV-I 0 W/m 3,2 C -3,6 C 33,8 km/h (5 Bft) 96,92 %
10.02.2019 22:30 4,7 C 3,9 C 3,9 C 90 % 1004,8 hPa 0,0 l/m 18,7 km/h (3 Bft) SW 221 0 min 0,000 mm 0,0 UV-I 0 W/m 3,2 C -3,0 C 25,7 km/h (4 Bft) 97,87 %
10.02.2019 22:32 4,6 C 3,9 C 3,9 C 90 % 1004,7 hPa 0,0 l/m 17,9 km/h (3 Bft) SW 215 0 min 0,000 mm 0,0 UV-I 0 W/m 3,1 C -2,8 C 32,2 km/h (5 Bft) 94,74 %
10.02.2019 22:34 4,6 C 3,9 C 3,3 C 90 % 1004,8 hPa 0,0 l/m 18,2 km/h (3 Bft) SW 215 0 min 0,000 mm 0,0 UV-I 0 W/m 3,1 C -2,9 C 25,7 km/h (4 Bft) 97,87 %
10.02.2019 22:36 4,6 C 3,9 C 3,3 C 90 % 1004,8 hPa 0,0 l/m 16,9 km/h (3 Bft) SW 217 0 min 0,000 mm 0,0 UV-I 0 W/m 3,1 C -2,3 C 30,6 km/h (5 Bft) 95,74 %
10.02.2019 22:38 4,6 C 3,9 C 3,3 C 90 % 1004,8 hPa 0,0 l/m 17,1 km/h (3 Bft) W-SW 240 0 min 0,000 mm 0,0 UV-I 0 W/m 3,1 C -2,4 C 29,0 km/h (5 Bft) 94,00 %
10.02.2019 22:40 4,6 C 3,9 C 3,3 C 90 % 1004,9 hPa 0,0 l/m 16,6 km/h (3 Bft) SW 223 0 min 0,000 mm 0,0 UV-I 0 W/m 3,1 C -2,2 C 30,6 km/h (5 Bft) 93,75 %
10.02.2019 22:42 4,6 C 3,9 C 3,3 C 90 % 1004,9 hPa 0,0 l/m 20,3 km/h (4 Bft) SW 234 0 min 0,000 mm 0,0 UV-I 0 W/m 3,1 C -3,8 C 30,6 km/h (5 Bft) 88,00 %
10.02.2019 22:44 4,6 C 3,9 C 3,3 C 90 % 1004,9 hPa 0,0 l/m 18,9 km/h (3 Bft) W-SW 248 0 min 0,000 mm 0,0 UV-I 0 W/m 3,1 C -3,2 C 29,0 km/h (5 Bft) 93,62 %
10.02.2019 22:46 4,7 C 3,9 C 3,9 C 89 % 1004,9 hPa 0,0 l/m 17,9 km/h (3 Bft) SW 236 0 min 0,000 mm 0,0 UV-I 0 W/m 3,0 C -2,7 C 35,4 km/h (5 Bft) 97,37 %
10.02.2019 22:48 4,7 C 3,9 C 3,3 C 89 % 1004,9 hPa 0,0 l/m 19,8 km/h (3 Bft) W 259 0 min 0,000 mm 0,0 UV-I 0 W/m 3,0 C -3,5 C 33,8 km/h (5 Bft) 91,49 %
10.02.2019 22:50 4,7 C 3,9 C 3,3 C 88 % 1004,9 hPa 0,0 l/m 22,7 km/h (4 Bft) W-SW 238 0 min 0,000 mm 0,0 UV-I 0 W/m 2,9 C -4,6 C 32,2 km/h (5 Bft) 95,74 %
10.02.2019 22:52 4,8 C 3,9 C 3,9 C 88 % 1005,0 hPa 0,0 l/m 21,5 km/h (4 Bft) W-SW 238 0 min 0,000 mm 0,0 UV-I 0 W/m 3,0 C -4,0 C 35,4 km/h (5 Bft) 93,62 %
10.02.2019 22:54 4,9 C 3,9 C 3,3 C 87 % 1005,0 hPa 0,0 l/m 22,7 km/h (4 Bft) SW 232 0 min 0,000 mm 0,0 UV-I 0 W/m 2,9 C -4,3 C 35,4 km/h (5 Bft) 96,00 %
10.02.2019 22:56 4,9 C 3,9 C 3,9 C 86 % 1005,0 hPa 0,0 l/m 20,6 km/h (4 Bft) W-SW 243 0 min 0,000 mm 0,0 UV-I 0 W/m 2,8 C -3,5 C 40,2 km/h (6 Bft) 95,74 %
10.02.2019 22:58 4,9 C 3,9 C 3,3 C 86 % 1005,0 hPa 0,0 l/m 26,8 km/h (4 Bft) W 281 0 min 0,000 mm 0,0 UV-I 0 W/m 2,8 C -5,6 C 35,4 km/h (5 Bft) 93,62 %
10.02.2019 23:00 5,0 C 3,9 C 3,3 C 85 % 1005,0 hPa 0,0 l/m 26,8 km/h (4 Bft) W-SW 252 0 min 0,000 mm 0,0 UV-I 0 W/m 2,7 C -5,5 C 38,6 km/h (5 Bft) 95,74 %
10.02.2019 23:02 5,1 C 3,9 C 3,9 C 84 % 1005,1 hPa 0,0 l/m 24,2 km/h (4 Bft) W-SW 239 0 min 0,025 mm 0,0 UV-I 0 W/m 2,6 C -4,6 C 35,4 km/h (5 Bft) 92,00 %
10.02.2019 23:04 5,1 C 3,9 C 3,9 C 84 % 1005,0 hPa 0,0 l/m 26,7 km/h (4 Bft) W-SW 244 0 min 0,000 mm 0,0 UV-I 0 W/m 2,6 C -5,3 C 41,8 km/h (6 Bft) 97,37 %
10.02.2019 23:06 5,1 C 3,9 C 3,9 C 83 % 1005,1 hPa 0,0 l/m 26,7 km/h (4 Bft) W-SW 240 0 min 0,000 mm 0,0 UV-I 0 W/m 2,5 C -5,3 C 41,8 km/h (6 Bft) 89,36 %
10.02.2019 23:08 5,1 C 3,9 C 3,9 C 83 % 1005,0 hPa 0,0 l/m 31,1 km/h (5 Bft) W-SW 250 0 min 0,000 mm 0,0 UV-I 0 W/m 2,5 C -6,5 C 45,1 km/h (6 Bft) 94,00 %
10.02.2019 23:10 5,1 C 3,9 C 3,9 C 83 % 1005,0 hPa 0,0 l/m 27,0 km/h (4 Bft) W 264 0 min 0,000 mm 0,0 UV-I 0 W/m 2,5 C -5,4 C 41,8 km/h (6 Bft) 92,00 %
10.02.2019 23:12 5,1 C 3,9 C 3,9 C 83 % 1005,0 hPa 0,0 l/m 28,0 km/h (4 Bft) SW 234 0 min 0,000 mm 0,0 UV-I 0 W/m 2,5 C -5,7 C 40,2 km/h (6 Bft) 96,00 %
10.02.2019 23:14 5,1 C 3,9 C 3,9 C 83 % 1005,1 hPa 0,0 l/m 22,9 km/h (4 Bft) W 260 0 min 0,000 mm 0,0 UV-I 0 W/m 2,5 C -4,1 C 33,8 km/h (5 Bft) 93,62 %
10.02.2019 23:16 5,1 C 3,9 C 3,9 C 83 % 1005,1 hPa 0,0 l/m 20,3 km/h (4 Bft) W-SW 252 0 min 0,000 mm 0,0 UV-I 0 W/m 2,5 C -3,2 C 32,2 km/h (5 Bft) 97,87 %
10.02.2019 23:18 5,1 C 3,9 C 3,3 C 83 % 1005,1 hPa 0,0 l/m 22,7 km/h (4 Bft) W-SW 251 0 min 0,000 mm 0,0 UV-I 0 W/m 2,5 C -4,0 C 32,2 km/h (5 Bft) 97,87 %
10.02.2019 23:20 5,0 C 3,9 C 3,9 C 83 % 1005,1 hPa 0,0 l/m 24,7 km/h (4 Bft) W-SW 244 0 min 0,000 mm 0,0 UV-I 0 W/m 2,4 C -4,8 C 35,4 km/h (5 Bft) 93,62 %
10.02.2019 23:22 5,1 C 3,9 C 3,9 C 83 % 1005,1 hPa 0,0 l/m 24,5 km/h (4 Bft) SW 223 0 min 0,000 mm 0,0 UV-I 0 W/m 2,5 C -4,6 C 32,2 km/h (5 Bft) 97,87 %
10.02.2019 23:24 5,1 C 3,9 C 3,9 C 83 % 1005,2 hPa 0,0 l/m 23,7 km/h (4 Bft) W-SW 252 0 min 0,000 mm 0,0 UV-I 0 W/m 2,5 C -4,4 C 33,8 km/h (5 Bft) 95,83 %
10.02.2019 23:26 5,1 C 3,9 C 3,9 C 83 % 1005,1 hPa 0,0 l/m 26,2 km/h (4 Bft) W-SW 247 0 min 0,000 mm 0,0 UV-I 0 W/m 2,5 C -5,2 C 37,0 km/h (5 Bft) 100,00 %
10.02.2019 23:28 5,1 C 3,9 C 3,9 C 82 % 1005,2 hPa 0,0 l/m 23,8 km/h (4 Bft) W-SW 244 0 min 0,000 mm 0,0 UV-I 0 W/m 2,3 C -4,4 C 41,8 km/h (6 Bft) 95,74 %
10.02.2019 23:30 5,1 C 3,9 C 3,9 C 82 % 1005,2 hPa 0,0 l/m 26,5 km/h (4 Bft) SW 226 0 min 0,000 mm 0,0 UV-I 0 W/m 2,3 C -5,3 C 38,6 km/h (5 Bft) 98,00 %
10.02.2019 23:32 5,1 C 3,9 C 3,9 C 82 % 1005,1 hPa 0,0 l/m 24,7 km/h (4 Bft) SW 229 0 min 0,000 mm 0,0 UV-I 0 W/m 2,3 C -4,7 C 35,4 km/h (5 Bft) 97,87 %
10.02.2019 23:34 5,1 C 3,9 C 3,9 C 82 % 1005,2 hPa 0,0 l/m 24,1 km/h (4 Bft) W-SW 239 0 min 0,000 mm 0,0 UV-I 0 W/m 2,3 C -4,5 C 33,8 km/h (5 Bft) 100,00 %
10.02.2019 23:36 5,1 C 3,9 C 3,9 C 82 % 1005,2 hPa 0,0 l/m 25,9 km/h (4 Bft) W-SW 243 0 min 0,000 mm 0,0 UV-I 0 W/m 2,3 C -5,1 C 35,4 km/h (5 Bft) 100,00 %
10.02.2019 23:38 5,1 C 3,9 C 3,9 C 82 % 1005,2 hPa 0,0 l/m 27,9 km/h (4 Bft) SW 230 0 min 0,000 mm 0,0 UV-I 0 W/m 2,3 C -5,7 C 41,8 km/h (6 Bft) 98,00 %
10.02.2019 23:40 5,2 C 3,9 C 3,9 C 81 % 1005,3 hPa 0,0 l/m 27,4 km/h (4 Bft) W-SW 256 0 min 0,000 mm 0,0 UV-I 0 W/m 2,2 C -5,4 C 35,4 km/h (5 Bft) 97,87 %
10.02.2019 23:42 5,2 C 3,9 C 3,9 C 81 % 1005,2 hPa 0,0 l/m 24,8 km/h (4 Bft) SW 234 0 min 0,000 mm 0,0 UV-I 0 W/m 2,2 C -4,6 C 32,2 km/h (5 Bft) 97,87 %
10.02.2019 23:44 5,2 C 3,9 C 3,9 C 81 % 1005,1 hPa 0,0 l/m 25,9 km/h (4 Bft) SW 235 0 min 0,000 mm 0,0 UV-I 0 W/m 2,2 C -5,0 C 38,6 km/h (5 Bft) 97,87 %
10.02.2019 23:46 5,3 C 3,9 C 3,9 C 80 % 1005,2 hPa 0,0 l/m 22,2 km/h (4 Bft) W 265 0 min 0,000 mm 0,0 UV-I 0 W/m 2,1 C -3,6 C 37,0 km/h (5 Bft) 100,00 %
10.02.2019 23:48 5,3 C 3,9 C 3,9 C 80 % 1005,2 hPa 0,0 l/m 18,8 km/h (3 Bft) SW 231 0 min 0,000 mm 0,0 UV-I 0 W/m 2,1 C -2,3 C 27,4 km/h (4 Bft) 100,00 %
10.02.2019 23:50 5,3 C 3,9 C 3,9 C 80 % 1005,2 hPa 0,0 l/m 19,9 km/h (4 Bft) W-SW 242 0 min 0,000 mm 0,0 UV-I 0 W/m 2,1 C -2,7 C 37,0 km/h (5 Bft) 95,74 %
10.02.2019 23:52 5,3 C 3,9 C 3,9 C 80 % 1005,2 hPa 0,0 l/m 24,9 km/h (4 Bft) W 265 0 min 0,000 mm 0,0 UV-I 0 W/m 2,1 C -4,5 C 41,8 km/h (6 Bft) 100,00 %
10.02.2019 23:54 5,3 C 3,9 C 3,9 C 80 % 1005,2 hPa 0,0 l/m 21,7 km/h (4 Bft) W 265 0 min 0,000 mm 0,0 UV-I 0 W/m 2,1 C -3,4 C 32,2 km/h (5 Bft) 97,87 %
10.02.2019 23:56 5,3 C 3,9 C 3,9 C 80 % 1005,2 hPa 0,0 l/m 25,2 km/h (4 Bft) W-SW 249 0 min 0,000 mm 0,0 UV-I 0 W/m 2,1 C -4,6 C 35,4 km/h (5 Bft) 100,00 %
10.02.2019 23:58 5,3 C 3,9 C 3,9 C 80 % 1005,2 hPa 0,0 l/m 18,6 km/h (3 Bft) SW 224 0 min 0,000 mm 0,0 UV-I 0 W/m 2,1 C -2,2 C 27,4 km/h (4 Bft) 95,83 %
_ Min-Zeit 07:16 00:00 07:06 13:26 17:54 - 03:02 - - - - - - 07:16 21:54 03:02 00:00
Minimum _ -1,6 C 3,9 C -5,0 C 73 % 998,7 hPa - 0,0 km/h (0 Bft) - - - - - - -2,3 C -7,4 C 0,0 km/h (0 Bft) 87,50 %
_ Max-Zeit 15:02 00:00 10:50 08:46 00:18 21:04 21:54 - - 07:30 12:00 11:36 11:38 15:02 15:02 23:08 00:56
Maximum _ 8,2 C 3,9 C 12,8 C 97 % 1017,2 hPa 0,2 l/m 31,7 km/h
W-SW (5 Bft)
- - 2 min 0,178 mm 1,0 UV-I 459 W/m 4,2 C 8,2 C 45,1 km/h
W-SW (6 Bft)
100,00 %
Durchschnitt _ 3,2 C 3,9 C 2,9 C 87 % 1007,5 hPa #2,0 l/m 7,4 km/h (2 Bft) O-NO - #5:24 h #1,016 mm 0,7 UV-I 199 W/m 1,1 C 1,3 C 11,2 km/h (2 Bft) 97,02 %